SHARE
TWEET

Rob Tracker GPX

a guest Jun 24th, 2016 77 Never
Not a member of Pastebin yet? Sign Up, it unlocks many cool features!
  1. <?xml version="1.0" encoding="ISO-8859-1" standalone="yes"?>
  2. <gpx
  3.   xmlns="http://www.topografix.com/GPX/1/1"
  4.   version="1.1" creator="Rob Young Cheater"
  5.   xmlns:xsi="http://www.w3.org/2001/XMLSchema-instance"
  6.   xmlns:gpxdata="http://www.cluetrust.com/XML/GPXDATA/1/0"
  7.   xmlns:geocache="http://www.groundspeak.com/cache/1/0"
  8.   xsi:schemaLocation="http://www.topografix.com/GPX/1/1 http://www.topografix.com/GPX/1/1/gpx.xsd
  9. http://www.cluetrust.com/XML/GPXDATA/1/0 http://www.cluetrust.com/Schemas/gpxdata10.xsd">
  10. <trk>
  11. <trkseg>
  12. <trkpt lat="33.65689500" lon="-118.00181000"><time>2016-05-13T23:01:08-05:00</time></trkpt>
  13. <trkpt lat="33.65754300" lon="-117.98397300"><time>2016-05-13T23:13:08-05:00</time></trkpt>
  14. <trkpt lat="33.65773500" lon="-117.95328800"><time>2016-05-13T23:25:07-05:00</time></trkpt>
  15. <trkpt lat="33.67801600" lon="-117.94429400"><time>2016-05-13T23:37:05-05:00</time></trkpt>
  16. <trkpt lat="33.70331100" lon="-117.92977100"><time>2016-05-13T23:49:04-05:00</time></trkpt>
  17. <trkpt lat="33.72796400" lon="-117.91549700"><time>2016-05-14T00:01:05-05:00</time></trkpt>
  18. <trkpt lat="33.75095700" lon="-117.90827500"><time>2016-05-14T00:13:03-05:00</time></trkpt>
  19. <trkpt lat="33.77102300" lon="-117.89191100"><time>2016-05-14T00:25:01-05:00</time></trkpt>
  20. <trkpt lat="33.79350700" lon="-117.88087700"><time>2016-05-14T00:37:02-05:00</time></trkpt>
  21. <trkpt lat="33.81288300" lon="-117.87023200"><time>2016-05-14T00:49:00-05:00</time></trkpt>
  22. <trkpt lat="33.83534300" lon="-117.86252700"><time>2016-05-14T01:00:59-05:00</time></trkpt>
  23. <trkpt lat="33.84725700" lon="-117.83770900"><time>2016-05-14T01:12:59-05:00</time></trkpt>
  24. <trkpt lat="33.84743300" lon="-117.83657300"><time>2016-05-14T01:24:56-05:00</time></trkpt>
  25. <trkpt lat="33.85356100" lon="-117.82052200"><time>2016-05-14T01:36:57-05:00</time></trkpt>
  26. <trkpt lat="33.85617000" lon="-117.79357400"><time>2016-05-14T01:48:56-05:00</time></trkpt>
  27. <trkpt lat="33.86922300" lon="-117.76252000"><time>2016-05-14T02:02:47-05:00</time></trkpt>
  28. <trkpt lat="33.87422500" lon="-117.74500100"><time>2016-05-14T02:12:55-05:00</time></trkpt>
  29. <trkpt lat="33.86764500" lon="-117.72444700"><time>2016-05-14T02:25:00-05:00</time></trkpt>
  30. <trkpt lat="33.87474500" lon="-117.69418300"><time>2016-05-14T02:41:47-05:00</time></trkpt>
  31. <trkpt lat="33.86993100" lon="-117.68053500"><time>2016-05-14T02:51:54-05:00</time></trkpt>
  32. <trkpt lat="33.87255400" lon="-117.66550400"><time>2016-05-14T03:03:50-05:00</time></trkpt>
  33. <trkpt lat="33.87267400" lon="-117.66552500"><time>2016-05-14T03:15:48-05:00</time></trkpt>
  34. <trkpt lat="33.87893400" lon="-117.65906800"><time>2016-05-14T03:27:48-05:00</time></trkpt>
  35. <trkpt lat="33.88260800" lon="-117.63418200"><time>2016-05-14T03:39:50-05:00</time></trkpt>
  36. <trkpt lat="33.87760900" lon="-117.61834100"><time>2016-05-14T03:51:45-05:00</time></trkpt>
  37. <trkpt lat="33.87951600" lon="-117.61246000"><time>2016-05-14T04:03:44-05:00</time></trkpt>
  38. <trkpt lat="33.87766300" lon="-117.58782400"><time>2016-05-14T04:15:44-05:00</time></trkpt>
  39. <trkpt lat="33.87629600" lon="-117.57619500"><time>2016-05-14T04:27:44-05:00</time></trkpt>
  40. <trkpt lat="33.87629600" lon="-117.57619500"><time>2016-05-14T04:39:41-05:00</time></trkpt>
  41. <trkpt lat="33.87622100" lon="-117.57611600"><time>2016-05-14T04:51:42-05:00</time></trkpt>
  42. <trkpt lat="33.87622100" lon="-117.57611600"><time>2016-05-14T05:07:16-05:00</time></trkpt>
  43. <trkpt lat="33.87620800" lon="-117.57394700"><time>2016-05-14T07:24:32-05:00</time></trkpt>
  44. <trkpt lat="33.87469200" lon="-117.55049500"><time>2016-05-14T07:36:18-05:00</time></trkpt>
  45. <trkpt lat="33.87344300" lon="-117.53120400"><time>2016-05-14T07:48:17-05:00</time></trkpt>
  46. <trkpt lat="33.88170200" lon="-117.51434200"><time>2016-05-14T08:00:17-05:00</time></trkpt>
  47. <trkpt lat="33.89285000" lon="-117.49441200"><time>2016-05-14T08:12:25-05:00</time></trkpt>
  48. <trkpt lat="33.90026700" lon="-117.48160400"><time>2016-05-14T08:24:13-05:00</time></trkpt>
  49. <trkpt lat="33.90899700" lon="-117.46622700"><time>2016-05-14T08:36:12-05:00</time></trkpt>
  50. <trkpt lat="33.91846700" lon="-117.44975400"><time>2016-05-14T08:48:12-05:00</time></trkpt>
  51. <trkpt lat="33.92747200" lon="-117.43388600"><time>2016-05-14T09:00:10-05:00</time></trkpt>
  52. <trkpt lat="33.93768200" lon="-117.41596900"><time>2016-05-14T09:12:10-05:00</time></trkpt>
  53. <trkpt lat="33.94619300" lon="-117.40073100"><time>2016-05-14T09:24:10-05:00</time></trkpt>
  54. <trkpt lat="33.94631500" lon="-117.38828400"><time>2016-05-14T09:36:09-05:00</time></trkpt>
  55. <trkpt lat="33.94640900" lon="-117.37146000"><time>2016-05-14T09:48:07-05:00</time></trkpt>
  56. <trkpt lat="33.94444100" lon="-117.35459900"><time>2016-05-14T10:00:08-05:00</time></trkpt>
  57. <trkpt lat="33.91654200" lon="-117.30570700"><time>2016-05-14T10:12:09-05:00</time></trkpt>
  58. <trkpt lat="33.91667000" lon="-117.30200900"><time>2016-05-14T10:36:35-05:00</time></trkpt>
  59. <trkpt lat="33.92274300" lon="-117.33564700"><time>2016-05-14T10:48:03-05:00</time></trkpt>
  60. <trkpt lat="33.91972400" lon="-117.33316400"><time>2016-05-14T11:35:14-05:00</time></trkpt>
  61. <trkpt lat="33.91622000" lon="-117.32364300"><time>2016-05-14T11:50:12-05:00</time></trkpt>
  62. <trkpt lat="33.91669000" lon="-117.28837300"><time>2016-05-14T12:02:59-05:00</time></trkpt>
  63. <trkpt lat="33.91710100" lon="-117.26848300"><time>2016-05-14T12:14:57-05:00</time></trkpt>
  64. <trkpt lat="33.91737700" lon="-117.26231400"><time>2016-05-14T12:26:56-05:00</time></trkpt>
  65. <trkpt lat="33.91742600" lon="-117.25100900"><time>2016-05-14T12:38:56-05:00</time></trkpt>
  66. <trkpt lat="33.91742800" lon="-117.23391000"><time>2016-05-14T12:50:55-05:00</time></trkpt>
  67. <trkpt lat="33.91743300" lon="-117.21586400"><time>2016-05-14T13:02:54-05:00</time></trkpt>
  68. <trkpt lat="33.91749000" lon="-117.19982100"><time>2016-05-14T13:14:53-05:00</time></trkpt>
  69. <trkpt lat="33.91755900" lon="-117.18526100"><time>2016-05-14T13:26:53-05:00</time></trkpt>
  70. <trkpt lat="33.91742100" lon="-117.18018100"><time>2016-05-14T13:38:52-05:00</time></trkpt>
  71. <trkpt lat="33.91742100" lon="-117.18018100"><time>2016-05-14T13:50:52-05:00</time></trkpt>
  72. <trkpt lat="33.91740200" lon="-117.17842400"><time>2016-05-14T14:03:16-05:00</time></trkpt>
  73. <trkpt lat="33.91745600" lon="-117.16208800"><time>2016-05-14T14:14:49-05:00</time></trkpt>
  74. <trkpt lat="33.91743700" lon="-117.14668800"><time>2016-05-14T14:26:48-05:00</time></trkpt>
  75. <trkpt lat="33.92128000" lon="-117.13932900"><time>2016-05-14T14:38:47-05:00</time></trkpt>
  76. <trkpt lat="33.92560800" lon="-117.13927700"><time>2016-05-14T14:50:47-05:00</time></trkpt>
  77. <trkpt lat="33.92531500" lon="-117.13928400"><time>2016-05-14T15:02:51-05:00</time></trkpt>
  78. <trkpt lat="33.92562500" lon="-117.13930400"><time>2016-05-14T15:14:45-05:00</time></trkpt>
  79. <trkpt lat="33.92785400" lon="-117.13917500"><time>2016-05-14T15:26:46-05:00</time></trkpt>
  80. <trkpt lat="33.93320000" lon="-117.13351200"><time>2016-05-14T15:38:46-05:00</time></trkpt>
  81. <trkpt lat="33.93359400" lon="-117.11999300"><time>2016-05-14T15:50:47-05:00</time></trkpt>
  82. <trkpt lat="33.93593000" lon="-117.11771000"><time>2016-05-14T16:02:43-05:00</time></trkpt>
  83. <trkpt lat="33.93717100" lon="-117.10097800"><time>2016-05-14T16:14:56-05:00</time></trkpt>
  84. <trkpt lat="33.93935400" lon="-117.09471300"><time>2016-05-14T16:26:44-05:00</time></trkpt>
  85. <trkpt lat="33.94313600" lon="-117.08111400"><time>2016-05-14T16:38:41-05:00</time></trkpt>
  86. <trkpt lat="33.94632700" lon="-117.06631200"><time>2016-05-14T16:51:05-05:00</time></trkpt>
  87. <trkpt lat="33.94648700" lon="-117.06532700"><time>2016-05-14T17:02:53-05:00</time></trkpt>
  88. <trkpt lat="33.94648700" lon="-117.06532700"><time>2016-05-14T17:14:35-05:00</time></trkpt>
  89. <trkpt lat="33.94648700" lon="-117.06532700"><time>2016-05-14T19:21:22-05:00</time></trkpt>
  90. <trkpt lat="33.94604000" lon="-117.05773400"><time>2016-05-14T19:32:12-05:00</time></trkpt>
  91. <trkpt lat="33.94134200" lon="-117.04806600"><time>2016-05-14T19:44:12-05:00</time></trkpt>
  92. <trkpt lat="33.93331400" lon="-117.03184700"><time>2016-05-14T19:56:11-05:00</time></trkpt>
  93. <trkpt lat="33.93369900" lon="-117.01798600"><time>2016-05-14T20:06:15-05:00</time></trkpt>
  94. <trkpt lat="33.93367500" lon="-117.00596900"><time>2016-05-14T20:18:18-05:00</time></trkpt>
  95. <trkpt lat="33.93164600" lon="-116.98674200"><time>2016-05-14T20:30:16-05:00</time></trkpt>
  96. <trkpt lat="33.93246700" lon="-116.97173600"><time>2016-05-14T20:42:12-05:00</time></trkpt>
  97. <trkpt lat="33.93245800" lon="-116.96638800"><time>2016-05-14T20:54:41-05:00</time></trkpt>
  98. <trkpt lat="33.93245800" lon="-116.96638800"><time>2016-05-14T21:06:11-05:00</time></trkpt>
  99. <trkpt lat="33.93244900" lon="-116.95981500"><time>2016-05-14T21:18:10-05:00</time></trkpt>
  100. <trkpt lat="33.93262800" lon="-116.93640600"><time>2016-05-14T21:30:09-05:00</time></trkpt>
  101. <trkpt lat="33.93248300" lon="-116.91851600"><time>2016-05-14T21:42:07-05:00</time></trkpt>
  102. <trkpt lat="33.93245900" lon="-116.89907700"><time>2016-05-14T21:54:07-05:00</time></trkpt>
  103. <trkpt lat="33.92551800" lon="-116.88962900"><time>2016-05-14T22:06:05-05:00</time></trkpt>
  104. <trkpt lat="33.92531200" lon="-116.88518000"><time>2016-05-14T22:18:11-05:00</time></trkpt>
  105. <trkpt lat="33.92540000" lon="-116.88494100"><time>2016-05-14T22:30:06-05:00</time></trkpt>
  106. <trkpt lat="33.92484900" lon="-116.88489600"><time>2016-05-14T22:42:00-05:00</time></trkpt>
  107. <trkpt lat="33.92504000" lon="-116.88491600"><time>2016-05-15T00:00:10-05:00</time></trkpt>
  108. <trkpt lat="33.92504000" lon="-116.88491600"><time>2016-05-15T00:11:47-05:00</time></trkpt>
  109. <trkpt lat="33.92484800" lon="-116.88492000"><time>2016-05-15T00:23:46-05:00</time></trkpt>
  110. <trkpt lat="33.92484800" lon="-116.88492000"><time>2016-05-15T00:35:44-05:00</time></trkpt>
  111. <trkpt lat="33.92484800" lon="-116.88492000"><time>2016-05-15T00:47:43-05:00</time></trkpt>
  112. <trkpt lat="33.93061600" lon="-116.83390900"><time>2016-05-15T05:37:58-05:00</time></trkpt>
  113. <trkpt lat="33.93124100" lon="-116.82567600"><time>2016-05-15T05:48:53-05:00</time></trkpt>
  114. <trkpt lat="33.91976000" lon="-116.80550700"><time>2016-05-15T06:00:52-05:00</time></trkpt>
  115. <trkpt lat="33.91745700" lon="-116.77816000"><time>2016-05-15T06:12:51-05:00</time></trkpt>
  116. <trkpt lat="33.92064500" lon="-116.75326800"><time>2016-05-15T06:24:50-05:00</time></trkpt>
  117. <trkpt lat="33.92370200" lon="-116.73042300"><time>2016-05-15T06:36:48-05:00</time></trkpt>
  118. <trkpt lat="33.92203000" lon="-116.72128000"><time>2016-05-15T06:48:48-05:00</time></trkpt>
  119. <trkpt lat="33.92098000" lon="-116.71437600"><time>2016-05-15T07:00:46-05:00</time></trkpt>
  120. <trkpt lat="33.92413000" lon="-116.69363800"><time>2016-05-15T07:12:46-05:00</time></trkpt>
  121. <trkpt lat="33.92494200" lon="-116.67864600"><time>2016-05-15T07:24:44-05:00</time></trkpt>
  122. <trkpt lat="33.92395100" lon="-116.67603400"><time>2016-05-15T07:36:44-05:00</time></trkpt>
  123. <trkpt lat="33.92523900" lon="-116.67758900"><time>2016-05-15T07:48:41-05:00</time></trkpt>
  124. <trkpt lat="33.92523900" lon="-116.67758900"><time>2016-05-15T08:00:44-05:00</time></trkpt>
  125. <trkpt lat="33.92455400" lon="-116.66816000"><time>2016-05-15T08:12:40-05:00</time></trkpt>
  126. <trkpt lat="33.92388000" lon="-116.65781100"><time>2016-05-15T08:24:40-05:00</time></trkpt>
  127. <trkpt lat="33.92483800" lon="-116.64386400"><time>2016-05-15T08:36:44-05:00</time></trkpt>
  128. <trkpt lat="33.92161500" lon="-116.62966700"><time>2016-05-15T08:48:39-05:00</time></trkpt>
  129. <trkpt lat="33.92119600" lon="-116.62790000"><time>2016-05-15T09:00:36-05:00</time></trkpt>
  130. <trkpt lat="33.93019900" lon="-116.63322400"><time>2016-05-15T09:12:37-05:00</time></trkpt>
  131. <trkpt lat="33.93259500" lon="-116.61409100"><time>2016-05-15T09:24:35-05:00</time></trkpt>
  132. <trkpt lat="33.93997600" lon="-116.59925100"><time>2016-05-15T09:36:36-05:00</time></trkpt>
  133. <trkpt lat="33.94591400" lon="-116.59508900"><time>2016-05-15T09:48:33-05:00</time></trkpt>
  134. <trkpt lat="33.95268000" lon="-116.59326200"><time>2016-05-15T10:00:34-05:00</time></trkpt>
  135. <trkpt lat="33.95906500" lon="-116.59111900"><time>2016-05-15T10:12:31-05:00</time></trkpt>
  136. <trkpt lat="33.97173500" lon="-116.58698400"><time>2016-05-15T10:24:30-05:00</time></trkpt>
  137. <trkpt lat="33.97491900" lon="-116.58594600"><time>2016-05-15T10:36:30-05:00</time></trkpt>
  138. <trkpt lat="33.97491900" lon="-116.58594600"><time>2016-05-15T10:48:29-05:00</time></trkpt>
  139. <trkpt lat="33.97491900" lon="-116.58594600"><time>2016-05-15T11:00:28-05:00</time></trkpt>
  140. <trkpt lat="33.97507100" lon="-116.58610100"><time>2016-05-15T11:12:27-05:00</time></trkpt>
  141. <trkpt lat="33.97494700" lon="-116.58590300"><time>2016-05-15T11:24:27-05:00</time></trkpt>
  142. <trkpt lat="33.97483400" lon="-116.58609600"><time>2016-05-15T11:36:26-05:00</time></trkpt>
  143. <trkpt lat="33.97496500" lon="-116.58593800"><time>2016-05-15T11:48:26-05:00</time></trkpt>
  144. <trkpt lat="33.97496500" lon="-116.58593800"><time>2016-05-15T12:00:24-05:00</time></trkpt>
  145. <trkpt lat="33.98767300" lon="-116.58180500"><time>2016-05-15T12:12:23-05:00</time></trkpt>
  146. <trkpt lat="34.00393100" lon="-116.57665900"><time>2016-05-15T12:24:23-05:00</time></trkpt>
  147. <trkpt lat="34.01559600" lon="-116.58008900"><time>2016-05-15T12:36:23-05:00</time></trkpt>
  148. <trkpt lat="34.02395400" lon="-116.58513700"><time>2016-05-15T12:48:21-05:00</time></trkpt>
  149. <trkpt lat="34.03205100" lon="-116.59116100"><time>2016-05-15T13:00:20-05:00</time></trkpt>
  150. <trkpt lat="34.03924200" lon="-116.58785600"><time>2016-05-15T13:12:20-05:00</time></trkpt>
  151. <trkpt lat="34.04531300" lon="-116.58220000"><time>2016-05-15T13:24:18-05:00</time></trkpt>
  152. <trkpt lat="34.04618100" lon="-116.58136300"><time>2016-05-15T13:36:16-05:00</time></trkpt>
  153. <trkpt lat="34.05677900" lon="-116.56954900"><time>2016-05-15T13:48:16-05:00</time></trkpt>
  154. <trkpt lat="34.06168500" lon="-116.56253700"><time>2016-05-15T14:00:15-05:00</time></trkpt>
  155. <trkpt lat="34.06168500" lon="-116.56253700"><time>2016-05-15T14:11:51-05:00</time></trkpt>
  156. <trkpt lat="34.06157100" lon="-116.56281800"><time>2016-05-15T14:32:01-05:00</time></trkpt>
  157. <trkpt lat="34.06163900" lon="-116.56259900"><time>2016-05-15T14:42:09-05:00</time></trkpt>
  158. <trkpt lat="34.07080800" lon="-116.54923600"><time>2016-05-15T14:54:09-05:00</time></trkpt>
  159. <trkpt lat="34.07737300" lon="-116.53982700"><time>2016-05-15T15:06:14-05:00</time></trkpt>
  160. <trkpt lat="34.08352100" lon="-116.52977500"><time>2016-05-15T15:18:06-05:00</time></trkpt>
  161. <trkpt lat="34.08798600" lon="-116.52203700"><time>2016-05-15T15:30:05-05:00</time></trkpt>
  162. <trkpt lat="34.09206000" lon="-116.51478000"><time>2016-05-15T15:42:05-05:00</time></trkpt>
  163. <trkpt lat="34.09839700" lon="-116.50265900"><time>2016-05-15T15:54:03-05:00</time></trkpt>
  164. <trkpt lat="34.10351800" lon="-116.49275300"><time>2016-05-15T16:06:04-05:00</time></trkpt>
  165. <trkpt lat="34.10333000" lon="-116.49289200"><time>2016-05-15T16:18:02-05:00</time></trkpt>
  166. <trkpt lat="34.10336400" lon="-116.49284600"><time>2016-05-15T16:30:01-05:00</time></trkpt>
  167. <trkpt lat="34.10818700" lon="-116.48296500"><time>2016-05-15T16:42:01-05:00</time></trkpt>
  168. <trkpt lat="34.11319000" lon="-116.46988100"><time>2016-05-15T16:54:02-05:00</time></trkpt>
  169. <trkpt lat="34.11484100" lon="-116.46356900"><time>2016-05-15T17:05:59-05:00</time></trkpt>
  170. <trkpt lat="34.11690500" lon="-116.45533700"><time>2016-05-15T17:17:57-05:00</time></trkpt>
  171. <trkpt lat="34.12057600" lon="-116.43520000"><time>2016-05-15T17:29:58-05:00</time></trkpt>
  172. <trkpt lat="34.12387800" lon="-116.41253100"><time>2016-05-15T17:41:56-05:00</time></trkpt>
  173. <trkpt lat="34.12850800" lon="-116.39531000"><time>2016-05-15T17:53:59-05:00</time></trkpt>
  174. <trkpt lat="34.12872600" lon="-116.39457300"><time>2016-05-15T18:05:55-05:00</time></trkpt>
  175. <trkpt lat="34.12852100" lon="-116.39475300"><time>2016-05-15T18:18:01-05:00</time></trkpt>
  176. <trkpt lat="34.13384200" lon="-116.38560800"><time>2016-05-15T18:30:06-05:00</time></trkpt>
  177. <trkpt lat="34.13330800" lon="-116.38354000"><time>2016-05-15T18:41:52-05:00</time></trkpt>
  178. <trkpt lat="34.13489600" lon="-116.37327100"><time>2016-05-15T18:53:53-05:00</time></trkpt>
  179. <trkpt lat="34.13489800" lon="-116.35067900"><time>2016-05-15T19:05:48-05:00</time></trkpt>
  180. <trkpt lat="34.13477900" lon="-116.35075400"><time>2016-05-15T19:17:51-05:00</time></trkpt>
  181. <trkpt lat="34.13477900" lon="-116.35075400"><time>2016-05-15T19:29:56-05:00</time></trkpt>
  182. <trkpt lat="34.13477900" lon="-116.35075400"><time>2016-05-15T19:41:50-05:00</time></trkpt>
  183. <trkpt lat="34.13482200" lon="-116.33727200"><time>2016-05-15T19:53:43-05:00</time></trkpt>
  184. <trkpt lat="34.13491700" lon="-116.31733800"><time>2016-05-15T20:06:29-05:00</time></trkpt>
  185. <trkpt lat="34.13494300" lon="-116.29714900"><time>2016-05-15T20:18:14-05:00</time></trkpt>
  186. <trkpt lat="34.13500300" lon="-116.28173300"><time>2016-05-15T20:30:11-05:00</time></trkpt>
  187. <trkpt lat="34.13508900" lon="-116.26700600"><time>2016-05-15T20:42:11-05:00</time></trkpt>
  188. <trkpt lat="34.13527500" lon="-116.26724500"><time>2016-05-15T20:54:12-05:00</time></trkpt>
  189. <trkpt lat="34.13498300" lon="-116.24691000"><time>2016-05-15T21:06:15-05:00</time></trkpt>
  190. <trkpt lat="34.13501100" lon="-116.22947700"><time>2016-05-15T21:18:11-05:00</time></trkpt>
  191. <trkpt lat="34.13500800" lon="-116.21389500"><time>2016-05-15T21:30:09-05:00</time></trkpt>
  192. <trkpt lat="34.13501000" lon="-116.20838800"><time>2016-05-15T21:42:09-05:00</time></trkpt>
  193. <trkpt lat="34.13509100" lon="-116.20859700"><time>2016-05-15T21:54:04-05:00</time></trkpt>
  194. <trkpt lat="34.13502900" lon="-116.20618400"><time>2016-05-15T22:06:03-05:00</time></trkpt>
  195. <trkpt lat="34.13503600" lon="-116.19140100"><time>2016-05-15T22:18:02-05:00</time></trkpt>
  196. <trkpt lat="34.13504600" lon="-116.18159300"><time>2016-05-15T22:30:01-05:00</time></trkpt>
  197. <trkpt lat="34.13524300" lon="-116.18093200"><time>2016-05-15T22:42:00-05:00</time></trkpt>
  198. <trkpt lat="34.13524300" lon="-116.18093200"><time>2016-05-15T22:53:58-05:00</time></trkpt>
  199. <trkpt lat="34.13524300" lon="-116.18093200"><time>2016-05-15T23:04:44-05:00</time></trkpt>
  200. <trkpt lat="34.13524300" lon="-116.18093200"><time>2016-05-16T02:18:27-05:00</time></trkpt>
  201. <trkpt lat="34.13524300" lon="-116.18093200"><time>2016-05-16T02:29:24-05:00</time></trkpt>
  202. <trkpt lat="34.13524300" lon="-116.18093200"><time>2016-05-16T02:41:26-05:00</time></trkpt>
  203. <trkpt lat="34.13524300" lon="-116.18093200"><time>2016-05-16T02:53:24-05:00</time></trkpt>
  204. <trkpt lat="34.13506200" lon="-116.18015400"><time>2016-05-16T03:05:24-05:00</time></trkpt>
  205. <trkpt lat="34.13501000" lon="-116.16809000"><time>2016-05-16T03:17:27-05:00</time></trkpt>
  206. <trkpt lat="34.13501800" lon="-116.15000600"><time>2016-05-16T03:29:26-05:00</time></trkpt>
  207. <trkpt lat="34.13501200" lon="-116.12838400"><time>2016-05-16T03:41:23-05:00</time></trkpt>
  208. <trkpt lat="34.13506700" lon="-116.11773800"><time>2016-05-16T03:53:21-05:00</time></trkpt>
  209. <trkpt lat="34.13529000" lon="-116.10184000"><time>2016-05-16T04:05:20-05:00</time></trkpt>
  210. <trkpt lat="34.13531500" lon="-116.09790300"><time>2016-05-16T04:17:23-05:00</time></trkpt>
  211. <trkpt lat="34.13531500" lon="-116.09790300"><time>2016-05-16T04:29:20-05:00</time></trkpt>
  212. <trkpt lat="34.13554000" lon="-116.09774200"><time>2016-05-16T04:41:17-05:00</time></trkpt>
  213. <trkpt lat="34.13534300" lon="-116.09776100"><time>2016-05-16T04:53:18-05:00</time></trkpt>
  214. <trkpt lat="34.13519900" lon="-116.09796300"><time>2016-05-16T05:05:15-05:00</time></trkpt>
  215. <trkpt lat="34.13529600" lon="-116.09784200"><time>2016-05-16T05:17:15-05:00</time></trkpt>
  216. <trkpt lat="34.13532400" lon="-116.09772400"><time>2016-05-16T05:29:16-05:00</time></trkpt>
  217. <trkpt lat="34.13534200" lon="-116.09787000"><time>2016-05-16T05:41:23-05:00</time></trkpt>
  218. <trkpt lat="34.13534200" lon="-116.09787000"><time>2016-05-16T05:53:23-05:00</time></trkpt>
  219. <trkpt lat="34.13533800" lon="-116.09557100"><time>2016-05-16T06:05:23-05:00</time></trkpt>
  220. <trkpt lat="34.13541500" lon="-116.08504500"><time>2016-05-16T06:16:02-05:00</time></trkpt>
  221. <trkpt lat="34.13534900" lon="-116.07182000"><time>2016-05-16T06:28:01-05:00</time></trkpt>
  222. <trkpt lat="34.13540700" lon="-116.06516300"><time>2016-05-16T06:40:03-05:00</time></trkpt>
  223. <trkpt lat="34.13578600" lon="-116.05964100"><time>2016-05-16T06:51:57-05:00</time></trkpt>
  224. <trkpt lat="34.13742500" lon="-116.05430600"><time>2016-05-16T07:03:57-05:00</time></trkpt>
  225. <trkpt lat="34.16478400" lon="-116.04827300"><time>2016-05-16T07:15:55-05:00</time></trkpt>
  226. <trkpt lat="34.16497900" lon="-116.03219400"><time>2016-05-16T07:27:55-05:00</time></trkpt>
  227. <trkpt lat="34.16505500" lon="-116.01659700"><time>2016-05-16T07:39:53-05:00</time></trkpt>
  228. <trkpt lat="34.16526600" lon="-115.99899500"><time>2016-05-16T07:51:53-05:00</time></trkpt>
  229. <trkpt lat="34.16531300" lon="-115.99076700"><time>2016-05-16T08:03:51-05:00</time></trkpt>
  230. <trkpt lat="34.16531300" lon="-115.99076700"><time>2016-05-16T08:20:31-05:00</time></trkpt>
  231. <trkpt lat="34.16531300" lon="-115.99076700"><time>2016-05-16T09:46:11-05:00</time></trkpt>
  232. <trkpt lat="34.16531300" lon="-115.99076700"><time>2016-05-16T09:57:35-05:00</time></trkpt>
  233. <trkpt lat="34.16544000" lon="-115.97744300"><time>2016-05-16T10:09:34-05:00</time></trkpt>
  234. <trkpt lat="34.16552100" lon="-115.96220300"><time>2016-05-16T10:21:34-05:00</time></trkpt>
  235. <trkpt lat="34.16561500" lon="-115.95066300"><time>2016-05-16T10:33:35-05:00</time></trkpt>
  236. <trkpt lat="34.16568800" lon="-115.93969300"><time>2016-05-16T10:45:31-05:00</time></trkpt>
  237. <trkpt lat="34.16569200" lon="-115.93324200"><time>2016-05-16T10:57:31-05:00</time></trkpt>
  238. <trkpt lat="34.16569200" lon="-115.93324200"><time>2016-05-16T11:09:29-05:00</time></trkpt>
  239. <trkpt lat="34.16569200" lon="-115.93324200"><time>2016-05-16T11:21:27-05:00</time></trkpt>
  240. <trkpt lat="34.16562400" lon="-115.92643600"><time>2016-05-16T11:33:25-05:00</time></trkpt>
  241. <trkpt lat="34.16554500" lon="-115.90731700"><time>2016-05-16T11:45:26-05:00</time></trkpt>
  242. <trkpt lat="34.16548400" lon="-115.89004300"><time>2016-05-16T11:57:24-05:00</time></trkpt>
  243. <trkpt lat="34.16542000" lon="-115.87853100"><time>2016-05-16T12:09:25-05:00</time></trkpt>
  244. <trkpt lat="34.16542900" lon="-115.86303600"><time>2016-05-16T12:21:22-05:00</time></trkpt>
  245. <trkpt lat="34.16546600" lon="-115.85108900"><time>2016-05-16T12:33:21-05:00</time></trkpt>
  246. <trkpt lat="34.16548700" lon="-115.84053100"><time>2016-05-16T12:45:20-05:00</time></trkpt>
  247. <trkpt lat="34.16543500" lon="-115.83311100"><time>2016-05-16T12:57:20-05:00</time></trkpt>
  248. <trkpt lat="34.16543500" lon="-115.83311100"><time>2016-05-16T13:09:17-05:00</time></trkpt>
  249. <trkpt lat="34.16543500" lon="-115.83311100"><time>2016-05-16T13:21:20-05:00</time></trkpt>
  250. <trkpt lat="34.16543500" lon="-115.83311100"><time>2016-05-16T13:33:18-05:00</time></trkpt>
  251. <trkpt lat="34.16543500" lon="-115.83311100"><time>2016-05-16T13:44:37-05:00</time></trkpt>
  252. <trkpt lat="34.16543500" lon="-115.83311100"><time>2016-05-16T13:57:15-05:00</time></trkpt>
  253. <trkpt lat="34.16443800" lon="-115.83097900"><time>2016-05-16T14:09:14-05:00</time></trkpt>
  254. <trkpt lat="34.16544100" lon="-115.82942200"><time>2016-05-16T14:21:25-05:00</time></trkpt>
  255. <trkpt lat="34.16547000" lon="-115.81464900"><time>2016-05-16T14:33:11-05:00</time></trkpt>
  256. <trkpt lat="34.16544400" lon="-115.79667200"><time>2016-05-16T14:45:12-05:00</time></trkpt>
  257. <trkpt lat="34.16551000" lon="-115.78514100"><time>2016-05-16T14:57:10-05:00</time></trkpt>
  258. <trkpt lat="34.16551000" lon="-115.77415200"><time>2016-05-16T15:09:11-05:00</time></trkpt>
  259. <trkpt lat="34.16546500" lon="-115.76056400"><time>2016-05-16T15:21:08-05:00</time></trkpt>
  260. <trkpt lat="34.16540100" lon="-115.75532700"><time>2016-05-16T15:33:08-05:00</time></trkpt>
  261. <trkpt lat="34.16536600" lon="-115.75560100"><time>2016-05-16T15:45:05-05:00</time></trkpt>
  262. <trkpt lat="34.16543700" lon="-115.74689600"><time>2016-05-16T15:57:07-05:00</time></trkpt>
  263. <trkpt lat="34.17692300" lon="-115.73236700"><time>2016-05-16T16:09:07-05:00</time></trkpt>
  264. <trkpt lat="34.18585200" lon="-115.72728700"><time>2016-05-16T16:21:02-05:00</time></trkpt>
  265. <trkpt lat="34.19499400" lon="-115.72296000"><time>2016-05-16T16:33:01-05:00</time></trkpt>
  266. <trkpt lat="34.20195400" lon="-115.72041600"><time>2016-05-16T16:45:00-05:00</time></trkpt>
  267. <trkpt lat="34.21181300" lon="-115.71993800"><time>2016-05-16T16:56:59-05:00</time></trkpt>
  268. <trkpt lat="34.22003700" lon="-115.72021100"><time>2016-05-16T17:08:58-05:00</time></trkpt>
  269. <trkpt lat="34.22924300" lon="-115.72077700"><time>2016-05-16T17:20:59-05:00</time></trkpt>
  270. <trkpt lat="34.23826400" lon="-115.72266600"><time>2016-05-16T17:32:57-05:00</time></trkpt>
  271. <trkpt lat="34.23911300" lon="-115.72265200"><time>2016-05-16T17:44:02-05:00</time></trkpt>
  272. <trkpt lat="34.23911300" lon="-115.72265200"><time>2016-05-16T17:56:00-05:00</time></trkpt>
  273. <trkpt lat="34.23911300" lon="-115.72265200"><time>2016-05-16T18:08:00-05:00</time></trkpt>
  274. <trkpt lat="34.23911300" lon="-115.72265200"><time>2016-05-16T18:19:58-05:00</time></trkpt>
  275. <trkpt lat="34.23911300" lon="-115.72265200"><time>2016-05-16T18:31:58-05:00</time></trkpt>
  276. <trkpt lat="34.23911300" lon="-115.72265200"><time>2016-05-16T18:43:55-05:00</time></trkpt>
  277. <trkpt lat="34.23911300" lon="-115.72265200"><time>2016-05-16T18:55:55-05:00</time></trkpt>
  278. <trkpt lat="34.23911300" lon="-115.72265200"><time>2016-05-16T19:07:57-05:00</time></trkpt>
  279. <trkpt lat="34.23911300" lon="-115.72265200"><time>2016-05-16T19:19:55-05:00</time></trkpt>
  280. <trkpt lat="34.23911300" lon="-115.72265200"><time>2016-05-16T19:31:52-05:00</time></trkpt>
  281. <trkpt lat="34.23903500" lon="-115.72263900"><time>2016-05-16T19:43:51-05:00</time></trkpt>
  282. <trkpt lat="34.23903500" lon="-115.72263900"><time>2016-05-16T20:21:46-05:00</time></trkpt>
  283. <trkpt lat="34.23903500" lon="-115.72263900"><time>2016-05-16T21:31:47-05:00</time></trkpt>
  284. <trkpt lat="34.23903500" lon="-115.72263900"><time>2016-05-16T21:42:28-05:00</time></trkpt>
  285. <trkpt lat="34.23921300" lon="-115.72281800"><time>2016-05-16T22:57:18-05:00</time></trkpt>
  286. <trkpt lat="34.23905200" lon="-115.72263800"><time>2016-05-16T23:08:56-05:00</time></trkpt>
  287. <trkpt lat="34.23908400" lon="-115.72268300"><time>2016-05-16T23:20:59-05:00</time></trkpt>
  288. <trkpt lat="34.23908400" lon="-115.72268300"><time>2016-05-16T23:32:52-05:00</time></trkpt>
  289. <trkpt lat="34.25348300" lon="-115.72144200"><time>2016-05-16T23:44:51-05:00</time></trkpt>
  290. <trkpt lat="34.27555300" lon="-115.71377300"><time>2016-05-16T23:56:52-05:00</time></trkpt>
  291. <trkpt lat="34.29427800" lon="-115.70900400"><time>2016-05-17T00:08:48-05:00</time></trkpt>
  292. <trkpt lat="34.30980900" lon="-115.70236900"><time>2016-05-17T00:20:45-05:00</time></trkpt>
  293. <trkpt lat="34.32065900" lon="-115.69683100"><time>2016-05-17T00:32:53-05:00</time></trkpt>
  294. <trkpt lat="34.33660500" lon="-115.69188700"><time>2016-05-17T00:44:45-05:00</time></trkpt>
  295. <trkpt lat="34.35686500" lon="-115.69023900"><time>2016-05-17T00:56:47-05:00</time></trkpt>
  296. <trkpt lat="34.36622100" lon="-115.69136700"><time>2016-05-17T01:08:41-05:00</time></trkpt>
  297. <trkpt lat="34.37809000" lon="-115.69276900"><time>2016-05-17T01:20:40-05:00</time></trkpt>
  298. <trkpt lat="34.40238700" lon="-115.70208000"><time>2016-05-17T01:33:10-05:00</time></trkpt>
  299. <trkpt lat="34.41932900" lon="-115.71095400"><time>2016-05-17T01:45:10-05:00</time></trkpt>
  300. <trkpt lat="34.42623300" lon="-115.71477100"><time>2016-05-17T01:57:09-05:00</time></trkpt>
  301. <trkpt lat="34.43828500" lon="-115.72375200"><time>2016-05-17T02:09:26-05:00</time></trkpt>
  302. <trkpt lat="34.44722100" lon="-115.74012000"><time>2016-05-17T02:21:25-05:00</time></trkpt>
  303. <trkpt lat="34.46045400" lon="-115.74205200"><time>2016-05-17T02:33:26-05:00</time></trkpt>
  304. <trkpt lat="34.46930800" lon="-115.74189400"><time>2016-05-17T02:43:36-05:00</time></trkpt>
  305. <trkpt lat="34.48866000" lon="-115.74353600"><time>2016-05-17T02:54:22-05:00</time></trkpt>
  306. <trkpt lat="34.49056900" lon="-115.74353200"><time>2016-05-17T03:17:35-05:00</time></trkpt>
  307. <trkpt lat="34.50973700" lon="-115.74382000"><time>2016-05-17T03:30:20-05:00</time></trkpt>
  308. <trkpt lat="34.51954400" lon="-115.74410500"><time>2016-05-17T03:42:44-05:00</time></trkpt>
  309. <trkpt lat="34.53877400" lon="-115.74416800"><time>2016-05-17T03:54:18-05:00</time></trkpt>
  310. <trkpt lat="34.55249900" lon="-115.74958400"><time>2016-05-17T04:06:18-05:00</time></trkpt>
  311. <trkpt lat="34.55430000" lon="-115.75606300"><time>2016-05-17T04:18:17-05:00</time></trkpt>
  312. <trkpt lat="34.55823300" lon="-115.74622900"><time>2016-05-17T04:30:20-05:00</time></trkpt>
  313. <trkpt lat="34.55851500" lon="-115.73414100"><time>2016-05-17T04:42:14-05:00</time></trkpt>
  314. <trkpt lat="34.55874300" lon="-115.71937700"><time>2016-05-17T04:54:14-05:00</time></trkpt>
  315. <trkpt lat="34.55874300" lon="-115.71937700"><time>2016-05-17T05:06:14-05:00</time></trkpt>
  316. <trkpt lat="34.55874300" lon="-115.71937700"><time>2016-05-17T05:18:10-05:00</time></trkpt>
  317. <trkpt lat="34.55874300" lon="-115.71937700"><time>2016-05-17T05:30:09-05:00</time></trkpt>
  318. <trkpt lat="34.55874300" lon="-115.71937700"><time>2016-05-17T05:42:08-05:00</time></trkpt>
  319. <trkpt lat="34.55874300" lon="-115.71937700"><time>2016-05-17T05:54:08-05:00</time></trkpt>
  320. <trkpt lat="34.55865200" lon="-115.71915400"><time>2016-05-17T06:04:29-05:00</time></trkpt>
  321. <trkpt lat="34.55869700" lon="-115.71934000"><time>2016-05-17T06:27:35-05:00</time></trkpt>
  322. <trkpt lat="34.55871700" lon="-115.71934500"><time>2016-05-17T06:38:19-05:00</time></trkpt>
  323. <trkpt lat="34.55871700" lon="-115.71934500"><time>2016-05-17T07:05:14-05:00</time></trkpt>
  324. <trkpt lat="34.55873000" lon="-115.71936800"><time>2016-05-17T07:17:39-05:00</time></trkpt>
  325. <trkpt lat="34.55873000" lon="-115.71936800"><time>2016-05-17T07:32:35-05:00</time></trkpt>
  326. <trkpt lat="34.55874700" lon="-115.71934800"><time>2016-05-17T07:43:03-05:00</time></trkpt>
  327. <trkpt lat="34.55874700" lon="-115.71934800"><time>2016-05-17T07:57:41-05:00</time></trkpt>
  328. <trkpt lat="34.55891000" lon="-115.71118100"><time>2016-05-17T08:09:39-05:00</time></trkpt>
  329. <trkpt lat="34.55896300" lon="-115.70800300"><time>2016-05-17T08:20:02-05:00</time></trkpt>
  330. <trkpt lat="34.55920500" lon="-115.69705900"><time>2016-05-17T08:32:02-05:00</time></trkpt>
  331. <trkpt lat="34.55936200" lon="-115.68663300"><time>2016-05-17T08:42:06-05:00</time></trkpt>
  332. <trkpt lat="34.55961500" lon="-115.67383700"><time>2016-05-17T08:54:30-05:00</time></trkpt>
  333. <trkpt lat="34.55980600" lon="-115.66117000"><time>2016-05-17T09:06:29-05:00</time></trkpt>
  334. <trkpt lat="34.56010800" lon="-115.64717300"><time>2016-05-17T09:16:53-05:00</time></trkpt>
  335. <trkpt lat="34.56028200" lon="-115.63515900"><time>2016-05-17T09:28:36-05:00</time></trkpt>
  336. <trkpt lat="34.56053200" lon="-115.62420000"><time>2016-05-17T09:40:58-05:00</time></trkpt>
  337. <trkpt lat="34.56053200" lon="-115.62420000"><time>2016-05-17T09:52:57-05:00</time></trkpt>
  338. <trkpt lat="34.56055900" lon="-115.62009800"><time>2016-05-17T10:04:59-05:00</time></trkpt>
  339. <trkpt lat="34.56085200" lon="-115.60578900"><time>2016-05-17T10:16:56-05:00</time></trkpt>
  340. <trkpt lat="34.56109500" lon="-115.59857200"><time>2016-05-17T10:28:54-05:00</time></trkpt>
  341. <trkpt lat="34.56171400" lon="-115.54941300"><time>2016-05-17T10:40:53-05:00</time></trkpt>
  342. <trkpt lat="34.56165000" lon="-115.56476300"><time>2016-05-17T10:52:57-05:00</time></trkpt>
  343. <trkpt lat="34.56150600" lon="-115.56656300"><time>2016-05-17T11:03:26-05:00</time></trkpt>
  344. <trkpt lat="34.56172500" lon="-115.55699100"><time>2016-05-17T11:15:13-05:00</time></trkpt>
  345. <trkpt lat="34.56182400" lon="-115.54894000"><time>2016-05-17T11:27:10-05:00</time></trkpt>
  346. <trkpt lat="34.56192000" lon="-115.54214400"><time>2016-05-17T11:39:58-05:00</time></trkpt>
  347. <trkpt lat="34.56222200" lon="-115.52614100"><time>2016-05-17T11:51:55-05:00</time></trkpt>
  348. <trkpt lat="34.56258200" lon="-115.50206600"><time>2016-05-17T12:03:54-05:00</time></trkpt>
  349. <trkpt lat="34.56469500" lon="-115.49470800"><time>2016-05-17T12:15:54-05:00</time></trkpt>
  350. <trkpt lat="34.56948400" lon="-115.48554600"><time>2016-05-17T12:27:52-05:00</time></trkpt>
  351. <trkpt lat="34.56948400" lon="-115.48554600"><time>2016-05-17T12:39:55-05:00</time></trkpt>
  352. <trkpt lat="34.56948400" lon="-115.48554600"><time>2016-05-17T12:51:51-05:00</time></trkpt>
  353. <trkpt lat="34.57358000" lon="-115.47657400"><time>2016-05-17T13:03:50-05:00</time></trkpt>
  354. <trkpt lat="34.58006100" lon="-115.46707800"><time>2016-05-17T13:15:49-05:00</time></trkpt>
  355. <trkpt lat="34.58386300" lon="-115.46178200"><time>2016-05-17T13:27:47-05:00</time></trkpt>
  356. <trkpt lat="34.58401400" lon="-115.46153800"><time>2016-05-17T13:39:47-05:00</time></trkpt>
  357. <trkpt lat="34.58986200" lon="-115.45340000"><time>2016-05-17T13:51:46-05:00</time></trkpt>
  358. <trkpt lat="34.59297900" lon="-115.44902600"><time>2016-05-17T14:02:41-05:00</time></trkpt>
  359. <trkpt lat="34.59894300" lon="-115.44060700"><time>2016-05-17T14:12:45-05:00</time></trkpt>
  360. <trkpt lat="34.60111500" lon="-115.43750300"><time>2016-05-17T14:24:45-05:00</time></trkpt>
  361. <trkpt lat="34.60114900" lon="-115.43749500"><time>2016-05-17T14:36:44-05:00</time></trkpt>
  362. <trkpt lat="34.60114900" lon="-115.43749500"><time>2016-05-17T14:47:26-05:00</time></trkpt>
  363. <trkpt lat="34.60114900" lon="-115.43749500"><time>2016-05-17T15:01:05-05:00</time></trkpt>
  364. <trkpt lat="34.60114900" lon="-115.43749500"><time>2016-05-17T15:12:38-05:00</time></trkpt>
  365. <trkpt lat="34.60114900" lon="-115.43749500"><time>2016-05-17T15:24:37-05:00</time></trkpt>
  366. <trkpt lat="34.60202700" lon="-115.43634800"><time>2016-05-17T15:36:37-05:00</time></trkpt>
  367. <trkpt lat="34.60909700" lon="-115.42635800"><time>2016-05-17T15:48:36-05:00</time></trkpt>
  368. <trkpt lat="34.62171900" lon="-115.40853500"><time>2016-05-17T16:00:35-05:00</time></trkpt>
  369. <trkpt lat="34.62830400" lon="-115.39928300"><time>2016-05-17T16:12:33-05:00</time></trkpt>
  370. <trkpt lat="34.63505900" lon="-115.38991900"><time>2016-05-17T16:24:31-05:00</time></trkpt>
  371. <trkpt lat="34.64425700" lon="-115.37698100"><time>2016-05-17T16:36:32-05:00</time></trkpt>
  372. <trkpt lat="34.64575500" lon="-115.37472600"><time>2016-05-17T16:48:30-05:00</time></trkpt>
  373. <trkpt lat="34.64888900" lon="-115.37047800"><time>2016-05-17T17:00:29-05:00</time></trkpt>
  374. <trkpt lat="34.65460100" lon="-115.36211200"><time>2016-05-17T17:12:27-05:00</time></trkpt>
  375. <trkpt lat="34.66195700" lon="-115.35286100"><time>2016-05-17T17:24:27-05:00</time></trkpt>
  376. <trkpt lat="34.66737200" lon="-115.34442600"><time>2016-05-17T17:36:26-05:00</time></trkpt>
  377. <trkpt lat="34.66525700" lon="-115.33605600"><time>2016-05-17T17:48:24-05:00</time></trkpt>
  378. <trkpt lat="34.65709400" lon="-115.33027900"><time>2016-05-17T18:00:23-05:00</time></trkpt>
  379. <trkpt lat="34.66583500" lon="-115.32823200"><time>2016-05-17T18:12:22-05:00</time></trkpt>
  380. <trkpt lat="34.67396500" lon="-115.33359100"><time>2016-05-17T18:24:22-05:00</time></trkpt>
  381. <trkpt lat="34.67434900" lon="-115.33462800"><time>2016-05-17T18:36:20-05:00</time></trkpt>
  382. <trkpt lat="34.67432600" lon="-115.33461600"><time>2016-05-17T23:24:58-05:00</time></trkpt>
  383. <trkpt lat="34.67432600" lon="-115.33461600"><time>2016-05-17T23:36:06-05:00</time></trkpt>
  384. <trkpt lat="34.69060100" lon="-115.31183300"><time>2016-05-17T23:48:05-05:00</time></trkpt>
  385. <trkpt lat="34.70754900" lon="-115.28792900"><time>2016-05-18T00:00:03-05:00</time></trkpt>
  386. <trkpt lat="34.72392700" lon="-115.26476900"><time>2016-05-18T00:12:02-05:00</time></trkpt>
  387. <trkpt lat="34.73241300" lon="-115.24860100"><time>2016-05-18T00:24:00-05:00</time></trkpt>
  388. <trkpt lat="34.75224400" lon="-115.22563400"><time>2016-05-18T00:35:59-05:00</time></trkpt>
  389. <trkpt lat="34.77475200" lon="-115.21054400"><time>2016-05-18T00:47:58-05:00</time></trkpt>
  390. <trkpt lat="34.80023900" lon="-115.19565100"><time>2016-05-18T00:59:57-05:00</time></trkpt>
  391. <trkpt lat="34.81058100" lon="-115.19052900"><time>2016-05-18T01:11:56-05:00</time></trkpt>
  392. <trkpt lat="34.81763300" lon="-115.18420400"><time>2016-05-18T01:23:54-05:00</time></trkpt>
  393. <trkpt lat="34.81688800" lon="-115.18274300"><time>2016-05-18T01:35:02-05:00</time></trkpt>
  394. <trkpt lat="34.81731600" lon="-115.18267700"><time>2016-05-18T01:47:39-05:00</time></trkpt>
  395. <trkpt lat="34.82147000" lon="-115.17386600"><time>2016-05-18T01:59:51-05:00</time></trkpt>
  396. <trkpt lat="34.82147000" lon="-115.17386600"><time>2016-05-18T02:11:50-05:00</time></trkpt>
  397. <trkpt lat="34.82177000" lon="-115.17350700"><time>2016-05-18T02:23:06-05:00</time></trkpt>
  398. <trkpt lat="34.84246200" lon="-115.14416300"><time>2016-05-18T02:35:48-05:00</time></trkpt>
  399. <trkpt lat="34.85194600" lon="-115.13095800"><time>2016-05-18T02:47:47-05:00</time></trkpt>
  400. <trkpt lat="34.87643400" lon="-115.10810800"><time>2016-05-18T02:59:45-05:00</time></trkpt>
  401. <trkpt lat="34.88555900" lon="-115.09996100"><time>2016-05-18T03:11:45-05:00</time></trkpt>
  402. <trkpt lat="34.88657500" lon="-115.09935800"><time>2016-05-18T03:22:50-05:00</time></trkpt>
  403. <trkpt lat="34.91429700" lon="-115.07601700"><time>2016-05-18T03:35:42-05:00</time></trkpt>
  404. <trkpt lat="34.91611100" lon="-115.04149400"><time>2016-05-18T03:47:42-05:00</time></trkpt>
  405. <trkpt lat="34.91500500" lon="-115.00608000"><time>2016-05-18T03:59:41-05:00</time></trkpt>
  406. <trkpt lat="34.91430500" lon="-114.97845900"><time>2016-05-18T04:11:41-05:00</time></trkpt>
  407. <trkpt lat="34.91430500" lon="-114.97845900"><time>2016-05-18T04:23:38-05:00</time></trkpt>
  408. <trkpt lat="34.91430500" lon="-114.97845900"><time>2016-05-18T04:35:36-05:00</time></trkpt>
  409. <trkpt lat="34.91460300" lon="-114.97524200"><time>2016-05-18T07:46:20-05:00</time></trkpt>
  410. <trkpt lat="34.91838200" lon="-114.93631100"><time>2016-05-18T07:59:04-05:00</time></trkpt>
  411. <trkpt lat="34.91959500" lon="-114.93265300"><time>2016-05-18T08:11:08-05:00</time></trkpt>
  412. <trkpt lat="34.92445400" lon="-114.91413400"><time>2016-05-18T08:23:01-05:00</time></trkpt>
  413. <trkpt lat="34.92991500" lon="-114.90052000"><time>2016-05-18T08:35:00-05:00</time></trkpt>
  414. <trkpt lat="34.93330200" lon="-114.88752400"><time>2016-05-18T08:46:59-05:00</time></trkpt>
  415. <trkpt lat="34.93538500" lon="-114.88058800"><time>2016-05-18T08:58:59-05:00</time></trkpt>
  416. <trkpt lat="34.93930900" lon="-114.87441500"><time>2016-05-18T09:10:57-05:00</time></trkpt>
  417. <trkpt lat="34.93930900" lon="-114.87441500"><time>2016-05-18T09:22:56-05:00</time></trkpt>
  418. <trkpt lat="34.93930900" lon="-114.87441500"><time>2016-05-18T09:33:48-05:00</time></trkpt>
  419. <trkpt lat="34.93930900" lon="-114.87441500"><time>2016-05-18T10:03:09-05:00</time></trkpt>
  420. <trkpt lat="34.93902400" lon="-114.87373000"><time>2016-05-18T11:23:12-05:00</time></trkpt>
  421. <trkpt lat="34.93892900" lon="-114.87336000"><time>2016-05-18T11:33:26-05:00</time></trkpt>
  422. <trkpt lat="34.93889500" lon="-114.87305500"><time>2016-05-18T11:45:25-05:00</time></trkpt>
  423. <trkpt lat="34.93829000" lon="-114.87387200"><time>2016-05-18T11:57:24-05:00</time></trkpt>
  424. <trkpt lat="34.93776000" lon="-114.87375400"><time>2016-05-18T12:18:56-05:00</time></trkpt>
  425. <trkpt lat="34.93758800" lon="-114.86346200"><time>2016-05-18T12:30:19-05:00</time></trkpt>
  426. <trkpt lat="34.94635000" lon="-114.82547000"><time>2016-05-18T12:42:18-05:00</time></trkpt>
  427. <trkpt lat="35.09131700" lon="-114.82872200"><time>2016-05-18T12:54:17-05:00</time></trkpt>
  428. <trkpt lat="35.17041900" lon="-114.77700500"><time>2016-05-18T13:06:17-05:00</time></trkpt>
  429. <trkpt lat="35.18668900" lon="-114.62266100"><time>2016-05-18T13:18:15-05:00</time></trkpt>
  430. <trkpt lat="35.18211000" lon="-114.56439600"><time>2016-05-18T13:30:15-05:00</time></trkpt>
  431. <trkpt lat="35.15754400" lon="-114.57413400"><time>2016-05-18T13:42:14-05:00</time></trkpt>
  432. <trkpt lat="35.16605700" lon="-114.57369800"><time>2016-05-18T13:54:13-05:00</time></trkpt>
  433. <trkpt lat="35.16182500" lon="-114.57693100"><time>2016-05-18T14:05:06-05:00</time></trkpt>
  434. <trkpt lat="35.16237800" lon="-114.57693000"><time>2016-05-18T14:21:09-05:00</time></trkpt>
  435. <trkpt lat="35.16612100" lon="-114.57364500"><time>2016-05-18T14:33:10-05:00</time></trkpt>
  436. <trkpt lat="35.16612100" lon="-114.57364500"><time>2016-05-18T14:45:10-05:00</time></trkpt>
  437. <trkpt lat="35.16612100" lon="-114.57364500"><time>2016-05-18T14:57:07-05:00</time></trkpt>
  438. <trkpt lat="35.16612100" lon="-114.57364500"><time>2016-05-18T15:09:06-05:00</time></trkpt>
  439. <trkpt lat="35.16612100" lon="-114.57364500"><time>2016-05-18T15:20:40-05:00</time></trkpt>
  440. <trkpt lat="35.16638200" lon="-114.57355400"><time>2016-05-18T15:33:05-05:00</time></trkpt>
  441. <trkpt lat="35.16727600" lon="-114.57261700"><time>2016-05-18T23:49:21-05:00</time></trkpt>
  442. <trkpt lat="35.17280300" lon="-114.56569000"><time>2016-05-19T00:00:17-05:00</time></trkpt>
  443. <trkpt lat="35.17889500" lon="-114.56463500"><time>2016-05-19T00:12:16-05:00</time></trkpt>
  444. <trkpt lat="35.18378500" lon="-114.56285400"><time>2016-05-19T00:24:16-05:00</time></trkpt>
  445. <trkpt lat="35.18958100" lon="-114.53869700"><time>2016-05-19T00:36:15-05:00</time></trkpt>
  446. <trkpt lat="35.18699000" lon="-114.50456100"><time>2016-05-19T00:48:14-05:00</time></trkpt>
  447. <trkpt lat="35.18530900" lon="-114.47747600"><time>2016-05-19T01:00:14-05:00</time></trkpt>
  448. <trkpt lat="35.18530900" lon="-114.47747600"><time>2016-05-19T01:12:11-05:00</time></trkpt>
  449. <trkpt lat="35.18548200" lon="-114.48803100"><time>2016-05-19T01:24:12-05:00</time></trkpt>
  450. <trkpt lat="35.18517800" lon="-114.48742600"><time>2016-05-19T01:36:11-05:00</time></trkpt>
  451. <trkpt lat="35.18511900" lon="-114.46129100"><time>2016-05-19T01:48:14-05:00</time></trkpt>
  452. <trkpt lat="35.18972000" lon="-114.44638500"><time>2016-05-19T02:00:30-05:00</time></trkpt>
  453. <trkpt lat="35.19762900" lon="-114.42810000"><time>2016-05-19T02:12:10-05:00</time></trkpt>
  454. <trkpt lat="35.19831000" lon="-114.41887700"><time>2016-05-19T02:24:11-05:00</time></trkpt>
  455. <trkpt lat="35.20317800" lon="-114.40302100"><time>2016-05-19T02:37:08-05:00</time></trkpt>
  456. <trkpt lat="35.21554800" lon="-114.39569400"><time>2016-05-19T02:48:07-05:00</time></trkpt>
  457. <trkpt lat="35.21938100" lon="-114.39022200"><time>2016-05-19T03:00:07-05:00</time></trkpt>
  458. <trkpt lat="35.22169000" lon="-114.38740400"><time>2016-05-19T03:12:03-05:00</time></trkpt>
  459. <trkpt lat="35.22862500" lon="-114.35693700"><time>2016-05-19T03:24:02-05:00</time></trkpt>
  460. <trkpt lat="35.22762300" lon="-114.33476200"><time>2016-05-19T03:35:59-05:00</time></trkpt>
  461. <trkpt lat="35.22646900" lon="-114.31095500"><time>2016-05-19T03:48:00-05:00</time></trkpt>
  462. <trkpt lat="35.22646900" lon="-114.31095500"><time>2016-05-19T03:58:25-05:00</time></trkpt>
  463. <trkpt lat="35.22646900" lon="-114.31095500"><time>2016-05-19T04:08:57-05:00</time></trkpt>
  464. <trkpt lat="35.22499700" lon="-114.28111600"><time>2016-05-19T04:20:59-05:00</time></trkpt>
  465. <trkpt lat="35.22336300" lon="-114.25083500"><time>2016-05-19T04:32:57-05:00</time></trkpt>
  466. <trkpt lat="35.22168900" lon="-114.21329300"><time>2016-05-19T04:44:56-05:00</time></trkpt>
  467. <trkpt lat="35.22111400" lon="-114.20024900"><time>2016-05-19T04:56:54-05:00</time></trkpt>
  468. <trkpt lat="35.21938800" lon="-114.16424800"><time>2016-05-19T05:08:58-05:00</time></trkpt>
  469. <trkpt lat="35.21868700" lon="-114.15128200"><time>2016-05-19T05:21:07-05:00</time></trkpt>
  470. <trkpt lat="35.21876300" lon="-114.15150200"><time>2016-05-19T07:36:57-05:00</time></trkpt>
  471. <trkpt lat="35.21877700" lon="-114.13770900"><time>2016-05-19T07:47:27-05:00</time></trkpt>
  472. <trkpt lat="35.21411400" lon="-114.11447600"><time>2016-05-19T07:59:27-05:00</time></trkpt>
  473. <trkpt lat="35.21281900" lon="-114.11297000"><time>2016-05-19T08:11:27-05:00</time></trkpt>
  474. <trkpt lat="35.20642900" lon="-114.09632600"><time>2016-05-19T08:23:26-05:00</time></trkpt>
  475. <trkpt lat="35.19697200" lon="-114.07622200"><time>2016-05-19T08:35:26-05:00</time></trkpt>
  476. <trkpt lat="35.19122900" lon="-114.06837600"><time>2016-05-19T08:47:23-05:00</time></trkpt>
  477. <trkpt lat="35.19983600" lon="-114.06600400"><time>2016-05-19T08:59:22-05:00</time></trkpt>
  478. <trkpt lat="35.20822900" lon="-114.05890600"><time>2016-05-19T09:11:21-05:00</time></trkpt>
  479. <trkpt lat="35.21400500" lon="-114.04895000"><time>2016-05-19T09:23:21-05:00</time></trkpt>
  480. <trkpt lat="35.21629400" lon="-114.04013000"><time>2016-05-19T09:35:20-05:00</time></trkpt>
  481. <trkpt lat="35.21729000" lon="-114.03166800"><time>2016-05-19T09:47:21-05:00</time></trkpt>
  482. <trkpt lat="35.21688800" lon="-114.01956500"><time>2016-05-19T09:59:21-05:00</time></trkpt>
  483. <trkpt lat="35.21591700" lon="-114.01234000"><time>2016-05-19T10:13:11-05:00</time></trkpt>
  484. <trkpt lat="35.21597700" lon="-114.01254400"><time>2016-05-19T10:23:23-05:00</time></trkpt>
  485. <trkpt lat="35.21597700" lon="-114.01254400"><time>2016-05-19T10:35:16-05:00</time></trkpt>
  486. <trkpt lat="35.21711300" lon="-114.00164800"><time>2016-05-19T10:47:14-05:00</time></trkpt>
  487. <trkpt lat="35.21569600" lon="-113.98918700"><time>2016-05-19T10:59:14-05:00</time></trkpt>
  488. <trkpt lat="35.21288300" lon="-113.97773800"><time>2016-05-19T11:11:13-05:00</time></trkpt>
  489. <trkpt lat="35.21288300" lon="-113.97773800"><time>2016-05-19T11:23:11-05:00</time></trkpt>
  490. <trkpt lat="35.21288300" lon="-113.97773800"><time>2016-05-19T11:34:21-05:00</time></trkpt>
  491. <trkpt lat="35.21288300" lon="-113.97773800"><time>2016-05-19T11:47:10-05:00</time></trkpt>
  492. <trkpt lat="35.21163400" lon="-113.97246000"><time>2016-05-19T11:59:08-05:00</time></trkpt>
  493. <trkpt lat="35.20854800" lon="-113.95979400"><time>2016-05-19T12:11:07-05:00</time></trkpt>
  494. <trkpt lat="35.20534800" lon="-113.94660300"><time>2016-05-19T12:23:06-05:00</time></trkpt>
  495. <trkpt lat="35.20218200" lon="-113.93357100"><time>2016-05-19T12:35:07-05:00</time></trkpt>
  496. <trkpt lat="35.19918400" lon="-113.92125500"><time>2016-05-19T12:47:05-05:00</time></trkpt>
  497. <trkpt lat="35.19831100" lon="-113.91702700"><time>2016-05-19T12:59:06-05:00</time></trkpt>
  498. <trkpt lat="35.19770000" lon="-113.90645600"><time>2016-05-19T13:11:08-05:00</time></trkpt>
  499. <trkpt lat="35.19687400" lon="-113.89107700"><time>2016-05-19T13:23:02-05:00</time></trkpt>
  500. <trkpt lat="35.19625700" lon="-113.88034200"><time>2016-05-19T13:35:00-05:00</time></trkpt>
  501. <trkpt lat="35.19609900" lon="-113.87787900"><time>2016-05-19T13:46:59-05:00</time></trkpt>
  502. <trkpt lat="35.19609900" lon="-113.87787900"><time>2016-05-19T13:58:59-05:00</time></trkpt>
  503. <trkpt lat="35.19588800" lon="-113.87276800"><time>2016-05-19T14:10:58-05:00</time></trkpt>
  504. <trkpt lat="35.19528000" lon="-113.86117100"><time>2016-05-19T14:22:57-05:00</time></trkpt>
  505. <trkpt lat="35.19440500" lon="-113.84480100"><time>2016-05-19T14:34:56-05:00</time></trkpt>
  506. <trkpt lat="35.19364600" lon="-113.83305100"><time>2016-05-19T14:46:54-05:00</time></trkpt>
  507. <trkpt lat="35.19026700" lon="-113.82098500"><time>2016-05-19T14:58:53-05:00</time></trkpt>
  508. <trkpt lat="35.18633300" lon="-113.81221700"><time>2016-05-19T15:10:53-05:00</time></trkpt>
  509. <trkpt lat="35.18633300" lon="-113.81221700"><time>2016-05-19T15:22:52-05:00</time></trkpt>
  510. <trkpt lat="35.18633300" lon="-113.81221700"><time>2016-05-19T15:34:50-05:00</time></trkpt>
  511. <trkpt lat="35.18349900" lon="-113.80586600"><time>2016-05-19T15:46:50-05:00</time></trkpt>
  512. <trkpt lat="35.17873100" lon="-113.79518000"><time>2016-05-19T15:58:51-05:00</time></trkpt>
  513. <trkpt lat="35.17409200" lon="-113.78451100"><time>2016-05-19T16:10:50-05:00</time></trkpt>
  514. <trkpt lat="35.17037500" lon="-113.77087600"><time>2016-05-19T16:22:48-05:00</time></trkpt>
  515. <trkpt lat="35.16922900" lon="-113.76322200"><time>2016-05-19T16:34:47-05:00</time></trkpt>
  516. <trkpt lat="35.16741200" lon="-113.75270400"><time>2016-05-19T16:46:52-05:00</time></trkpt>
  517. <trkpt lat="35.16623100" lon="-113.74416500"><time>2016-05-19T16:58:44-05:00</time></trkpt>
  518. <trkpt lat="35.16567600" lon="-113.74064300"><time>2016-05-19T17:10:45-05:00</time></trkpt>
  519. <trkpt lat="35.16559200" lon="-113.74014500"><time>2016-05-19T17:22:42-05:00</time></trkpt>
  520. <trkpt lat="35.16243500" lon="-113.72010400"><time>2016-05-19T17:34:40-05:00</time></trkpt>
  521. <trkpt lat="35.15922300" lon="-113.69948800"><time>2016-05-19T17:46:41-05:00</time></trkpt>
  522. <trkpt lat="35.15929900" lon="-113.69201100"><time>2016-05-19T17:58:39-05:00</time></trkpt>
  523. <trkpt lat="35.15916400" lon="-113.69182400"><time>2016-05-19T18:10:37-05:00</time></trkpt>
  524. <trkpt lat="35.15916400" lon="-113.69182400"><time>2016-05-19T18:22:37-05:00</time></trkpt>
  525. <trkpt lat="35.15916400" lon="-113.69182400"><time>2016-05-19T18:34:37-05:00</time></trkpt>
  526. <trkpt lat="35.15916400" lon="-113.69182400"><time>2016-05-19T18:46:36-05:00</time></trkpt>
  527. <trkpt lat="35.15916400" lon="-113.69182400"><time>2016-05-19T18:58:33-05:00</time></trkpt>
  528. <trkpt lat="35.15916400" lon="-113.69182400"><time>2016-05-20T01:15:26-05:00</time></trkpt>
  529. <trkpt lat="35.15916400" lon="-113.69182400"><time>2016-05-20T01:25:59-05:00</time></trkpt>
  530. <trkpt lat="35.16193800" lon="-113.65875500"><time>2016-05-20T01:38:23-05:00</time></trkpt>
  531. <trkpt lat="35.16002500" lon="-113.63612500"><time>2016-05-20T01:50:23-05:00</time></trkpt>
  532. <trkpt lat="35.16023600" lon="-113.60958600"><time>2016-05-20T02:02:22-05:00</time></trkpt>
  533. <trkpt lat="35.16180800" lon="-113.58865900"><time>2016-05-20T02:14:41-05:00</time></trkpt>
  534. <trkpt lat="35.15869600" lon="-113.56323700"><time>2016-05-20T02:26:18-05:00</time></trkpt>
  535. <trkpt lat="35.15968300" lon="-113.55224200"><time>2016-05-20T02:38:18-05:00</time></trkpt>
  536. <trkpt lat="35.16566400" lon="-113.52897300"><time>2016-05-20T02:50:16-05:00</time></trkpt>
  537. <trkpt lat="35.17068100" lon="-113.52016500"><time>2016-05-20T03:02:16-05:00</time></trkpt>
  538. <trkpt lat="35.17542500" lon="-113.49403600"><time>2016-05-20T03:14:14-05:00</time></trkpt>
  539. <trkpt lat="35.17731000" lon="-113.48640500"><time>2016-05-20T03:26:14-05:00</time></trkpt>
  540. <trkpt lat="35.17678200" lon="-113.48102200"><time>2016-05-20T03:38:13-05:00</time></trkpt>
  541. <trkpt lat="35.17667700" lon="-113.48092000"><time>2016-05-20T03:50:14-05:00</time></trkpt>
  542. <trkpt lat="35.18100700" lon="-113.46285300"><time>2016-05-20T04:10:37-05:00</time></trkpt>
  543. <trkpt lat="35.18256500" lon="-113.45273600"><time>2016-05-20T04:23:42-05:00</time></trkpt>
  544. <trkpt lat="35.18801200" lon="-113.44516900"><time>2016-05-20T04:35:09-05:00</time></trkpt>
  545. <trkpt lat="35.19014800" lon="-113.43490500"><time>2016-05-20T04:47:07-05:00</time></trkpt>
  546. <trkpt lat="35.18592200" lon="-113.40812700"><time>2016-05-20T04:59:06-05:00</time></trkpt>
  547. <trkpt lat="35.18336800" lon="-113.38972900"><time>2016-05-20T05:11:05-05:00</time></trkpt>
  548. <trkpt lat="35.19045600" lon="-113.36866700"><time>2016-05-20T05:23:06-05:00</time></trkpt>
  549. <trkpt lat="35.19079700" lon="-113.33788400"><time>2016-05-20T05:35:07-05:00</time></trkpt>
  550. <trkpt lat="35.18887900" lon="-113.32205100"><time>2016-05-20T05:47:02-05:00</time></trkpt>
  551. <trkpt lat="35.20444800" lon="-113.29853100"><time>2016-05-20T05:59:02-05:00</time></trkpt>
  552. <trkpt lat="35.20848800" lon="-113.26905100"><time>2016-05-20T06:11:00-05:00</time></trkpt>
  553. <trkpt lat="35.21703900" lon="-113.25195500"><time>2016-05-20T06:22:57-05:00</time></trkpt>
  554. <trkpt lat="35.21703900" lon="-113.25195500"><time>2016-05-20T06:40:08-05:00</time></trkpt>
  555. <trkpt lat="35.22682800" lon="-113.23254600"><time>2016-05-20T06:53:29-05:00</time></trkpt>
  556. <trkpt lat="35.23360400" lon="-113.21297000"><time>2016-05-20T07:04:54-05:00</time></trkpt>
  557. <trkpt lat="35.25002300" lon="-113.18200300"><time>2016-05-20T07:20:08-05:00</time></trkpt>
  558. <trkpt lat="35.25552700" lon="-113.17167800"><time>2016-05-20T07:31:56-05:00</time></trkpt>
  559. <trkpt lat="35.27058700" lon="-113.14402300"><time>2016-05-20T07:43:57-05:00</time></trkpt>
  560. <trkpt lat="35.28152300" lon="-113.12626400"><time>2016-05-20T07:55:48-05:00</time></trkpt>
  561. <trkpt lat="35.28588000" lon="-113.09534800"><time>2016-05-20T08:07:49-05:00</time></trkpt>
  562. <trkpt lat="35.28820900" lon="-113.08992000"><time>2016-05-20T08:19:48-05:00</time></trkpt>
  563. <trkpt lat="35.28820900" lon="-113.08992000"><time>2016-05-20T08:49:29-05:00</time></trkpt>
  564. <trkpt lat="35.28824000" lon="-113.08973900"><time>2016-05-20T09:11:06-05:00</time></trkpt>
  565. <trkpt lat="35.28990800" lon="-113.08525000"><time>2016-05-20T09:22:38-05:00</time></trkpt>
  566. <trkpt lat="35.29177300" lon="-113.07024400"><time>2016-05-20T09:34:36-05:00</time></trkpt>
  567. <trkpt lat="35.29199800" lon="-113.04909800"><time>2016-05-20T09:46:36-05:00</time></trkpt>
  568. <trkpt lat="35.29246800" lon="-113.03423900"><time>2016-05-20T09:58:35-05:00</time></trkpt>
  569. <trkpt lat="35.29716800" lon="-113.02560100"><time>2016-05-20T10:10:34-05:00</time></trkpt>
  570. <trkpt lat="35.30219600" lon="-113.00913200"><time>2016-05-20T10:22:33-05:00</time></trkpt>
  571. <trkpt lat="35.30569600" lon="-112.99145500"><time>2016-05-20T10:34:31-05:00</time></trkpt>
  572. <trkpt lat="35.30899400" lon="-112.98211800"><time>2016-05-20T10:46:31-05:00</time></trkpt>
  573. <trkpt lat="35.31263700" lon="-112.97172400"><time>2016-05-20T10:58:29-05:00</time></trkpt>
  574. <trkpt lat="35.31263700" lon="-112.97172400"><time>2016-05-20T11:10:27-05:00</time></trkpt>
  575. <trkpt lat="35.31507400" lon="-112.96480200"><time>2016-05-20T11:22:27-05:00</time></trkpt>
  576. <trkpt lat="35.32075700" lon="-112.94203800"><time>2016-05-20T11:34:26-05:00</time></trkpt>
  577. <trkpt lat="35.32237400" lon="-112.92604700"><time>2016-05-20T11:46:26-05:00</time></trkpt>
  578. <trkpt lat="35.32238400" lon="-112.91465900"><time>2016-05-20T11:58:25-05:00</time></trkpt>
  579. <trkpt lat="35.32133000" lon="-112.90148500"><time>2016-05-20T12:10:25-05:00</time></trkpt>
  580. <trkpt lat="35.32011300" lon="-112.89448700"><time>2016-05-20T14:09:15-05:00</time></trkpt>
  581. <trkpt lat="35.31895400" lon="-112.88768500"><time>2016-05-20T14:20:14-05:00</time></trkpt>
  582. <trkpt lat="35.31680000" lon="-112.87605800"><time>2016-05-20T14:32:14-05:00</time></trkpt>
  583. <trkpt lat="35.31230100" lon="-112.85977400"><time>2016-05-20T14:44:12-05:00</time></trkpt>
  584. <trkpt lat="35.30861300" lon="-112.85323900"><time>2016-05-20T14:56:13-05:00</time></trkpt>
  585. <trkpt lat="35.30315200" lon="-112.84368700"><time>2016-05-20T15:08:12-05:00</time></trkpt>
  586. <trkpt lat="35.29670800" lon="-112.83228200"><time>2016-05-20T15:20:12-05:00</time></trkpt>
  587. <trkpt lat="35.29155700" lon="-112.82217900"><time>2016-05-20T15:32:18-05:00</time></trkpt>
  588. <trkpt lat="35.28793500" lon="-112.81202200"><time>2016-05-20T15:44:15-05:00</time></trkpt>
  589. <trkpt lat="35.28500100" lon="-112.80202400"><time>2016-05-20T15:56:09-05:00</time></trkpt>
  590. <trkpt lat="35.28431300" lon="-112.79946800"><time>2016-05-20T16:08:09-05:00</time></trkpt>
  591. <trkpt lat="35.27988900" lon="-112.78383000"><time>2016-05-20T16:20:07-05:00</time></trkpt>
  592. <trkpt lat="35.27686200" lon="-112.77296100"><time>2016-05-20T16:32:04-05:00</time></trkpt>
  593. <trkpt lat="35.27502500" lon="-112.76662800"><time>2016-05-20T16:44:09-05:00</time></trkpt>
  594. <trkpt lat="35.27264500" lon="-112.75537400"><time>2016-05-20T16:56:05-05:00</time></trkpt>
  595. <trkpt lat="35.27219900" lon="-112.73971200"><time>2016-05-20T17:08:04-05:00</time></trkpt>
  596. <trkpt lat="35.26787200" lon="-112.72735400"><time>2016-05-20T17:20:03-05:00</time></trkpt>
  597. <trkpt lat="35.26149100" lon="-112.71936300"><time>2016-05-20T17:32:01-05:00</time></trkpt>
  598. <trkpt lat="35.25635000" lon="-112.70926000"><time>2016-05-20T17:44:30-05:00</time></trkpt>
  599. <trkpt lat="35.25266600" lon="-112.69789400"><time>2016-05-20T17:56:00-05:00</time></trkpt>
  600. <trkpt lat="35.24557600" lon="-112.67908700"><time>2016-05-20T18:14:25-05:00</time></trkpt>
  601. <trkpt lat="35.24557600" lon="-112.67908700"><time>2016-05-20T18:25:54-05:00</time></trkpt>
  602. <trkpt lat="35.24557600" lon="-112.67908700"><time>2016-05-20T18:37:53-05:00</time></trkpt>
  603. <trkpt lat="35.24557600" lon="-112.67908700"><time>2016-05-20T18:49:53-05:00</time></trkpt>
  604. <trkpt lat="35.24557600" lon="-112.67908700"><time>2016-05-20T19:01:50-05:00</time></trkpt>
  605. <trkpt lat="35.24578200" lon="-112.67895500"><time>2016-05-20T19:13:45-05:00</time></trkpt>
  606. <trkpt lat="35.24566300" lon="-112.67909200"><time>2016-05-20T23:12:57-05:00</time></trkpt>
  607. <trkpt lat="35.24566300" lon="-112.67909200"><time>2016-05-20T23:23:57-05:00</time></trkpt>
  608. <trkpt lat="35.24566300" lon="-112.67909200"><time>2016-05-20T23:35:57-05:00</time></trkpt>
  609. <trkpt lat="35.24566300" lon="-112.67909200"><time>2016-05-20T23:47:57-05:00</time></trkpt>
  610. <trkpt lat="35.23819000" lon="-112.65611100"><time>2016-05-20T23:59:59-05:00</time></trkpt>
  611. <trkpt lat="35.23455900" lon="-112.63006000"><time>2016-05-21T00:11:57-05:00</time></trkpt>
  612. <trkpt lat="35.23187200" lon="-112.60682200"><time>2016-05-21T00:23:57-05:00</time></trkpt>
  613. <trkpt lat="35.23075700" lon="-112.59705600"><time>2016-05-21T00:35:57-05:00</time></trkpt>
  614. <trkpt lat="35.23075700" lon="-112.59705600"><time>2016-05-21T00:47:56-05:00</time></trkpt>
  615. <trkpt lat="35.22802900" lon="-112.57938200"><time>2016-05-21T00:59:57-05:00</time></trkpt>
  616. <trkpt lat="35.22201700" lon="-112.54865000"><time>2016-05-21T01:11:57-05:00</time></trkpt>
  617. <trkpt lat="35.22082000" lon="-112.51586500"><time>2016-05-21T01:23:55-05:00</time></trkpt>
  618. <trkpt lat="35.21920100" lon="-112.48192400"><time>2016-05-21T01:36:04-05:00</time></trkpt>
  619. <trkpt lat="35.21982500" lon="-112.47824700"><time>2016-05-21T01:47:55-05:00</time></trkpt>
  620. <trkpt lat="35.22005800" lon="-112.45946700"><time>2016-05-21T01:59:58-05:00</time></trkpt>
  621. <trkpt lat="35.21426700" lon="-112.42673100"><time>2016-05-21T02:11:52-05:00</time></trkpt>
  622. <trkpt lat="35.21670400" lon="-112.39555500"><time>2016-05-21T02:23:53-05:00</time></trkpt>
  623. <trkpt lat="35.21589400" lon="-112.39060300"><time>2016-05-21T02:35:53-05:00</time></trkpt>
  624. <trkpt lat="35.21553900" lon="-112.36409200"><time>2016-05-21T02:47:52-05:00</time></trkpt>
  625. <trkpt lat="35.21597400" lon="-112.35159000"><time>2016-05-21T02:59:49-05:00</time></trkpt>
  626. <trkpt lat="35.22286700" lon="-112.32490300"><time>2016-05-21T03:11:49-05:00</time></trkpt>
  627. <trkpt lat="35.22016300" lon="-112.29488900"><time>2016-05-21T03:24:09-05:00</time></trkpt>
  628. <trkpt lat="35.22169800" lon="-112.26571700"><time>2016-05-21T03:35:46-05:00</time></trkpt>
  629. <trkpt lat="35.22254300" lon="-112.25004300"><time>2016-05-21T03:47:47-05:00</time></trkpt>
  630. <trkpt lat="35.22226600" lon="-112.25004000"><time>2016-05-21T04:05:34-05:00</time></trkpt>
  631. <trkpt lat="35.23207300" lon="-112.23189700"><time>2016-05-21T04:17:41-05:00</time></trkpt>
  632. <trkpt lat="35.25250200" lon="-112.20533900"><time>2016-05-21T04:29:40-05:00</time></trkpt>
  633. <trkpt lat="35.26381400" lon="-112.17753200"><time>2016-05-21T04:41:41-05:00</time></trkpt>
  634. <trkpt lat="35.26383000" lon="-112.16829900"><time>2016-05-21T04:53:40-05:00</time></trkpt>
  635. <trkpt lat="35.26383000" lon="-112.16829900"><time>2016-05-21T06:55:20-05:00</time></trkpt>
  636. <trkpt lat="35.26093800" lon="-112.15259600"><time>2016-05-21T07:08:19-05:00</time></trkpt>
  637. <trkpt lat="35.25806100" lon="-112.11393700"><time>2016-05-21T07:20:17-05:00</time></trkpt>
  638. <trkpt lat="35.25903400" lon="-112.07689500"><time>2016-05-21T07:32:17-05:00</time></trkpt>
  639. <trkpt lat="35.26265500" lon="-112.04278100"><time>2016-05-21T07:44:14-05:00</time></trkpt>
  640. <trkpt lat="35.25905900" lon="-112.02781800"><time>2016-05-21T07:56:15-05:00</time></trkpt>
  641. <trkpt lat="35.25833400" lon="-112.02500300"><time>2016-05-21T08:08:12-05:00</time></trkpt>
  642. <trkpt lat="35.25589100" lon="-112.01467400"><time>2016-05-21T08:20:11-05:00</time></trkpt>
  643. <trkpt lat="35.25427300" lon="-112.00796100"><time>2016-05-21T08:32:10-05:00</time></trkpt>
  644. <trkpt lat="35.25427300" lon="-112.00796100"><time>2016-05-21T08:44:09-05:00</time></trkpt>
  645. <trkpt lat="35.25199600" lon="-111.99873400"><time>2016-05-21T08:56:09-05:00</time></trkpt>
  646. <trkpt lat="35.24931500" lon="-111.99091900"><time>2016-05-21T09:08:08-05:00</time></trkpt>
  647. <trkpt lat="35.24752400" lon="-111.97292300"><time>2016-05-21T09:20:07-05:00</time></trkpt>
  648. <trkpt lat="35.25133400" lon="-111.95528200"><time>2016-05-21T09:32:07-05:00</time></trkpt>
  649. <trkpt lat="35.25366900" lon="-111.94604200"><time>2016-05-21T09:44:05-05:00</time></trkpt>
  650. <trkpt lat="35.25677900" lon="-111.93229800"><time>2016-05-21T09:56:05-05:00</time></trkpt>
  651. <trkpt lat="35.25326200" lon="-111.91266700"><time>2016-05-21T10:08:01-05:00</time></trkpt>
  652. <trkpt lat="35.25326200" lon="-111.91266700"><time>2016-05-21T10:20:01-05:00</time></trkpt>
  653. <trkpt lat="35.25220200" lon="-111.90271800"><time>2016-05-21T10:31:59-05:00</time></trkpt>
  654. <trkpt lat="35.24696200" lon="-111.88685800"><time>2016-05-21T10:43:59-05:00</time></trkpt>
  655. <trkpt lat="35.24778300" lon="-111.87542200"><time>2016-05-21T10:55:59-05:00</time></trkpt>
  656. <trkpt lat="35.24845800" lon="-111.86801600"><time>2016-05-21T11:07:58-05:00</time></trkpt>
  657. <trkpt lat="35.24794600" lon="-111.85577800"><time>2016-05-21T11:19:57-05:00</time></trkpt>
  658. <trkpt lat="35.24494100" lon="-111.84267700"><time>2016-05-21T11:31:56-05:00</time></trkpt>
  659. <trkpt lat="35.24384700" lon="-111.83976000"><time>2016-05-21T11:43:54-05:00</time></trkpt>
  660. <trkpt lat="35.23914000" lon="-111.82949100"><time>2016-05-21T11:55:55-05:00</time></trkpt>
  661. <trkpt lat="35.23466200" lon="-111.82016500"><time>2016-05-21T12:07:54-05:00</time></trkpt>
  662. <trkpt lat="35.23461600" lon="-111.82016300"><time>2016-05-21T12:19:53-05:00</time></trkpt>
  663. <trkpt lat="35.23456300" lon="-111.81991800"><time>2016-05-21T12:31:51-05:00</time></trkpt>
  664. <trkpt lat="35.22883300" lon="-111.80766700"><time>2016-05-21T12:43:51-05:00</time></trkpt>
  665. <trkpt lat="35.22506000" lon="-111.79968600"><time>2016-05-21T12:55:49-05:00</time></trkpt>
  666. <trkpt lat="35.21816300" lon="-111.78886200"><time>2016-05-21T13:07:49-05:00</time></trkpt>
  667. <trkpt lat="35.21235500" lon="-111.77579500"><time>2016-05-21T13:19:47-05:00</time></trkpt>
  668. <trkpt lat="35.20428900" lon="-111.76803800"><time>2016-05-21T13:31:47-05:00</time></trkpt>
  669. <trkpt lat="35.20000100" lon="-111.75598500"><time>2016-05-21T13:43:45-05:00</time></trkpt>
  670. <trkpt lat="35.19892900" lon="-111.75049800"><time>2016-05-21T13:55:51-05:00</time></trkpt>
  671. <trkpt lat="35.19770200" lon="-111.74385500"><time>2016-05-21T14:07:45-05:00</time></trkpt>
  672. <trkpt lat="35.19291000" lon="-111.72395200"><time>2016-05-21T14:19:43-05:00</time></trkpt>
  673. <trkpt lat="35.19232900" lon="-111.70741800"><time>2016-05-21T14:31:42-05:00</time></trkpt>
  674. <trkpt lat="35.18976300" lon="-111.69692200"><time>2016-05-21T14:43:41-05:00</time></trkpt>
  675. <trkpt lat="35.18949200" lon="-111.69603000"><time>2016-05-21T14:55:41-05:00</time></trkpt>
  676. <trkpt lat="35.18871400" lon="-111.68852700"><time>2016-05-21T15:07:40-05:00</time></trkpt>
  677. <trkpt lat="35.18790600" lon="-111.67671000"><time>2016-05-21T15:19:39-05:00</time></trkpt>
  678. <trkpt lat="35.18842600" lon="-111.66695100"><time>2016-05-21T15:31:39-05:00</time></trkpt>
  679. <trkpt lat="35.18842600" lon="-111.66695100"><time>2016-05-21T15:43:37-05:00</time></trkpt>
  680. <trkpt lat="35.18839800" lon="-111.66698000"><time>2016-05-21T15:55:37-05:00</time></trkpt>
  681. <trkpt lat="35.19085600" lon="-111.66397800"><time>2016-05-21T16:07:35-05:00</time></trkpt>
  682. <trkpt lat="35.19693000" lon="-111.65460200"><time>2016-05-21T16:19:33-05:00</time></trkpt>
  683. <trkpt lat="35.19649300" lon="-111.64546800"><time>2016-05-21T16:31:32-05:00</time></trkpt>
  684. <trkpt lat="35.19380200" lon="-111.63367700"><time>2016-05-21T16:43:31-05:00</time></trkpt>
  685. <trkpt lat="35.19537100" lon="-111.62819900"><time>2016-05-21T16:55:30-05:00</time></trkpt>
  686. <trkpt lat="35.20078500" lon="-111.61786900"><time>2016-05-21T17:07:28-05:00</time></trkpt>
  687. <trkpt lat="35.18922800" lon="-111.66620100"><time>2016-05-22T00:12:03-05:00</time></trkpt>
  688. <trkpt lat="35.20590800" lon="-111.61325700"><time>2016-05-22T00:22:34-05:00</time></trkpt>
  689. <trkpt lat="35.20645900" lon="-111.61247000"><time>2016-05-22T00:34:33-05:00</time></trkpt>
  690. <trkpt lat="35.20984600" lon="-111.60643200"><time>2016-05-22T00:46:33-05:00</time></trkpt>
  691. <trkpt lat="35.22090900" lon="-111.58819100"><time>2016-05-22T00:58:31-05:00</time></trkpt>
  692. <trkpt lat="35.23206100" lon="-111.57667700"><time>2016-05-22T01:10:31-05:00</time></trkpt>
  693. <trkpt lat="35.23721400" lon="-111.57301700"><time>2016-05-22T01:22:30-05:00</time></trkpt>
  694. <trkpt lat="35.24799200" lon="-111.56178100"><time>2016-05-22T01:34:28-05:00</time></trkpt>
  695. <trkpt lat="35.27139900" lon="-111.54449600"><time>2016-05-22T01:46:27-05:00</time></trkpt>
  696. <trkpt lat="35.29898300" lon="-111.54257300"><time>2016-05-22T01:58:25-05:00</time></trkpt>
  697. <trkpt lat="35.32551800" lon="-111.54366500"><time>2016-05-22T02:10:32-05:00</time></trkpt>
  698. <trkpt lat="35.34551600" lon="-111.56166400"><time>2016-05-22T02:22:25-05:00</time></trkpt>
  699. <trkpt lat="35.36673500" lon="-111.57229400"><time>2016-05-22T02:34:26-05:00</time></trkpt>
  700. <trkpt lat="35.37511300" lon="-111.57706600"><time>2016-05-22T02:46:23-05:00</time></trkpt>
  701. <trkpt lat="35.40481300" lon="-111.57471200"><time>2016-05-22T02:58:24-05:00</time></trkpt>
  702. <trkpt lat="35.43242600" lon="-111.56757400"><time>2016-05-22T03:10:22-05:00</time></trkpt>
  703. <trkpt lat="35.43242600" lon="-111.56757400"><time>2016-05-22T03:22:23-05:00</time></trkpt>
  704. <trkpt lat="35.43237400" lon="-111.56757500"><time>2016-05-22T03:34:20-05:00</time></trkpt>
  705. <trkpt lat="35.46057200" lon="-111.56033300"><time>2016-05-22T03:46:19-05:00</time></trkpt>
  706. <trkpt lat="35.48977900" lon="-111.55493600"><time>2016-05-22T03:58:47-05:00</time></trkpt>
  707. <trkpt lat="35.51649100" lon="-111.54397200"><time>2016-05-22T04:10:16-05:00</time></trkpt>
  708. <trkpt lat="35.52877000" lon="-111.54159900"><time>2016-05-22T04:22:43-05:00</time></trkpt>
  709. <trkpt lat="35.52877000" lon="-111.54159900"><time>2016-05-22T04:34:12-05:00</time></trkpt>
  710. <trkpt lat="35.52877000" lon="-111.54159900"><time>2016-05-22T04:46:10-05:00</time></trkpt>
  711. <trkpt lat="35.52877000" lon="-111.54159900"><time>2016-05-22T05:42:55-05:00</time></trkpt>
  712. <trkpt lat="35.52877000" lon="-111.54159900"><time>2016-05-22T06:18:11-05:00</time></trkpt>
  713. <trkpt lat="35.55096700" lon="-111.53656800"><time>2016-05-22T06:30:59-05:00</time></trkpt>
  714. <trkpt lat="35.56861200" lon="-111.53223200"><time>2016-05-22T06:42:56-05:00</time></trkpt>
  715. <trkpt lat="35.59561800" lon="-111.52675900"><time>2016-05-22T06:54:55-05:00</time></trkpt>
  716. <trkpt lat="35.62355800" lon="-111.52136600"><time>2016-05-22T07:06:55-05:00</time></trkpt>
  717. <trkpt lat="35.65218300" lon="-111.51548000"><time>2016-05-22T07:18:53-05:00</time></trkpt>
  718. <trkpt lat="35.67974600" lon="-111.50780900"><time>2016-05-22T07:31:13-05:00</time></trkpt>
  719. <trkpt lat="35.69275300" lon="-111.50325000"><time>2016-05-22T07:42:10-05:00</time></trkpt>
  720. <trkpt lat="35.69275300" lon="-111.50325000"><time>2016-05-22T07:58:37-05:00</time></trkpt>
  721. <trkpt lat="35.71010200" lon="-111.49226700"><time>2016-05-22T08:09:46-05:00</time></trkpt>
  722. <trkpt lat="35.73829700" lon="-111.47682300"><time>2016-05-22T08:21:45-05:00</time></trkpt>
  723. <trkpt lat="35.74520600" lon="-111.47335300"><time>2016-05-22T08:33:45-05:00</time></trkpt>
  724. <trkpt lat="35.74520600" lon="-111.47335300"><time>2016-05-22T08:45:43-05:00</time></trkpt>
  725. <trkpt lat="35.75641000" lon="-111.46861000"><time>2016-05-22T08:57:42-05:00</time></trkpt>
  726. <trkpt lat="35.78129900" lon="-111.45652000"><time>2016-05-22T09:09:41-05:00</time></trkpt>
  727. <trkpt lat="35.78641400" lon="-111.45215000"><time>2016-05-22T09:21:41-05:00</time></trkpt>
  728. <trkpt lat="35.79712000" lon="-111.44756800"><time>2016-05-22T09:33:39-05:00</time></trkpt>
  729. <trkpt lat="35.80591200" lon="-111.44488500"><time>2016-05-22T09:45:38-05:00</time></trkpt>
  730. <trkpt lat="35.82176200" lon="-111.44043200"><time>2016-05-22T09:57:37-05:00</time></trkpt>
  731. <trkpt lat="35.83693200" lon="-111.43624400"><time>2016-05-22T10:09:42-05:00</time></trkpt>
  732. <trkpt lat="35.84929800" lon="-111.42979200"><time>2016-05-22T10:21:37-05:00</time></trkpt>
  733. <trkpt lat="35.85124300" lon="-111.42806000"><time>2016-05-22T10:32:50-05:00</time></trkpt>
  734. <trkpt lat="35.85536900" lon="-111.42408200"><time>2016-05-22T11:00:08-05:00</time></trkpt>
  735. <trkpt lat="35.86116200" lon="-111.41900900"><time>2016-05-22T11:12:42-05:00</time></trkpt>
  736. <trkpt lat="35.86119800" lon="-111.41898700"><time>2016-05-22T11:25:14-05:00</time></trkpt>
  737. <trkpt lat="35.87349000" lon="-111.41239100"><time>2016-05-22T11:37:47-05:00</time></trkpt>
  738. <trkpt lat="35.88597400" lon="-111.40870000"><time>2016-05-22T11:50:22-05:00</time></trkpt>
  739. <trkpt lat="35.89084000" lon="-111.40737700"><time>2016-05-22T12:02:23-05:00</time></trkpt>
  740. <trkpt lat="35.91175500" lon="-111.40401300"><time>2016-05-22T12:15:11-05:00</time></trkpt>
  741. <trkpt lat="35.92382200" lon="-111.40218000"><time>2016-05-22T12:27:32-05:00</time></trkpt>
  742. <trkpt lat="35.92850500" lon="-111.40140100"><time>2016-05-22T12:40:16-05:00</time></trkpt>
  743. <trkpt lat="35.93279200" lon="-111.40099500"><time>2016-05-22T12:52:40-05:00</time></trkpt>
  744. <trkpt lat="35.94205800" lon="-111.39967000"><time>2016-05-22T13:04:32-05:00</time></trkpt>
  745. <trkpt lat="35.94208100" lon="-111.39935100"><time>2016-05-22T13:17:22-05:00</time></trkpt>
  746. <trkpt lat="35.95128000" lon="-111.39893800"><time>2016-05-22T13:31:04-05:00</time></trkpt>
  747. <trkpt lat="35.96118700" lon="-111.39708100"><time>2016-05-22T13:42:19-05:00</time></trkpt>
  748. <trkpt lat="35.97719700" lon="-111.39488800"><time>2016-05-22T13:54:58-05:00</time></trkpt>
  749. <trkpt lat="35.98511900" lon="-111.39382800"><time>2016-05-22T14:07:30-05:00</time></trkpt>
  750. <trkpt lat="35.99369700" lon="-111.39280200"><time>2016-05-22T14:20:04-05:00</time></trkpt>
  751. <trkpt lat="36.00475800" lon="-111.39406600"><time>2016-05-22T14:32:39-05:00</time></trkpt>
  752. <trkpt lat="36.01329500" lon="-111.39521400"><time>2016-05-22T14:45:16-05:00</time></trkpt>
  753. <trkpt lat="36.01321600" lon="-111.39535600"><time>2016-05-22T14:57:47-05:00</time></trkpt>
  754. <trkpt lat="36.01531100" lon="-111.39189000"><time>2016-05-22T15:09:39-05:00</time></trkpt>
  755. <trkpt lat="36.02597200" lon="-111.37413800"><time>2016-05-22T15:22:13-05:00</time></trkpt>
  756. <trkpt lat="36.03302200" lon="-111.36079300"><time>2016-05-22T15:34:47-05:00</time></trkpt>
  757. <trkpt lat="36.03451900" lon="-111.35795800"><time>2016-05-22T15:46:02-05:00</time></trkpt>
  758. <trkpt lat="36.03717500" lon="-111.35007000"><time>2016-05-22T15:56:20-05:00</time></trkpt>
  759. <trkpt lat="36.04592800" lon="-111.33984200"><time>2016-05-22T16:08:57-05:00</time></trkpt>
  760. <trkpt lat="36.05559700" lon="-111.32837400"><time>2016-05-22T16:21:39-05:00</time></trkpt>
  761. <trkpt lat="36.06037300" lon="-111.32159100"><time>2016-05-22T16:34:03-05:00</time></trkpt>
  762. <trkpt lat="36.06970900" lon="-111.31232100"><time>2016-05-22T16:44:20-05:00</time></trkpt>
  763. <trkpt lat="36.07154600" lon="-111.31119700"><time>2016-05-22T16:56:07-05:00</time></trkpt>
  764. <trkpt lat="36.08373700" lon="-111.30364600"><time>2016-05-22T17:08:06-05:00</time></trkpt>
  765. <trkpt lat="36.08811200" lon="-111.29868600"><time>2016-05-22T17:20:05-05:00</time></trkpt>
  766. <trkpt lat="36.09810400" lon="-111.28993700"><time>2016-05-22T17:32:04-05:00</time></trkpt>
  767. <trkpt lat="36.10227000" lon="-111.27855400"><time>2016-05-22T17:44:01-05:00</time></trkpt>
  768. <trkpt lat="36.10469800" lon="-111.27201900"><time>2016-05-22T17:55:58-05:00</time></trkpt>
  769. <trkpt lat="36.32339800" lon="-110.93603500"><time>2016-05-23T05:22:27-05:00</time></trkpt>
  770. <trkpt lat="36.32342900" lon="-110.93573800"><time>2016-05-23T05:44:36-05:00</time></trkpt>
  771. <trkpt lat="36.33635400" lon="-110.92053500"><time>2016-05-23T05:56:20-05:00</time></trkpt>
  772. <trkpt lat="36.35629200" lon="-110.90598100"><time>2016-05-23T06:08:19-05:00</time></trkpt>
  773. <trkpt lat="36.37793900" lon="-110.89001900"><time>2016-05-23T06:20:19-05:00</time></trkpt>
  774. <trkpt lat="36.39460800" lon="-110.87162100"><time>2016-05-23T06:32:17-05:00</time></trkpt>
  775. <trkpt lat="36.40350100" lon="-110.84737400"><time>2016-05-23T06:44:17-05:00</time></trkpt>
  776. <trkpt lat="36.41257300" lon="-110.82274700"><time>2016-05-23T06:56:16-05:00</time></trkpt>
  777. <trkpt lat="36.42146000" lon="-110.79856200"><time>2016-05-23T07:08:15-05:00</time></trkpt>
  778. <trkpt lat="36.42436600" lon="-110.79048400"><time>2016-05-23T07:20:13-05:00</time></trkpt>
  779. <trkpt lat="36.42440800" lon="-110.79048100"><time>2016-05-23T07:31:13-05:00</time></trkpt>
  780. <trkpt lat="36.42440800" lon="-110.79048100"><time>2016-05-23T07:42:59-05:00</time></trkpt>
  781. <trkpt lat="36.42442200" lon="-110.79052500"><time>2016-05-23T07:55:21-05:00</time></trkpt>
  782. <trkpt lat="36.42442200" lon="-110.79052500"><time>2016-05-23T08:06:09-05:00</time></trkpt>
  783. <trkpt lat="36.42946500" lon="-110.77774000"><time>2016-05-23T08:18:31-05:00</time></trkpt>
  784. <trkpt lat="36.44090500" lon="-110.74231900"><time>2016-05-23T08:30:55-05:00</time></trkpt>
  785. <trkpt lat="36.44887300" lon="-110.72121700"><time>2016-05-23T08:43:27-05:00</time></trkpt>
  786. <trkpt lat="36.44888800" lon="-110.72121600"><time>2016-05-23T08:56:03-05:00</time></trkpt>
  787. <trkpt lat="36.44888800" lon="-110.72121600"><time>2016-05-23T09:08:02-05:00</time></trkpt>
  788. <trkpt lat="36.44891700" lon="-110.72118600"><time>2016-05-23T09:20:34-05:00</time></trkpt>
  789. <trkpt lat="36.44887600" lon="-110.72121500"><time>2016-05-23T09:33:04-05:00</time></trkpt>
  790. <trkpt lat="36.44885200" lon="-110.72120700"><time>2016-05-23T09:45:36-05:00</time></trkpt>
  791. <trkpt lat="36.44884800" lon="-110.72126200"><time>2016-05-23T09:58:05-05:00</time></trkpt>
  792. <trkpt lat="36.44884800" lon="-110.72126200"><time>2016-05-23T10:10:05-05:00</time></trkpt>
  793. <trkpt lat="36.45934600" lon="-110.69653200"><time>2016-05-23T10:21:37-05:00</time></trkpt>
  794. <trkpt lat="36.47054500" lon="-110.66980000"><time>2016-05-23T10:32:13-05:00</time></trkpt>
  795. <trkpt lat="36.48838500" lon="-110.63609900"><time>2016-05-23T10:44:40-05:00</time></trkpt>
  796. <trkpt lat="36.50307700" lon="-110.61408300"><time>2016-05-23T10:56:36-05:00</time></trkpt>
  797. <trkpt lat="36.50558200" lon="-110.61035100"><time>2016-05-23T11:12:05-05:00</time></trkpt>
  798. <trkpt lat="36.51147200" lon="-110.60157500"><time>2016-05-23T11:24:52-05:00</time></trkpt>
  799. <trkpt lat="36.52352200" lon="-110.58129400"><time>2016-05-23T11:37:08-05:00</time></trkpt>
  800. <trkpt lat="36.53010500" lon="-110.56882000"><time>2016-05-23T11:47:54-05:00</time></trkpt>
  801. <trkpt lat="36.53266900" lon="-110.56400700"><time>2016-05-23T11:58:38-05:00</time></trkpt>
  802. <trkpt lat="36.53834000" lon="-110.55307200"><time>2016-05-23T12:11:11-05:00</time></trkpt>
  803. <trkpt lat="36.54428300" lon="-110.54145900"><time>2016-05-23T12:23:45-05:00</time></trkpt>
  804. <trkpt lat="36.54952700" lon="-110.52916800"><time>2016-05-23T12:36:16-05:00</time></trkpt>
  805. <trkpt lat="36.55375400" lon="-110.51939600"><time>2016-05-23T12:48:48-05:00</time></trkpt>
  806. <trkpt lat="36.55381200" lon="-110.51935600"><time>2016-05-23T13:00:45-05:00</time></trkpt>
  807. <trkpt lat="36.55550800" lon="-110.51579500"><time>2016-05-23T13:13:19-05:00</time></trkpt>
  808. <trkpt lat="36.56016000" lon="-110.50472700"><time>2016-05-23T13:25:49-05:00</time></trkpt>
  809. <trkpt lat="36.56579000" lon="-110.49185200"><time>2016-05-23T13:38:21-05:00</time></trkpt>
  810. <trkpt lat="36.57163900" lon="-110.47971300"><time>2016-05-23T13:50:51-05:00</time></trkpt>
  811. <trkpt lat="36.58173800" lon="-110.47213400"><time>2016-05-23T14:02:46-05:00</time></trkpt>
  812. <trkpt lat="36.58759500" lon="-110.47189700"><time>2016-05-23T14:15:22-05:00</time></trkpt>
  813. <trkpt lat="36.58935400" lon="-110.47197800"><time>2016-05-23T14:27:53-05:00</time></trkpt>
  814. <trkpt lat="36.60948800" lon="-110.47275600"><time>2016-05-23T14:40:26-05:00</time></trkpt>
  815. <trkpt lat="36.62499700" lon="-110.45856200"><time>2016-05-23T14:52:57-05:00</time></trkpt>
  816. <trkpt lat="36.62654900" lon="-110.45662900"><time>2016-05-23T15:04:57-05:00</time></trkpt>
  817. <trkpt lat="36.63408800" lon="-110.44716700"><time>2016-05-23T15:16:58-05:00</time></trkpt>
  818. <trkpt lat="36.64143200" lon="-110.43779700"><time>2016-05-23T15:28:54-05:00</time></trkpt>
  819. <trkpt lat="36.64781100" lon="-110.43107600"><time>2016-05-23T15:40:57-05:00</time></trkpt>
  820. <trkpt lat="36.64811300" lon="-110.43114600"><time>2016-05-23T15:52:53-05:00</time></trkpt>
  821. <trkpt lat="36.64811300" lon="-110.43114600"><time>2016-05-23T17:14:09-05:00</time></trkpt>
  822. <trkpt lat="36.64811300" lon="-110.43114600"><time>2016-05-23T17:25:38-05:00</time></trkpt>
  823. <trkpt lat="36.65034700" lon="-110.42944200"><time>2016-05-23T17:37:52-05:00</time></trkpt>
  824. <trkpt lat="36.65018900" lon="-110.42917100"><time>2016-05-23T17:49:41-05:00</time></trkpt>
  825. <trkpt lat="36.65033000" lon="-110.42926600"><time>2016-05-23T18:01:37-05:00</time></trkpt>
  826. <trkpt lat="36.65033000" lon="-110.42926600"><time>2016-05-23T18:13:35-05:00</time></trkpt>
  827. <trkpt lat="36.65064100" lon="-110.42871900"><time>2016-05-23T18:25:31-05:00</time></trkpt>
  828. <trkpt lat="36.65078700" lon="-110.42851900"><time>2016-05-23T18:38:11-05:00</time></trkpt>
  829. <trkpt lat="36.65078700" lon="-110.42851900"><time>2016-05-23T18:50:11-05:00</time></trkpt>
  830. <trkpt lat="36.65085500" lon="-110.42857800"><time>2016-05-23T22:07:57-05:00</time></trkpt>
  831. <trkpt lat="36.65085500" lon="-110.42857800"><time>2016-05-23T22:18:28-05:00</time></trkpt>
  832. <trkpt lat="36.65234000" lon="-110.42625300"><time>2016-05-23T22:30:29-05:00</time></trkpt>
  833. <trkpt lat="36.67069300" lon="-110.40347000"><time>2016-05-23T22:42:28-05:00</time></trkpt>
  834. <trkpt lat="36.68646700" lon="-110.37582700"><time>2016-05-23T22:54:29-05:00</time></trkpt>
  835. <trkpt lat="36.69563000" lon="-110.35150700"><time>2016-05-23T23:06:25-05:00</time></trkpt>
  836. <trkpt lat="36.69883100" lon="-110.32482600"><time>2016-05-23T23:19:22-05:00</time></trkpt>
  837. <trkpt lat="36.69937500" lon="-110.30404000"><time>2016-05-23T23:31:53-05:00</time></trkpt>
  838. <trkpt lat="36.70015800" lon="-110.29743300"><time>2016-05-23T23:44:22-05:00</time></trkpt>
  839. <trkpt lat="36.70184600" lon="-110.28549100"><time>2016-05-23T23:56:09-05:00</time></trkpt>
  840. <trkpt lat="36.70418900" lon="-110.27024900"><time>2016-05-24T00:08:42-05:00</time></trkpt>
  841. <trkpt lat="36.70694400" lon="-110.24730700"><time>2016-05-24T00:21:11-05:00</time></trkpt>
  842. <trkpt lat="36.70884700" lon="-110.24026400"><time>2016-05-24T00:33:48-05:00</time></trkpt>
  843. <trkpt lat="36.71054700" lon="-110.22872800"><time>2016-05-24T00:46:16-05:00</time></trkpt>
  844. <trkpt lat="36.71111700" lon="-110.22535000"><time>2016-05-24T00:58:12-05:00</time></trkpt>
  845. <trkpt lat="36.71755700" lon="-110.18322200"><time>2016-05-24T01:10:45-05:00</time></trkpt>
  846. <trkpt lat="36.72052700" lon="-110.16389000"><time>2016-05-24T01:23:23-05:00</time></trkpt>
  847. <trkpt lat="36.72092900" lon="-110.16148500"><time>2016-05-24T01:35:54-05:00</time></trkpt>
  848. <trkpt lat="36.72654800" lon="-110.12477200"><time>2016-05-24T01:48:29-05:00</time></trkpt>
  849. <trkpt lat="36.73279800" lon="-110.09841100"><time>2016-05-24T02:00:27-05:00</time></trkpt>
  850. <trkpt lat="36.74822100" lon="-110.06643900"><time>2016-05-24T02:13:00-05:00</time></trkpt>
  851. <trkpt lat="36.76424300" lon="-110.03711900"><time>2016-05-24T02:25:36-05:00</time></trkpt>
  852. <trkpt lat="36.77813500" lon="-110.00449800"><time>2016-05-24T02:37:35-05:00</time></trkpt>
  853. <trkpt lat="36.78168600" lon="-109.98506200"><time>2016-05-24T02:49:34-05:00</time></trkpt>
  854. <trkpt lat="36.78168600" lon="-109.98506200"><time>2016-05-24T03:12:39-05:00</time></trkpt>
  855. <trkpt lat="36.78647100" lon="-109.95954800"><time>2016-05-24T03:25:27-05:00</time></trkpt>
  856. <trkpt lat="36.80040800" lon="-109.92527000"><time>2016-05-24T03:37:28-05:00</time></trkpt>
  857. <trkpt lat="36.81352400" lon="-109.89356800"><time>2016-05-24T03:49:26-05:00</time></trkpt>
  858. <trkpt lat="36.82861900" lon="-109.86151500"><time>2016-05-24T04:01:47-05:00</time></trkpt>
  859. <trkpt lat="36.83123200" lon="-109.85750700"><time>2016-05-24T04:13:22-05:00</time></trkpt>
  860. <trkpt lat="36.83152500" lon="-109.85751700"><time>2016-05-24T05:33:04-05:00</time></trkpt>
  861. <trkpt lat="36.83123100" lon="-109.85749800"><time>2016-05-24T05:43:09-05:00</time></trkpt>
  862. <trkpt lat="36.83175200" lon="-109.85693700"><time>2016-05-24T06:55:08-05:00</time></trkpt>
  863. <trkpt lat="36.84730900" lon="-109.83504300"><time>2016-05-24T07:06:56-05:00</time></trkpt>
  864. <trkpt lat="36.87329100" lon="-109.81976200"><time>2016-05-24T07:18:56-05:00</time></trkpt>
  865. <trkpt lat="36.89365600" lon="-109.79923500"><time>2016-05-24T07:30:54-05:00</time></trkpt>
  866. <trkpt lat="36.91370600" lon="-109.77676300"><time>2016-05-24T07:42:54-05:00</time></trkpt>
  867. <trkpt lat="36.93027900" lon="-109.74925300"><time>2016-05-24T07:54:52-05:00</time></trkpt>
  868. <trkpt lat="36.94633300" lon="-109.72016300"><time>2016-05-24T08:06:51-05:00</time></trkpt>
  869. <trkpt lat="36.94367500" lon="-109.70925000"><time>2016-05-24T08:19:18-05:00</time></trkpt>
  870. <trkpt lat="36.94362100" lon="-109.70913400"><time>2016-05-24T08:40:50-05:00</time></trkpt>
  871. <trkpt lat="36.94357700" lon="-109.70914800"><time>2016-05-24T08:56:25-05:00</time></trkpt>
  872. <trkpt lat="36.94363200" lon="-109.70919200"><time>2016-05-24T09:11:59-05:00</time></trkpt>
  873. <trkpt lat="36.94364400" lon="-109.70917900"><time>2016-05-24T09:27:36-05:00</time></trkpt>
  874. <trkpt lat="36.94268100" lon="-109.70691400"><time>2016-05-24T09:41:42-05:00</time></trkpt>
  875. <trkpt lat="36.93989900" lon="-109.70193500"><time>2016-05-24T09:52:33-05:00</time></trkpt>
  876. <trkpt lat="36.94014400" lon="-109.67379400"><time>2016-05-24T10:03:23-05:00</time></trkpt>
  877. <trkpt lat="36.94082700" lon="-109.66354400"><time>2016-05-24T10:15:04-05:00</time></trkpt>
  878. <trkpt lat="36.94166200" lon="-109.65083900"><time>2016-05-24T10:27:38-05:00</time></trkpt>
  879. <trkpt lat="36.93893400" lon="-109.63929500"><time>2016-05-24T10:40:07-05:00</time></trkpt>
  880. <trkpt lat="36.93287500" lon="-109.62857300"><time>2016-05-24T10:52:37-05:00</time></trkpt>
  881. <trkpt lat="36.92681700" lon="-109.61794000"><time>2016-05-24T11:05:08-05:00</time></trkpt>
  882. <trkpt lat="36.92517100" lon="-109.61478600"><time>2016-05-24T11:17:05-05:00</time></trkpt>
  883. <trkpt lat="36.92417800" lon="-109.60344200"><time>2016-05-24T11:29:39-05:00</time></trkpt>
  884. <trkpt lat="36.92429600" lon="-109.60280100"><time>2016-05-24T11:42:14-05:00</time></trkpt>
  885. <trkpt lat="36.92604700" lon="-109.58734800"><time>2016-05-24T11:54:50-05:00</time></trkpt>
  886. <trkpt lat="36.93335700" lon="-109.56652500"><time>2016-05-24T12:07:35-05:00</time></trkpt>
  887. <trkpt lat="36.93659800" lon="-109.55801400"><time>2016-05-24T12:19:19-05:00</time></trkpt>
  888. <trkpt lat="36.93940800" lon="-109.54953900"><time>2016-05-24T12:32:12-05:00</time></trkpt>
  889. <trkpt lat="36.94381300" lon="-109.53716500"><time>2016-05-24T12:44:30-05:00</time></trkpt>
  890. <trkpt lat="36.94829900" lon="-109.52444200"><time>2016-05-24T12:57:02-05:00</time></trkpt>
  891. <trkpt lat="36.95235900" lon="-109.51258600"><time>2016-05-24T13:09:45-05:00</time></trkpt>
  892. <trkpt lat="36.95494900" lon="-109.50549300"><time>2016-05-24T13:21:31-05:00</time></trkpt>
  893. <trkpt lat="36.96130400" lon="-109.48757200"><time>2016-05-24T13:33:25-05:00</time></trkpt>
  894. <trkpt lat="36.96369100" lon="-109.47106800"><time>2016-05-24T13:43:35-05:00</time></trkpt>
  895. <trkpt lat="36.96323900" lon="-109.45647600"><time>2016-05-24T13:56:05-05:00</time></trkpt>
  896. <trkpt lat="36.96312400" lon="-109.45591600"><time>2016-05-24T14:08:02-05:00</time></trkpt>
  897. <trkpt lat="36.96304800" lon="-109.45583000"><time>2016-05-24T14:20:40-05:00</time></trkpt>
  898. <trkpt lat="36.96313100" lon="-109.45591400"><time>2016-05-24T14:33:10-05:00</time></trkpt>
  899. <trkpt lat="36.96314300" lon="-109.45589900"><time>2016-05-24T14:45:41-05:00</time></trkpt>
  900. <trkpt lat="36.96312200" lon="-109.45591400"><time>2016-05-24T14:58:09-05:00</time></trkpt>
  901. <trkpt lat="36.96312200" lon="-109.45591400"><time>2016-05-24T15:10:04-05:00</time></trkpt>
  902. <trkpt lat="36.96310500" lon="-109.45593700"><time>2016-05-24T15:22:37-05:00</time></trkpt>
  903. <trkpt lat="36.96289000" lon="-109.44549500"><time>2016-05-24T15:35:09-05:00</time></trkpt>
  904. <trkpt lat="36.96248700" lon="-109.43096900"><time>2016-05-24T15:47:40-05:00</time></trkpt>
  905. <trkpt lat="36.96204300" lon="-109.41780500"><time>2016-05-24T16:00:11-05:00</time></trkpt>
  906. <trkpt lat="36.96162000" lon="-109.40673100"><time>2016-05-24T16:12:07-05:00</time></trkpt>
  907. <trkpt lat="36.96135800" lon="-109.39917700"><time>2016-05-24T16:24:46-05:00</time></trkpt>
  908. <trkpt lat="36.96125600" lon="-109.39452600"><time>2016-05-24T16:37:20-05:00</time></trkpt>
  909. <trkpt lat="36.96083700" lon="-109.38293000"><time>2016-05-24T16:49:46-05:00</time></trkpt>
  910. <trkpt lat="36.96036200" lon="-109.36867700"><time>2016-05-24T17:02:19-05:00</time></trkpt>
  911. <trkpt lat="36.96012300" lon="-109.36142400"><time>2016-05-24T17:14:14-05:00</time></trkpt>
  912. <trkpt lat="36.95986100" lon="-109.35011600"><time>2016-05-24T17:26:46-05:00</time></trkpt>
  913. <trkpt lat="36.95929600" lon="-109.33408800"><time>2016-05-24T17:39:19-05:00</time></trkpt>
  914. <trkpt lat="36.95863700" lon="-109.31713400"><time>2016-05-24T17:51:49-05:00</time></trkpt>
  915. <trkpt lat="36.95861900" lon="-109.30880700"><time>2016-05-24T18:04:20-05:00</time></trkpt>
  916. <trkpt lat="36.95861900" lon="-109.30880700"><time>2016-05-24T18:16:18-05:00</time></trkpt>
  917. <trkpt lat="36.95861600" lon="-109.30874700"><time>2016-05-24T18:31:49-05:00</time></trkpt>
  918. <trkpt lat="36.95859200" lon="-109.30875500"><time>2016-05-24T18:47:27-05:00</time></trkpt>
  919. <trkpt lat="36.95856100" lon="-109.30880400"><time>2016-05-24T19:03:01-05:00</time></trkpt>
  920. <trkpt lat="36.95860100" lon="-109.30876300"><time>2016-05-24T19:18:31-05:00</time></trkpt>
  921. <trkpt lat="36.95856700" lon="-109.30872500"><time>2016-05-24T19:34:03-05:00</time></trkpt>
  922. <trkpt lat="36.95858300" lon="-109.30878700"><time>2016-05-24T19:49:34-05:00</time></trkpt>
  923. <trkpt lat="36.95856100" lon="-109.30877600"><time>2016-05-24T20:05:06-05:00</time></trkpt>
  924. <trkpt lat="36.95858100" lon="-109.30881700"><time>2016-05-24T20:20:38-05:00</time></trkpt>
  925. <trkpt lat="36.95856300" lon="-109.30880400"><time>2016-05-24T20:36:09-05:00</time></trkpt>
  926. <trkpt lat="36.95861800" lon="-109.30884600"><time>2016-05-24T20:51:40-05:00</time></trkpt>
  927. <trkpt lat="36.95859000" lon="-109.30876000"><time>2016-05-24T21:07:13-05:00</time></trkpt>
  928. <trkpt lat="36.95858900" lon="-109.30881300"><time>2016-05-24T21:22:45-05:00</time></trkpt>
  929. <trkpt lat="36.95860600" lon="-109.30881600"><time>2016-05-24T21:38:17-05:00</time></trkpt>
  930. <trkpt lat="36.95860300" lon="-109.30883800"><time>2016-05-24T21:53:48-05:00</time></trkpt>
  931. <trkpt lat="36.95858000" lon="-109.30876700"><time>2016-05-24T22:09:19-05:00</time></trkpt>
  932. <trkpt lat="36.95854300" lon="-109.30878900"><time>2016-05-24T22:24:51-05:00</time></trkpt>
  933. <trkpt lat="36.95856900" lon="-109.30880200"><time>2016-05-24T22:40:22-05:00</time></trkpt>
  934. <trkpt lat="36.95811300" lon="-109.30796700"><time>2016-05-24T22:53:19-05:00</time></trkpt>
  935. <trkpt lat="36.95188800" lon="-109.28742300"><time>2016-05-24T23:05:26-05:00</time></trkpt>
  936. <trkpt lat="36.94543500" lon="-109.26682000"><time>2016-05-24T23:18:03-05:00</time></trkpt>
  937. <trkpt lat="36.93457700" lon="-109.23230200"><time>2016-05-24T23:30:35-05:00</time></trkpt>
  938. <trkpt lat="36.92947700" lon="-109.21169800"><time>2016-05-24T23:42:32-05:00</time></trkpt>
  939. <trkpt lat="36.92951300" lon="-109.21164000"><time>2016-05-24T23:55:17-05:00</time></trkpt>
  940. <trkpt lat="36.92752900" lon="-109.19103300"><time>2016-05-25T00:07:38-05:00</time></trkpt>
  941. <trkpt lat="36.92925400" lon="-109.15807500"><time>2016-05-25T00:20:14-05:00</time></trkpt>
  942. <trkpt lat="36.93374600" lon="-109.13578600"><time>2016-05-25T00:32:43-05:00</time></trkpt>
  943. <trkpt lat="36.93138100" lon="-109.10624200"><time>2016-05-25T00:44:40-05:00</time></trkpt>
  944. <trkpt lat="36.92097000" lon="-109.08764700"><time>2016-05-25T00:57:14-05:00</time></trkpt>
  945. <trkpt lat="36.90926100" lon="-109.07204600"><time>2016-05-25T01:09:49-05:00</time></trkpt>
  946. <trkpt lat="36.90100500" lon="-109.06730900"><time>2016-05-25T01:20:26-05:00</time></trkpt>
  947. <trkpt lat="36.88707900" lon="-109.05634700"><time>2016-05-25T01:32:19-05:00</time></trkpt>
  948. <trkpt lat="36.87191500" lon="-109.04519400"><time>2016-05-25T01:44:53-05:00</time></trkpt>
  949. <trkpt lat="36.87212800" lon="-109.04527900"><time>2016-05-25T01:57:24-05:00</time></trkpt>
  950. <trkpt lat="36.87216700" lon="-109.04530000"><time>2016-05-25T02:10:20-05:00</time></trkpt>
  951. <trkpt lat="36.86308200" lon="-109.04125000"><time>2016-05-25T02:22:51-05:00</time></trkpt>
  952. <trkpt lat="36.83666300" lon="-109.02602500"><time>2016-05-25T02:34:49-05:00</time></trkpt>
  953. <trkpt lat="36.82639900" lon="-108.99658100"><time>2016-05-25T02:44:52-05:00</time></trkpt>
  954. <trkpt lat="36.82652400" lon="-108.95974700"><time>2016-05-25T02:56:51-05:00</time></trkpt>
  955. <trkpt lat="36.82540900" lon="-108.93203300"><time>2016-05-25T03:09:48-05:00</time></trkpt>
  956. <trkpt lat="36.82537300" lon="-108.93191100"><time>2016-05-25T03:20:13-05:00</time></trkpt>
  957. <trkpt lat="36.81769600" lon="-108.90779400"><time>2016-05-25T03:32:14-05:00</time></trkpt>
  958. <trkpt lat="36.80955000" lon="-108.88376900"><time>2016-05-25T03:42:22-05:00</time></trkpt>
  959. <trkpt lat="36.79793900" lon="-108.85022600"><time>2016-05-25T03:54:22-05:00</time></trkpt>
  960. <trkpt lat="36.78465500" lon="-108.81203600"><time>2016-05-25T04:14:05-05:00</time></trkpt>
  961. <trkpt lat="36.78465500" lon="-108.81203600"><time>2016-05-25T04:25:52-05:00</time></trkpt>
  962. <trkpt lat="36.77586900" lon="-108.76355100"><time>2016-05-25T04:51:11-05:00</time></trkpt>
  963. <trkpt lat="36.77383500" lon="-108.72138100"><time>2016-05-25T05:05:36-05:00</time></trkpt>
  964. <trkpt lat="36.77760100" lon="-108.69641000"><time>2016-05-25T05:16:42-05:00</time></trkpt>
  965. <trkpt lat="36.77760100" lon="-108.69641000"><time>2016-05-25T05:29:08-05:00</time></trkpt>
  966. <trkpt lat="36.78412500" lon="-108.66630400"><time>2016-05-25T05:40:15-05:00</time></trkpt>
  967. <trkpt lat="36.78244500" lon="-108.63194100"><time>2016-05-25T05:52:04-05:00</time></trkpt>
  968. <trkpt lat="36.77427600" lon="-108.61445700"><time>2016-05-25T06:04:03-05:00</time></trkpt>
  969. <trkpt lat="36.77432300" lon="-108.61437300"><time>2016-05-25T06:26:58-05:00</time></trkpt>
  970. <trkpt lat="36.77428200" lon="-108.61446500"><time>2016-05-25T06:45:58-05:00</time></trkpt>
  971. <trkpt lat="36.76662100" lon="-108.59604400"><time>2016-05-25T07:04:55-05:00</time></trkpt>
  972. <trkpt lat="36.75435700" lon="-108.56217800"><time>2016-05-25T07:17:28-05:00</time></trkpt>
  973. <trkpt lat="36.74793400" lon="-108.53321700"><time>2016-05-25T07:28:01-05:00</time></trkpt>
  974. <trkpt lat="36.75859700" lon="-108.51193300"><time>2016-05-25T07:40:01-05:00</time></trkpt>
  975. <trkpt lat="36.75990900" lon="-108.49105400"><time>2016-05-25T07:52:57-05:00</time></trkpt>
  976. <trkpt lat="36.75993500" lon="-108.49105000"><time>2016-05-25T09:18:46-05:00</time></trkpt>
  977. <trkpt lat="36.75977400" lon="-108.49125400"><time>2016-05-25T09:30:46-05:00</time></trkpt>
  978. <trkpt lat="36.75986600" lon="-108.47126300"><time>2016-05-25T09:42:41-05:00</time></trkpt>
  979. <trkpt lat="36.75882100" lon="-108.44513000"><time>2016-05-25T09:54:41-05:00</time></trkpt>
  980. <trkpt lat="36.75296400" lon="-108.42089200"><time>2016-05-25T10:06:42-05:00</time></trkpt>
  981. <trkpt lat="36.75285800" lon="-108.40918300"><time>2016-05-25T10:18:43-05:00</time></trkpt>
  982. <trkpt lat="36.75208700" lon="-108.39516000"><time>2016-05-25T10:30:39-05:00</time></trkpt>
  983. <trkpt lat="36.75118500" lon="-108.39004600"><time>2016-05-25T10:42:36-05:00</time></trkpt>
  984. <trkpt lat="36.74727000" lon="-108.37478300"><time>2016-05-25T10:54:36-05:00</time></trkpt>
  985. <trkpt lat="36.74194000" lon="-108.35581600"><time>2016-05-25T11:06:36-05:00</time></trkpt>
  986. <trkpt lat="36.73799300" lon="-108.34171100"><time>2016-05-25T11:18:35-05:00</time></trkpt>
  987. <trkpt lat="36.73590300" lon="-108.33425200"><time>2016-05-25T11:30:32-05:00</time></trkpt>
  988. <trkpt lat="36.73270200" lon="-108.32181300"><time>2016-05-25T11:42:31-05:00</time></trkpt>
  989. <trkpt lat="36.73193800" lon="-108.31133600"><time>2016-05-25T11:54:30-05:00</time></trkpt>
  990. <trkpt lat="36.73557300" lon="-108.29876000"><time>2016-05-25T12:06:29-05:00</time></trkpt>
  991. <trkpt lat="36.73881400" lon="-108.28758700"><time>2016-05-25T12:18:28-05:00</time></trkpt>
  992. <trkpt lat="36.73960800" lon="-108.27253900"><time>2016-05-25T12:30:29-05:00</time></trkpt>
  993. <trkpt lat="36.73840300" lon="-108.26448200"><time>2016-05-25T12:42:26-05:00</time></trkpt>
  994. <trkpt lat="36.73199400" lon="-108.23740800"><time>2016-05-25T12:54:26-05:00</time></trkpt>
  995. <trkpt lat="36.73130900" lon="-108.23154800"><time>2016-05-25T13:06:25-05:00</time></trkpt>
  996. <trkpt lat="36.73119200" lon="-108.23099200"><time>2016-05-25T13:18:24-05:00</time></trkpt>
  997. <trkpt lat="36.73125600" lon="-108.23099400"><time>2016-05-25T13:30:24-05:00</time></trkpt>
  998. <trkpt lat="36.73125600" lon="-108.23099400"><time>2016-05-25T13:42:23-05:00</time></trkpt>
  999. <trkpt lat="36.72925800" lon="-108.22171700"><time>2016-05-25T13:54:23-05:00</time></trkpt>
  1000. <trkpt lat="36.72896700" lon="-108.20960900"><time>2016-05-25T14:06:25-05:00</time></trkpt>
  1001. <trkpt lat="36.72911400" lon="-108.20503300"><time>2016-05-25T14:24:21-05:00</time></trkpt>
  1002. <trkpt lat="36.72864800" lon="-108.20484900"><time>2016-05-25T14:36:08-05:00</time></trkpt>
  1003. <trkpt lat="36.72864800" lon="-108.20484900"><time>2016-05-25T14:48:08-05:00</time></trkpt>
  1004. <trkpt lat="36.72888200" lon="-108.20499000"><time>2016-05-25T15:00:10-05:00</time></trkpt>
  1005. <trkpt lat="36.72863500" lon="-108.20490900"><time>2016-05-25T15:12:05-05:00</time></trkpt>
  1006. <trkpt lat="36.72863500" lon="-108.20490900"><time>2016-05-25T15:24:04-05:00</time></trkpt>
  1007. <trkpt lat="36.72863500" lon="-108.20490900"><time>2016-05-25T15:36:03-05:00</time></trkpt>
  1008. <trkpt lat="36.72893900" lon="-108.20490400"><time>2016-05-25T15:48:10-05:00</time></trkpt>
  1009. <trkpt lat="36.72848500" lon="-108.19808700"><time>2016-05-25T15:59:59-05:00</time></trkpt>
  1010. <trkpt lat="36.72884300" lon="-108.19582600"><time>2016-05-25T16:11:29-05:00</time></trkpt>
  1011. <trkpt lat="36.72821400" lon="-108.19734600"><time>2016-05-25T16:21:57-05:00</time></trkpt>
  1012. <trkpt lat="36.72871200" lon="-108.19585100"><time>2016-05-25T16:33:21-05:00</time></trkpt>
  1013. <trkpt lat="36.72871200" lon="-108.19585100"><time>2016-05-25T16:45:21-05:00</time></trkpt>
  1014. <trkpt lat="36.72494800" lon="-108.18910200"><time>2016-05-25T16:57:20-05:00</time></trkpt>
  1015. <trkpt lat="36.71922100" lon="-108.17937600"><time>2016-05-25T17:09:19-05:00</time></trkpt>
  1016. <trkpt lat="36.71912000" lon="-108.17533900"><time>2016-05-25T17:22:04-05:00</time></trkpt>
  1017. <trkpt lat="36.71898900" lon="-108.17526000"><time>2016-05-25T17:33:04-05:00</time></trkpt>
  1018. <trkpt lat="36.71957900" lon="-108.18532400"><time>2016-05-25T17:46:24-05:00</time></trkpt>
  1019. <trkpt lat="36.71940900" lon="-108.18524600"><time>2016-05-25T18:05:38-05:00</time></trkpt>
  1020. <trkpt lat="36.71959400" lon="-108.18528300"><time>2016-05-25T18:21:10-05:00</time></trkpt>
  1021. <trkpt lat="36.71936100" lon="-108.18459900"><time>2016-05-25T19:01:04-05:00</time></trkpt>
  1022. <trkpt lat="36.71831400" lon="-108.17560200"><time>2016-05-25T19:12:55-05:00</time></trkpt>
  1023. <trkpt lat="36.71831400" lon="-108.17560200"><time>2016-05-25T19:45:17-05:00</time></trkpt>
  1024. <trkpt lat="36.71831400" lon="-108.17560200"><time>2016-05-25T20:24:56-05:00</time></trkpt>
  1025. <trkpt lat="36.71822300" lon="-108.17567100"><time>2016-05-25T23:45:23-05:00</time></trkpt>
  1026. <trkpt lat="36.71892900" lon="-108.17515900"><time>2016-05-25T23:57:06-05:00</time></trkpt>
  1027. <trkpt lat="36.71924100" lon="-108.16991600"><time>2016-05-26T00:09:24-05:00</time></trkpt>
  1028. <trkpt lat="36.71088400" lon="-108.13931900"><time>2016-05-26T00:21:03-05:00</time></trkpt>
  1029. <trkpt lat="36.70390000" lon="-108.10507300"><time>2016-05-26T00:33:01-05:00</time></trkpt>
  1030. <trkpt lat="36.70037700" lon="-108.08184800"><time>2016-05-26T00:45:04-05:00</time></trkpt>
  1031. <trkpt lat="36.70104900" lon="-108.06123900"><time>2016-05-26T00:57:00-05:00</time></trkpt>
  1032. <trkpt lat="36.70055900" lon="-108.04126200"><time>2016-05-26T01:09:00-05:00</time></trkpt>
  1033. <trkpt lat="36.71111500" lon="-108.00622500"><time>2016-05-26T01:20:59-05:00</time></trkpt>
  1034. <trkpt lat="36.71118200" lon="-107.97008400"><time>2016-05-26T01:32:59-05:00</time></trkpt>
  1035. <trkpt lat="36.71503300" lon="-107.93319700"><time>2016-05-26T01:45:08-05:00</time></trkpt>
  1036. <trkpt lat="36.71545200" lon="-107.89780200"><time>2016-05-26T01:57:07-05:00</time></trkpt>
  1037. <trkpt lat="36.71126800" lon="-107.86099900"><time>2016-05-26T02:08:56-05:00</time></trkpt>
  1038. <trkpt lat="36.72364700" lon="-107.82781300"><time>2016-05-26T02:21:25-05:00</time></trkpt>
  1039. <trkpt lat="36.72415900" lon="-107.81798500"><time>2016-05-26T02:45:56-05:00</time></trkpt>
  1040. <trkpt lat="36.73297700" lon="-107.78357200"><time>2016-05-26T02:58:31-05:00</time></trkpt>
  1041. <trkpt lat="36.73646800" lon="-107.74724900"><time>2016-05-26T03:11:07-05:00</time></trkpt>
  1042. <trkpt lat="36.73918400" lon="-107.71106100"><time>2016-05-26T03:24:11-05:00</time></trkpt>
  1043. <trkpt lat="36.73222900" lon="-107.68740000"><time>2016-05-26T03:35:26-05:00</time></trkpt>
  1044. <trkpt lat="36.72923500" lon="-107.65478200"><time>2016-05-26T03:47:23-05:00</time></trkpt>
  1045. <trkpt lat="36.73304500" lon="-107.64043400"><time>2016-05-26T03:59:15-05:00</time></trkpt>
  1046. <trkpt lat="36.73343000" lon="-107.63236100"><time>2016-05-26T06:48:24-05:00</time></trkpt>
  1047. <trkpt lat="36.75023400" lon="-107.61588300"><time>2016-05-26T06:58:53-05:00</time></trkpt>
  1048. <trkpt lat="36.74640300" lon="-107.58420500"><time>2016-05-26T07:10:53-05:00</time></trkpt>
  1049. <trkpt lat="36.72766600" lon="-107.56320100"><time>2016-05-26T07:22:51-05:00</time></trkpt>
  1050. <trkpt lat="36.71377200" lon="-107.53444900"><time>2016-05-26T07:34:52-05:00</time></trkpt>
  1051. <trkpt lat="36.70749000" lon="-107.50122900"><time>2016-05-26T07:46:49-05:00</time></trkpt>
  1052. <trkpt lat="36.69622400" lon="-107.47219200"><time>2016-05-26T07:58:47-05:00</time></trkpt>
  1053. <trkpt lat="36.69426000" lon="-107.46033200"><time>2016-05-26T08:10:46-05:00</time></trkpt>
  1054. <trkpt lat="36.68757600" lon="-107.42271400"><time>2016-05-26T08:22:45-05:00</time></trkpt>
  1055. <trkpt lat="36.68676300" lon="-107.39746400"><time>2016-05-26T08:34:04-05:00</time></trkpt>
  1056. <trkpt lat="36.70221700" lon="-107.37860100"><time>2016-05-26T08:46:03-05:00</time></trkpt>
  1057. <trkpt lat="36.71269300" lon="-107.34983900"><time>2016-05-26T08:58:02-05:00</time></trkpt>
  1058. <trkpt lat="36.71535800" lon="-107.32633900"><time>2016-05-26T09:10:01-05:00</time></trkpt>
  1059. <trkpt lat="36.70884500" lon="-107.31202800"><time>2016-05-26T09:21:59-05:00</time></trkpt>
  1060. <trkpt lat="36.70991000" lon="-107.30244400"><time>2016-05-26T09:55:51-05:00</time></trkpt>
  1061. <trkpt lat="36.72377200" lon="-107.28053500"><time>2016-05-26T10:05:57-05:00</time></trkpt>
  1062. <trkpt lat="36.73448100" lon="-107.27051800"><time>2016-05-26T10:17:43-05:00</time></trkpt>
  1063. <trkpt lat="36.73581900" lon="-107.25269000"><time>2016-05-26T10:29:42-05:00</time></trkpt>
  1064. <trkpt lat="36.74103200" lon="-107.23820300"><time>2016-05-26T10:42:05-05:00</time></trkpt>
  1065. <trkpt lat="36.74243000" lon="-107.22924200"><time>2016-05-26T11:03:14-05:00</time></trkpt>
  1066. <trkpt lat="36.74549300" lon="-107.21983900"><time>2016-05-26T11:20:04-05:00</time></trkpt>
  1067. <trkpt lat="36.75817000" lon="-107.20226100"><time>2016-05-26T11:32:02-05:00</time></trkpt>
  1068. <trkpt lat="36.76109500" lon="-107.19347800"><time>2016-05-26T11:43:07-05:00</time></trkpt>
  1069. <trkpt lat="36.76545200" lon="-107.18071900"><time>2016-05-26T11:55:06-05:00</time></trkpt>
  1070. <trkpt lat="36.77218900" lon="-107.16253700"><time>2016-05-26T12:07:39-05:00</time></trkpt>
  1071. <trkpt lat="36.77680500" lon="-107.14975400"><time>2016-05-26T12:19:26-05:00</time></trkpt>
  1072. <trkpt lat="36.77680500" lon="-107.14975400"><time>2016-05-26T12:34:43-05:00</time></trkpt>
  1073. <trkpt lat="36.77730500" lon="-107.14656400"><time>2016-05-26T12:59:39-05:00</time></trkpt>
  1074. <trkpt lat="36.77932400" lon="-107.13456900"><time>2016-05-26T13:11:38-05:00</time></trkpt>
  1075. <trkpt lat="36.78210300" lon="-107.12256300"><time>2016-05-26T13:23:36-05:00</time></trkpt>
  1076. <trkpt lat="36.78287300" lon="-107.11082800"><time>2016-05-26T13:35:35-05:00</time></trkpt>
  1077. <trkpt lat="36.78181700" lon="-107.09966400"><time>2016-05-26T13:47:57-05:00</time></trkpt>
  1078. <trkpt lat="36.78318400" lon="-107.08642800"><time>2016-05-26T13:59:56-05:00</time></trkpt>
  1079. <trkpt lat="36.78038100" lon="-107.07955300"><time>2016-05-26T14:12:20-05:00</time></trkpt>
  1080. <trkpt lat="36.78370400" lon="-107.07490000"><time>2016-05-26T14:24:18-05:00</time></trkpt>
  1081. <trkpt lat="36.78767000" lon="-107.06341600"><time>2016-05-26T14:36:17-05:00</time></trkpt>
  1082. <trkpt lat="36.79333500" lon="-107.04476400"><time>2016-05-26T14:48:39-05:00</time></trkpt>
  1083. <trkpt lat="36.80024700" lon="-107.03616300"><time>2016-05-26T15:00:38-05:00</time></trkpt>
  1084. <trkpt lat="36.80853400" lon="-107.03507200"><time>2016-05-26T15:13:01-05:00</time></trkpt>
  1085. <trkpt lat="36.82834700" lon="-107.03237800"><time>2016-05-26T15:25:01-05:00</time></trkpt>
  1086. <trkpt lat="36.83752700" lon="-107.01772900"><time>2016-05-26T15:36:57-05:00</time></trkpt>
  1087. <trkpt lat="36.85110300" lon="-107.01265300"><time>2016-05-26T15:48:58-05:00</time></trkpt>
  1088. <trkpt lat="36.85784900" lon="-107.00419800"><time>2016-05-26T16:00:58-05:00</time></trkpt>
  1089. <trkpt lat="36.86938100" lon="-107.00195900"><time>2016-05-26T16:12:56-05:00</time></trkpt>
  1090. <trkpt lat="36.87384600" lon="-107.00356300"><time>2016-05-26T16:24:59-05:00</time></trkpt>
  1091. <trkpt lat="36.87688400" lon="-107.00408100"><time>2016-05-26T16:36:53-05:00</time></trkpt>
  1092. <trkpt lat="36.88616800" lon="-107.00288500"><time>2016-05-26T16:47:52-05:00</time></trkpt>
  1093. <trkpt lat="36.89972700" lon="-107.00573100"><time>2016-05-26T16:59:42-05:00</time></trkpt>
  1094. <trkpt lat="36.90959900" lon="-107.00094100"><time>2016-05-26T17:11:42-05:00</time></trkpt>
  1095. <trkpt lat="36.91718000" lon="-106.99257700"><time>2016-05-26T17:23:42-05:00</time></trkpt>
  1096. <trkpt lat="36.92069800" lon="-106.99126100"><time>2016-05-26T17:35:38-05:00</time></trkpt>
  1097. <trkpt lat="36.92982000" lon="-106.98832200"><time>2016-05-26T17:47:37-05:00</time></trkpt>
  1098. <trkpt lat="36.93374100" lon="-106.98818300"><time>2016-05-26T23:19:58-05:00</time></trkpt>
  1099. <trkpt lat="36.93377000" lon="-106.96155900"><time>2016-05-26T23:36:14-05:00</time></trkpt>
  1100. <trkpt lat="36.93373900" lon="-106.93011600"><time>2016-05-26T23:48:09-05:00</time></trkpt>
  1101. <trkpt lat="36.93418700" lon="-106.92101800"><time>2016-05-26T23:58:28-05:00</time></trkpt>
  1102. <trkpt lat="36.93732800" lon="-106.89816500"><time>2016-05-27T00:09:08-05:00</time></trkpt>
  1103. <trkpt lat="36.92604500" lon="-106.87912300"><time>2016-05-27T00:21:05-05:00</time></trkpt>
  1104. <trkpt lat="36.90470800" lon="-106.85703300"><time>2016-05-27T00:33:05-05:00</time></trkpt>
  1105. <trkpt lat="36.89682000" lon="-106.84096400"><time>2016-05-27T00:45:04-05:00</time></trkpt>
  1106. <trkpt lat="36.89754000" lon="-106.81925400"><time>2016-05-27T00:57:01-05:00</time></trkpt>
  1107. <trkpt lat="36.90476100" lon="-106.79102100"><time>2016-05-27T01:09:00-05:00</time></trkpt>
  1108. <trkpt lat="36.89510400" lon="-106.77327100"><time>2016-05-27T01:21:34-05:00</time></trkpt>
  1109. <trkpt lat="36.88691600" lon="-106.74018000"><time>2016-05-27T01:33:31-05:00</time></trkpt>
  1110. <trkpt lat="36.88303500" lon="-106.72044800"><time>2016-05-27T01:45:30-05:00</time></trkpt>
  1111. <trkpt lat="36.88303500" lon="-106.72044800"><time>2016-05-27T02:11:13-05:00</time></trkpt>
  1112. <trkpt lat="36.88043700" lon="-106.70249000"><time>2016-05-27T02:21:29-05:00</time></trkpt>
  1113. <trkpt lat="36.87351800" lon="-106.66817200"><time>2016-05-27T02:33:28-05:00</time></trkpt>
  1114. <trkpt lat="36.88148800" lon="-106.64121700"><time>2016-05-27T02:45:28-05:00</time></trkpt>
  1115. <trkpt lat="36.88130600" lon="-106.64123100"><time>2016-05-27T02:55:48-05:00</time></trkpt>
  1116. <trkpt lat="36.88192000" lon="-106.64051100"><time>2016-05-27T03:18:46-05:00</time></trkpt>
  1117. <trkpt lat="36.88624600" lon="-106.61572500"><time>2016-05-27T03:30:22-05:00</time></trkpt>
  1118. <trkpt lat="36.88357800" lon="-106.60157600"><time>2016-05-27T03:42:20-05:00</time></trkpt>
  1119. <trkpt lat="36.88809100" lon="-106.59115100"><time>2016-05-27T03:54:19-05:00</time></trkpt>
  1120. <trkpt lat="36.88899700" lon="-106.59020800"><time>2016-05-27T04:06:18-05:00</time></trkpt>
  1121. <trkpt lat="36.89399000" lon="-106.58526800"><time>2016-05-27T04:18:18-05:00</time></trkpt>
  1122. <trkpt lat="36.90881300" lon="-106.57760200"><time>2016-05-27T04:50:34-05:00</time></trkpt>
  1123. <trkpt lat="36.91709800" lon="-106.56423900"><time>2016-05-27T05:02:20-05:00</time></trkpt>
  1124. <trkpt lat="36.93738300" lon="-106.55153200"><time>2016-05-27T05:14:20-05:00</time></trkpt>
  1125. <trkpt lat="36.95370800" lon="-106.53854800"><time>2016-05-27T05:26:20-05:00</time></trkpt>
  1126. <trkpt lat="36.96380000" lon="-106.52332800"><time>2016-05-27T05:38:20-05:00</time></trkpt>
  1127. <trkpt lat="36.97467900" lon="-106.51335000"><time>2016-05-27T06:39:48-05:00</time></trkpt>
  1128. <trkpt lat="36.99057000" lon="-106.50463600"><time>2016-05-27T06:50:07-05:00</time></trkpt>
  1129. <trkpt lat="36.99585800" lon="-106.49713200"><time>2016-05-27T07:02:07-05:00</time></trkpt>
  1130. <trkpt lat="37.00378900" lon="-106.47728100"><time>2016-05-27T07:14:06-05:00</time></trkpt>
  1131. <trkpt lat="37.01744000" lon="-106.45799600"><time>2016-05-27T07:26:05-05:00</time></trkpt>
  1132. <trkpt lat="37.02151900" lon="-106.44660900"><time>2016-05-27T07:38:02-05:00</time></trkpt>
  1133. <trkpt lat="37.01939000" lon="-106.41612500"><time>2016-05-27T07:50:01-05:00</time></trkpt>
  1134. <trkpt lat="37.03259700" lon="-106.41291200"><time>2016-05-27T08:10:07-05:00</time></trkpt>
  1135. <trkpt lat="37.03260400" lon="-106.41289600"><time>2016-05-27T08:40:37-05:00</time></trkpt>
  1136. <trkpt lat="37.05152700" lon="-106.39801300"><time>2016-05-27T09:11:10-05:00</time></trkpt>
  1137. <trkpt lat="37.11071500" lon="-106.37184100"><time>2016-05-27T09:41:44-05:00</time></trkpt>
  1138. <trkpt lat="37.11795200" lon="-106.37066000"><time>2016-05-27T09:54:56-05:00</time></trkpt>
  1139. <trkpt lat="37.13043500" lon="-106.34101700"><time>2016-05-27T10:06:55-05:00</time></trkpt>
  1140. <trkpt lat="37.11637300" lon="-106.32233300"><time>2016-05-27T10:24:37-05:00</time></trkpt>
  1141. <trkpt lat="37.09546100" lon="-106.30541000"><time>2016-05-27T10:36:35-05:00</time></trkpt>
  1142. <trkpt lat="37.08853400" lon="-106.30249600"><time>2016-05-27T10:48:58-05:00</time></trkpt>
  1143. <trkpt lat="37.08618600" lon="-106.30178400"><time>2016-05-27T11:00:57-05:00</time></trkpt>
  1144. <trkpt lat="37.07961300" lon="-106.29504200"><time>2016-05-27T11:12:56-05:00</time></trkpt>
  1145. <trkpt lat="37.07488900" lon="-106.28177200"><time>2016-05-27T11:25:18-05:00</time></trkpt>
  1146. <trkpt lat="37.07259300" lon="-106.26329200"><time>2016-05-27T11:37:17-05:00</time></trkpt>
  1147. <trkpt lat="37.07037500" lon="-106.25455900"><time>2016-05-27T11:49:42-05:00</time></trkpt>
  1148. <trkpt lat="37.06870300" lon="-106.24515800"><time>2016-05-27T12:01:40-05:00</time></trkpt>
  1149. <trkpt lat="37.06775700" lon="-106.23343800"><time>2016-05-27T12:13:38-05:00</time></trkpt>
  1150. <trkpt lat="37.06792100" lon="-106.22105100"><time>2016-05-27T12:26:00-05:00</time></trkpt>
  1151. <trkpt lat="37.06741300" lon="-106.21198400"><time>2016-05-27T12:38:00-05:00</time></trkpt>
  1152. <trkpt lat="37.06676900" lon="-106.20106800"><time>2016-05-27T12:49:59-05:00</time></trkpt>
  1153. <trkpt lat="37.06564600" lon="-106.19693000"><time>2016-05-27T13:02:00-05:00</time></trkpt>
  1154. <trkpt lat="37.05745200" lon="-106.19015900"><time>2016-05-27T13:13:56-05:00</time></trkpt>
  1155. <trkpt lat="37.05353800" lon="-106.18041700"><time>2016-05-27T13:25:55-05:00</time></trkpt>
  1156. <trkpt lat="37.05368700" lon="-106.18025000"><time>2016-05-27T13:37:55-05:00</time></trkpt>
  1157. <trkpt lat="37.05349100" lon="-106.18046300"><time>2016-05-27T13:49:02-05:00</time></trkpt>
  1158. <trkpt lat="37.05308600" lon="-106.17321900"><time>2016-05-27T14:01:52-05:00</time></trkpt>
  1159. <trkpt lat="37.05441300" lon="-106.15523500"><time>2016-05-27T14:13:50-05:00</time></trkpt>
  1160. <trkpt lat="37.05735700" lon="-106.13548300"><time>2016-05-27T14:25:48-05:00</time></trkpt>
  1161. <trkpt lat="37.06455400" lon="-106.12005600"><time>2016-05-27T14:37:47-05:00</time></trkpt>
  1162. <trkpt lat="37.06459500" lon="-106.10694700"><time>2016-05-27T14:49:47-05:00</time></trkpt>
  1163. <trkpt lat="37.06357500" lon="-106.09965300"><time>2016-05-27T15:26:54-05:00</time></trkpt>
  1164. <trkpt lat="37.06233200" lon="-106.08015900"><time>2016-05-27T15:38:39-05:00</time></trkpt>
  1165. <trkpt lat="37.06432200" lon="-106.06076500"><time>2016-05-27T15:50:40-05:00</time></trkpt>
  1166. <trkpt lat="37.06451300" lon="-106.04606900"><time>2016-05-27T16:02:46-05:00</time></trkpt>
  1167. <trkpt lat="37.06523600" lon="-106.02780800"><time>2016-05-27T16:14:40-05:00</time></trkpt>
  1168. <trkpt lat="37.06898400" lon="-106.01516500"><time>2016-05-27T16:26:38-05:00</time></trkpt>
  1169. <trkpt lat="37.07529600" lon="-106.00876500"><time>2016-05-27T16:53:17-05:00</time></trkpt>
  1170. <trkpt lat="37.10301300" lon="-106.00639000"><time>2016-05-27T23:43:50-05:00</time></trkpt>
  1171. <trkpt lat="37.11684900" lon="-106.00289600"><time>2016-05-27T23:54:40-05:00</time></trkpt>
  1172. <trkpt lat="37.13076000" lon="-105.99921900"><time>2016-05-28T00:06:40-05:00</time></trkpt>
  1173. <trkpt lat="37.15971600" lon="-105.99152700"><time>2016-05-28T00:18:38-05:00</time></trkpt>
  1174. <trkpt lat="37.17427000" lon="-105.98717700"><time>2016-05-28T00:30:37-05:00</time></trkpt>
  1175. <trkpt lat="37.17420800" lon="-105.96744200"><time>2016-05-28T00:42:36-05:00</time></trkpt>
  1176. <trkpt lat="37.17379700" lon="-105.94039900"><time>2016-05-28T00:54:36-05:00</time></trkpt>
  1177. <trkpt lat="37.17370400" lon="-105.90399600"><time>2016-05-28T01:06:34-05:00</time></trkpt>
  1178. <trkpt lat="37.17542900" lon="-105.87327200"><time>2016-05-28T01:18:33-05:00</time></trkpt>
  1179. <trkpt lat="37.17546000" lon="-105.84285300"><time>2016-05-28T01:30:32-05:00</time></trkpt>
  1180. <trkpt lat="37.17551400" lon="-105.80763900"><time>2016-05-28T01:42:31-05:00</time></trkpt>
  1181. <trkpt lat="37.17763100" lon="-105.76906200"><time>2016-05-28T01:54:30-05:00</time></trkpt>
  1182. <trkpt lat="37.17808000" lon="-105.76444000"><time>2016-05-28T02:07:42-05:00</time></trkpt>
  1183. <trkpt lat="37.18059100" lon="-105.72973800"><time>2016-05-28T02:18:26-05:00</time></trkpt>
  1184. <trkpt lat="37.17836900" lon="-105.69757000"><time>2016-05-28T02:30:26-05:00</time></trkpt>
  1185. <trkpt lat="37.18003300" lon="-105.66313500"><time>2016-05-28T02:42:25-05:00</time></trkpt>
  1186. <trkpt lat="37.17966100" lon="-105.65202100"><time>2016-05-28T03:13:08-05:00</time></trkpt>
  1187. <trkpt lat="37.18093500" lon="-105.62159100"><time>2016-05-28T03:24:18-05:00</time></trkpt>
  1188. <trkpt lat="37.18476300" lon="-105.58743500"><time>2016-05-28T03:36:18-05:00</time></trkpt>
  1189. <trkpt lat="37.20569100" lon="-105.57623900"><time>2016-05-28T03:48:16-05:00</time></trkpt>
  1190. <trkpt lat="37.21370500" lon="-105.55155500"><time>2016-05-28T04:00:16-05:00</time></trkpt>
  1191. <trkpt lat="37.21695300" lon="-105.48875800"><time>2016-05-28T04:32:17-05:00</time></trkpt>
  1192. <trkpt lat="37.21660300" lon="-105.46601900"><time>2016-05-28T04:45:10-05:00</time></trkpt>
  1193. <trkpt lat="37.20999700" lon="-105.44402600"><time>2016-05-28T04:57:09-05:00</time></trkpt>
  1194. <trkpt lat="37.19973800" lon="-105.42582700"><time>2016-05-28T05:23:02-05:00</time></trkpt>
  1195. <trkpt lat="37.19973800" lon="-105.42582700"><time>2016-05-28T05:34:52-05:00</time></trkpt>
  1196. <trkpt lat="37.19973800" lon="-105.42582700"><time>2016-05-28T06:09:59-05:00</time></trkpt>
  1197. <trkpt lat="37.19983400" lon="-105.42571100"><time>2016-05-28T06:54:27-05:00</time></trkpt>
  1198. <trkpt lat="37.20207300" lon="-105.42556600"><time>2016-05-28T07:06:09-05:00</time></trkpt>
  1199. <trkpt lat="37.23157300" lon="-105.42786600"><time>2016-05-28T07:18:08-05:00</time></trkpt>
  1200. <trkpt lat="37.26284300" lon="-105.43247500"><time>2016-05-28T07:30:06-05:00</time></trkpt>
  1201. <trkpt lat="37.29343600" lon="-105.43326700"><time>2016-05-28T07:42:05-05:00</time></trkpt>
  1202. <trkpt lat="37.32130000" lon="-105.43301800"><time>2016-05-28T07:54:06-05:00</time></trkpt>
  1203. <trkpt lat="37.32125600" lon="-105.43306600"><time>2016-05-28T08:06:06-05:00</time></trkpt>
  1204. <trkpt lat="37.32920700" lon="-105.43294500"><time>2016-05-28T08:18:01-05:00</time></trkpt>
  1205. <trkpt lat="37.34156200" lon="-105.43278700"><time>2016-05-28T08:30:00-05:00</time></trkpt>
  1206. <trkpt lat="37.35576500" lon="-105.43255400"><time>2016-05-28T08:41:59-05:00</time></trkpt>
  1207. <trkpt lat="37.36600100" lon="-105.43239700"><time>2016-05-28T08:53:59-05:00</time></trkpt>
  1208. <trkpt lat="37.37413900" lon="-105.43231700"><time>2016-05-28T09:05:57-05:00</time></trkpt>
  1209. <trkpt lat="37.38433500" lon="-105.43222900"><time>2016-05-28T09:17:56-05:00</time></trkpt>
  1210. <trkpt lat="37.40516000" lon="-105.43209200"><time>2016-05-28T10:24:31-05:00</time></trkpt>
  1211. <trkpt lat="37.41308000" lon="-105.43204300"><time>2016-05-28T10:35:44-05:00</time></trkpt>
  1212. <trkpt lat="37.41921000" lon="-105.43202300"><time>2016-05-28T10:47:44-05:00</time></trkpt>
  1213. <trkpt lat="37.42654400" lon="-105.43130500"><time>2016-05-28T10:59:43-05:00</time></trkpt>
  1214. <trkpt lat="37.42654400" lon="-105.43130500"><time>2016-05-28T11:18:16-05:00</time></trkpt>
  1215. <trkpt lat="37.42630600" lon="-105.42916100"><time>2016-05-28T11:29:43-05:00</time></trkpt>
  1216. <trkpt lat="37.42650400" lon="-105.42922200"><time>2016-05-28T11:41:43-05:00</time></trkpt>
  1217. <trkpt lat="37.42632800" lon="-105.42913500"><time>2016-05-28T11:53:38-05:00</time></trkpt>
  1218. <trkpt lat="37.42632800" lon="-105.42913500"><time>2016-05-28T12:03:45-05:00</time></trkpt>
  1219. <trkpt lat="37.42760500" lon="-105.41492000"><time>2016-05-28T12:14:39-05:00</time></trkpt>
  1220. <trkpt lat="37.43062300" lon="-105.40020500"><time>2016-05-28T12:26:36-05:00</time></trkpt>
  1221. <trkpt lat="37.43659600" lon="-105.38821500"><time>2016-05-28T12:38:36-05:00</time></trkpt>
  1222. <trkpt lat="37.44620400" lon="-105.37631400"><time>2016-05-28T12:50:34-05:00</time></trkpt>
  1223. <trkpt lat="37.45525700" lon="-105.36541900"><time>2016-05-28T13:02:34-05:00</time></trkpt>
  1224. <trkpt lat="37.46324200" lon="-105.35570100"><time>2016-05-28T13:14:32-05:00</time></trkpt>
  1225. <trkpt lat="37.47342500" lon="-105.34973700"><time>2016-05-28T13:26:32-05:00</time></trkpt>
  1226. <trkpt lat="37.47797200" lon="-105.34682900"><time>2016-05-28T13:38:40-05:00</time></trkpt>
  1227. <trkpt lat="37.47801100" lon="-105.34705400"><time>2016-05-28T13:50:34-05:00</time></trkpt>
  1228. <trkpt lat="37.47801100" lon="-105.34705400"><time>2016-05-28T14:02:35-05:00</time></trkpt>
  1229. <trkpt lat="37.47807400" lon="-105.34716100"><time>2016-05-28T14:13:10-05:00</time></trkpt>
  1230. <trkpt lat="37.47807400" lon="-105.34716100"><time>2016-05-28T14:24:58-05:00</time></trkpt>
  1231. <trkpt lat="37.48310900" lon="-105.34450100"><time>2016-05-28T14:37:26-05:00</time></trkpt>
  1232. <trkpt lat="37.49208900" lon="-105.33964600"><time>2016-05-28T14:49:22-05:00</time></trkpt>
  1233. <trkpt lat="37.49867200" lon="-105.33032000"><time>2016-05-28T15:01:21-05:00</time></trkpt>
  1234. <trkpt lat="37.50570600" lon="-105.32164700"><time>2016-05-28T15:13:17-05:00</time></trkpt>
  1235. <trkpt lat="37.50959600" lon="-105.31684000"><time>2016-05-28T15:25:20-05:00</time></trkpt>
  1236. <trkpt lat="37.51431900" lon="-105.31107100"><time>2016-05-28T15:37:19-05:00</time></trkpt>
  1237. <trkpt lat="37.51949300" lon="-105.30014500"><time>2016-05-28T15:49:18-05:00</time></trkpt>
  1238. <trkpt lat="37.52703300" lon="-105.29732600"><time>2016-05-28T16:01:00-05:00</time></trkpt>
  1239. <trkpt lat="37.53521200" lon="-105.29264100"><time>2016-05-28T16:15:47-05:00</time></trkpt>
  1240. <trkpt lat="37.54343100" lon="-105.28653100"><time>2016-05-28T16:27:16-05:00</time></trkpt>
  1241. <trkpt lat="37.55475000" lon="-105.28633800"><time>2016-05-28T16:39:13-05:00</time></trkpt>
  1242. <trkpt lat="37.56405900" lon="-105.28444200"><time>2016-05-28T16:51:11-05:00</time></trkpt>
  1243. <trkpt lat="37.57258600" lon="-105.27638600"><time>2016-05-28T17:03:11-05:00</time></trkpt>
  1244. <trkpt lat="37.57281500" lon="-105.27634600"><time>2016-05-28T17:13:32-05:00</time></trkpt>
  1245. <trkpt lat="37.57281500" lon="-105.27634600"><time>2016-05-28T17:48:53-05:00</time></trkpt>
  1246. <trkpt lat="37.57271700" lon="-105.27632800"><time>2016-05-28T18:04:24-05:00</time></trkpt>
  1247. <trkpt lat="37.57275700" lon="-105.27632600"><time>2016-05-28T18:19:55-05:00</time></trkpt>
  1248. <trkpt lat="37.57273900" lon="-105.27640200"><time>2016-05-28T18:35:24-05:00</time></trkpt>
  1249. <trkpt lat="37.57270600" lon="-105.27639300"><time>2016-05-28T19:16:19-05:00</time></trkpt>
  1250. <trkpt lat="37.57276800" lon="-105.27631300"><time>2016-05-28T19:31:47-05:00</time></trkpt>
  1251. <trkpt lat="37.57264700" lon="-105.27637100"><time>2016-05-28T19:47:17-05:00</time></trkpt>
  1252. <trkpt lat="37.57272000" lon="-105.27627000"><time>2016-05-28T20:02:48-05:00</time></trkpt>
  1253. <trkpt lat="37.57273600" lon="-105.27634500"><time>2016-05-28T20:33:34-05:00</time></trkpt>
  1254. <trkpt lat="37.57268200" lon="-105.27634100"><time>2016-05-28T21:04:23-05:00</time></trkpt>
  1255. <trkpt lat="37.57268500" lon="-105.27636100"><time>2016-05-28T21:28:47-05:00</time></trkpt>
  1256. <trkpt lat="37.57275500" lon="-105.27634800"><time>2016-05-28T21:55:06-05:00</time></trkpt>
  1257. <trkpt lat="37.57275100" lon="-105.27628200"><time>2016-05-28T22:10:37-05:00</time></trkpt>
  1258. <trkpt lat="37.57275400" lon="-105.27630300"><time>2016-05-28T22:26:06-05:00</time></trkpt>
  1259. <trkpt lat="37.57272600" lon="-105.27622000"><time>2016-05-28T22:41:35-05:00</time></trkpt>
  1260. <trkpt lat="37.57268200" lon="-105.27629100"><time>2016-05-28T22:57:04-05:00</time></trkpt>
  1261. <trkpt lat="37.57276500" lon="-105.27640700"><time>2016-05-28T23:28:34-05:00</time></trkpt>
  1262. <trkpt lat="37.57267900" lon="-105.27635700"><time>2016-05-28T23:44:03-05:00</time></trkpt>
  1263. <trkpt lat="37.57275100" lon="-105.27637100"><time>2016-05-28T23:59:32-05:00</time></trkpt>
  1264. <trkpt lat="37.57267100" lon="-105.27640400"><time>2016-05-29T00:15:02-05:00</time></trkpt>
  1265. <trkpt lat="37.57525800" lon="-105.27392900"><time>2016-05-29T00:30:29-05:00</time></trkpt>
  1266. <trkpt lat="37.60761300" lon="-105.18265400"><time>2016-05-29T01:08:57-05:00</time></trkpt>
  1267. <trkpt lat="37.57713000" lon="-105.17231300"><time>2016-05-29T01:20:54-05:00</time></trkpt>
  1268. <trkpt lat="37.56030200" lon="-105.13745900"><time>2016-05-29T01:32:53-05:00</time></trkpt>
  1269. <trkpt lat="37.54927100" lon="-105.09790400"><time>2016-05-29T01:44:52-05:00</time></trkpt>
  1270. <trkpt lat="37.54818800" lon="-105.09435700"><time>2016-05-29T02:01:32-05:00</time></trkpt>
  1271. <trkpt lat="37.54119900" lon="-105.06433700"><time>2016-05-29T02:11:48-05:00</time></trkpt>
  1272. <trkpt lat="37.54322400" lon="-105.02672000"><time>2016-05-29T02:23:47-05:00</time></trkpt>
  1273. <trkpt lat="37.54834800" lon="-104.98775000"><time>2016-05-29T02:35:46-05:00</time></trkpt>
  1274. <trkpt lat="37.55478900" lon="-104.94929100"><time>2016-05-29T02:47:45-05:00</time></trkpt>
  1275. <trkpt lat="37.57327600" lon="-104.92153500"><time>2016-05-29T02:59:43-05:00</time></trkpt>
  1276. <trkpt lat="37.58505500" lon="-104.89726300"><time>2016-05-29T03:11:43-05:00</time></trkpt>
  1277. <trkpt lat="37.58529000" lon="-104.89614800"><time>2016-05-29T03:45:25-05:00</time></trkpt>
  1278. <trkpt lat="37.59368300" lon="-104.86589400"><time>2016-05-29T03:56:36-05:00</time></trkpt>
  1279. <trkpt lat="37.60191900" lon="-104.83141800"><time>2016-05-29T04:08:36-05:00</time></trkpt>
  1280. <trkpt lat="37.61153900" lon="-104.80616200"><time>2016-05-29T04:20:35-05:00</time></trkpt>
  1281. <trkpt lat="37.61265600" lon="-104.80399300"><time>2016-05-29T05:57:03-05:00</time></trkpt>
  1282. <trkpt lat="37.62387900" lon="-104.78086900"><time>2016-05-29T06:08:17-05:00</time></trkpt>
  1283. <trkpt lat="37.63995400" lon="-104.75103400"><time>2016-05-29T06:20:16-05:00</time></trkpt>
  1284. <trkpt lat="37.65576500" lon="-104.71875400"><time>2016-05-29T06:32:15-05:00</time></trkpt>
  1285. <trkpt lat="37.66696600" lon="-104.68585300"><time>2016-05-29T06:44:13-05:00</time></trkpt>
  1286. <trkpt lat="37.67873800" lon="-104.65591700"><time>2016-05-29T06:56:13-05:00</time></trkpt>
  1287. <trkpt lat="37.69404300" lon="-104.62738900"><time>2016-05-29T07:08:11-05:00</time></trkpt>
  1288. <trkpt lat="37.69876500" lon="-104.61270300"><time>2016-05-29T07:28:46-05:00</time></trkpt>
  1289. <trkpt lat="37.70932300" lon="-104.57972400"><time>2016-05-29T07:41:07-05:00</time></trkpt>
  1290. <trkpt lat="37.72100300" lon="-104.54711900"><time>2016-05-29T07:53:06-05:00</time></trkpt>
  1291. <trkpt lat="37.73530400" lon="-104.51256900"><time>2016-05-29T08:05:06-05:00</time></trkpt>
  1292. <trkpt lat="37.74403500" lon="-104.49137600"><time>2016-05-29T08:17:30-05:00</time></trkpt>
  1293. <trkpt lat="37.74625300" lon="-104.48590800"><time>2016-05-29T08:27:35-05:00</time></trkpt>
  1294. <trkpt lat="37.75915100" lon="-104.45674200"><time>2016-05-29T08:38:02-05:00</time></trkpt>
  1295. <trkpt lat="37.76910000" lon="-104.42180400"><time>2016-05-29T08:50:01-05:00</time></trkpt>
  1296. <trkpt lat="37.77066000" lon="-104.41621800"><time>2016-05-29T09:00:41-05:00</time></trkpt>
  1297. <trkpt lat="37.78794200" lon="-104.35188300"><time>2016-05-29T09:46:00-05:00</time></trkpt>
  1298. <trkpt lat="37.79272900" lon="-104.33355900"><time>2016-05-29T09:58:52-05:00</time></trkpt>
  1299. <trkpt lat="37.79346800" lon="-104.33106900"><time>2016-05-29T10:53:48-05:00</time></trkpt>
  1300. <trkpt lat="37.79622000" lon="-104.32117700"><time>2016-05-29T11:04:42-05:00</time></trkpt>
  1301. <trkpt lat="37.80126500" lon="-104.30973000"><time>2016-05-29T11:16:41-05:00</time></trkpt>
  1302. <trkpt lat="37.80929300" lon="-104.29154700"><time>2016-05-29T11:28:40-05:00</time></trkpt>
  1303. <trkpt lat="37.81718200" lon="-104.27358100"><time>2016-05-29T11:40:39-05:00</time></trkpt>
  1304. <trkpt lat="37.82059800" lon="-104.26571400"><time>2016-05-29T11:52:38-05:00</time></trkpt>
  1305. <trkpt lat="37.82610200" lon="-104.25296900"><time>2016-05-29T12:04:39-05:00</time></trkpt>
  1306. <trkpt lat="37.83584900" lon="-104.23077800"><time>2016-05-29T12:16:38-05:00</time></trkpt>
  1307. <trkpt lat="37.83590700" lon="-104.23055500"><time>2016-05-29T12:28:41-05:00</time></trkpt>
  1308. <trkpt lat="37.83896400" lon="-104.22386600"><time>2016-05-29T12:40:41-05:00</time></trkpt>
  1309. <trkpt lat="37.84376900" lon="-104.21293100"><time>2016-05-29T12:52:35-05:00</time></trkpt>
  1310. <trkpt lat="37.84897000" lon="-104.20317000"><time>2016-05-29T13:04:31-05:00</time></trkpt>
  1311. <trkpt lat="37.85418200" lon="-104.19255700"><time>2016-05-29T13:16:30-05:00</time></trkpt>
  1312. <trkpt lat="37.85799300" lon="-104.17991400"><time>2016-05-29T13:28:29-05:00</time></trkpt>
  1313. <trkpt lat="37.86154300" lon="-104.16802200"><time>2016-05-29T13:40:28-05:00</time></trkpt>
  1314. <trkpt lat="37.86152200" lon="-104.16733800"><time>2016-05-29T13:52:28-05:00</time></trkpt>
  1315. <trkpt lat="37.86152200" lon="-104.16733800"><time>2016-05-29T14:04:25-05:00</time></trkpt>
  1316. <trkpt lat="37.86152200" lon="-104.16733800"><time>2016-05-29T15:13:51-05:00</time></trkpt>
  1317. <trkpt lat="37.86197400" lon="-104.16655500"><time>2016-05-29T16:14:43-05:00</time></trkpt>
  1318. <trkpt lat="37.86491000" lon="-104.15495600"><time>2016-05-29T16:26:28-05:00</time></trkpt>
  1319. <trkpt lat="37.86706700" lon="-104.14032700"><time>2016-05-29T16:38:27-05:00</time></trkpt>
  1320. <trkpt lat="37.86997600" lon="-104.12661400"><time>2016-05-29T16:50:25-05:00</time></trkpt>
  1321. <trkpt lat="37.87368900" lon="-104.11486700"><time>2016-05-29T17:02:25-05:00</time></trkpt>
  1322. <trkpt lat="37.87747000" lon="-104.10261500"><time>2016-05-29T17:14:25-05:00</time></trkpt>
  1323. <trkpt lat="37.88113400" lon="-104.09006100"><time>2016-05-29T17:26:23-05:00</time></trkpt>
  1324. <trkpt lat="37.88301000" lon="-104.08646500"><time>2016-05-29T17:38:21-05:00</time></trkpt>
  1325. <trkpt lat="37.88275700" lon="-104.08701100"><time>2016-05-29T17:50:42-05:00</time></trkpt>
  1326. <trkpt lat="37.88275700" lon="-104.08701100"><time>2016-05-29T18:03:00-05:00</time></trkpt>
  1327. <trkpt lat="37.88275700" lon="-104.08701100"><time>2016-05-29T18:14:21-05:00</time></trkpt>
  1328. <trkpt lat="37.88275700" lon="-104.08701100"><time>2016-05-29T18:26:31-05:00</time></trkpt>
  1329. <trkpt lat="37.88293200" lon="-104.08688800"><time>2016-05-29T18:39:12-05:00</time></trkpt>
  1330. <trkpt lat="37.88273700" lon="-104.08682800"><time>2016-05-29T18:50:19-05:00</time></trkpt>
  1331. <trkpt lat="37.88294200" lon="-104.08673900"><time>2016-05-29T19:02:13-05:00</time></trkpt>
  1332. <trkpt lat="37.88275000" lon="-104.08638400"><time>2016-05-29T19:14:13-05:00</time></trkpt>
  1333. <trkpt lat="37.88275000" lon="-104.08638400"><time>2016-05-29T19:26:12-05:00</time></trkpt>
  1334. <trkpt lat="37.88275000" lon="-104.08638400"><time>2016-05-29T19:36:49-05:00</time></trkpt>
  1335. <trkpt lat="37.88275000" lon="-104.08638400"><time>2016-05-29T19:49:12-05:00</time></trkpt>
  1336. <trkpt lat="37.88275000" lon="-104.08638400"><time>2016-05-29T22:23:26-05:00</time></trkpt>
  1337. <trkpt lat="37.88275000" lon="-104.08638400"><time>2016-05-29T22:53:52-05:00</time></trkpt>
  1338. <trkpt lat="37.88279100" lon="-104.08644400"><time>2016-05-29T23:06:22-05:00</time></trkpt>
  1339. <trkpt lat="37.88320300" lon="-104.08251300"><time>2016-05-29T23:18:11-05:00</time></trkpt>
  1340. <trkpt lat="37.89204000" lon="-104.05162400"><time>2016-05-29T23:30:11-05:00</time></trkpt>
  1341. <trkpt lat="37.90473600" lon="-104.01981400"><time>2016-05-29T23:42:09-05:00</time></trkpt>
  1342. <trkpt lat="37.91029700" lon="-103.98740100"><time>2016-05-29T23:54:02-05:00</time></trkpt>
  1343. <trkpt lat="37.92557500" lon="-103.95310900"><time>2016-05-30T00:06:23-05:00</time></trkpt>
  1344. <trkpt lat="37.93694500" lon="-103.91923300"><time>2016-05-30T00:18:22-05:00</time></trkpt>
  1345. <trkpt lat="37.94768700" lon="-103.88726000"><time>2016-05-30T00:30:21-05:00</time></trkpt>
  1346. <trkpt lat="37.95862300" lon="-103.85456600"><time>2016-05-30T00:42:20-05:00</time></trkpt>
  1347. <trkpt lat="37.97008600" lon="-103.82047500"><time>2016-05-30T00:54:19-05:00</time></trkpt>
  1348. <trkpt lat="37.98120500" lon="-103.78712000"><time>2016-05-30T01:06:18-05:00</time></trkpt>
  1349. <trkpt lat="37.98232600" lon="-103.74978200"><time>2016-05-30T01:18:18-05:00</time></trkpt>
  1350. <trkpt lat="37.98237300" lon="-103.74243800"><time>2016-05-30T01:42:15-05:00</time></trkpt>
  1351. <trkpt lat="37.98235000" lon="-103.70541500"><time>2016-05-30T01:54:13-05:00</time></trkpt>
  1352. <trkpt lat="37.98226800" lon="-103.67037200"><time>2016-05-30T02:06:13-05:00</time></trkpt>
  1353. <trkpt lat="37.98221900" lon="-103.64864600"><time>2016-05-30T02:18:33-05:00</time></trkpt>
  1354. <trkpt lat="37.98202200" lon="-103.62392200"><time>2016-05-30T02:33:29-05:00</time></trkpt>
  1355. <trkpt lat="37.98229500" lon="-103.58951700"><time>2016-05-30T02:45:06-05:00</time></trkpt>
  1356. <trkpt lat="37.98883300" lon="-103.56351600"><time>2016-05-30T02:57:06-05:00</time></trkpt>
  1357. <trkpt lat="37.98792700" lon="-103.54392900"><time>2016-05-30T03:09:05-05:00</time></trkpt>
  1358. <trkpt lat="37.98793400" lon="-103.53859600"><time>2016-05-30T03:19:16-05:00</time></trkpt>
  1359. <trkpt lat="37.98796100" lon="-103.53729700"><time>2016-05-30T04:39:22-05:00</time></trkpt>
  1360. <trkpt lat="37.98645900" lon="-103.52472600"><time>2016-05-30T04:50:50-05:00</time></trkpt>
  1361. <trkpt lat="37.99412000" lon="-103.48956500"><time>2016-05-30T05:02:48-05:00</time></trkpt>
  1362. <trkpt lat="38.00812000" lon="-103.45827800"><time>2016-05-30T05:14:47-05:00</time></trkpt>
  1363. <trkpt lat="38.02834300" lon="-103.43250500"><time>2016-05-30T05:26:46-05:00</time></trkpt>
  1364. <trkpt lat="38.03890300" lon="-103.39814700"><time>2016-05-30T05:38:44-05:00</time></trkpt>
  1365. <trkpt lat="38.04909200" lon="-103.36334900"><time>2016-05-30T05:50:44-05:00</time></trkpt>
  1366. <trkpt lat="38.05807000" lon="-103.32735900"><time>2016-05-30T06:02:43-05:00</time></trkpt>
  1367. <trkpt lat="38.05998700" lon="-103.28934500"><time>2016-05-30T06:14:43-05:00</time></trkpt>
  1368. <trkpt lat="38.06024400" lon="-103.28412100"><time>2016-05-30T06:25:52-05:00</time></trkpt>
  1369. <trkpt lat="38.06043100" lon="-103.28136400"><time>2016-05-30T06:54:58-05:00</time></trkpt>
  1370. <trkpt lat="38.06178200" lon="-103.24872600"><time>2016-05-30T07:05:36-05:00</time></trkpt>
  1371. <trkpt lat="38.06948700" lon="-103.21974000"><time>2016-05-30T07:17:35-05:00</time></trkpt>
  1372. <trkpt lat="38.08809800" lon="-103.20518500"><time>2016-05-30T07:29:32-05:00</time></trkpt>
  1373. <trkpt lat="38.09141700" lon="-103.16755100"><time>2016-05-30T07:41:31-05:00</time></trkpt>
  1374. <trkpt lat="38.09712200" lon="-103.14968600"><time>2016-05-30T08:01:04-05:00</time></trkpt>
  1375. <trkpt lat="38.10628200" lon="-103.11959500"><time>2016-05-30T08:11:28-05:00</time></trkpt>
  1376. <trkpt lat="38.11232100" lon="-103.09496600"><time>2016-05-30T08:23:27-05:00</time></trkpt>
  1377. <trkpt lat="38.11327000" lon="-103.07989600"><time>2016-05-30T08:35:27-05:00</time></trkpt>
  1378. <trkpt lat="38.11339900" lon="-103.06732900"><time>2016-05-30T08:47:24-05:00</time></trkpt>
  1379. <trkpt lat="38.11345900" lon="-103.06611700"><time>2016-05-30T08:59:23-05:00</time></trkpt>
  1380. <trkpt lat="38.11346700" lon="-103.06176300"><time>2016-05-30T09:11:22-05:00</time></trkpt>
  1381. <trkpt lat="38.11346700" lon="-103.06176300"><time>2016-05-30T09:23:22-05:00</time></trkpt>
  1382. <trkpt lat="38.11346700" lon="-103.06176300"><time>2016-05-30T09:35:06-05:00</time></trkpt>
  1383. <trkpt lat="38.11346700" lon="-103.06176300"><time>2016-05-30T09:58:28-05:00</time></trkpt>
  1384. <trkpt lat="38.11338500" lon="-103.05719400"><time>2016-05-30T11:13:35-05:00</time></trkpt>
  1385. <trkpt lat="38.11335700" lon="-103.03079800"><time>2016-05-30T11:26:03-05:00</time></trkpt>
  1386. <trkpt lat="38.11345700" lon="-103.01701900"><time>2016-05-30T11:38:04-05:00</time></trkpt>
  1387. <trkpt lat="38.11352200" lon="-103.00549400"><time>2016-05-30T11:50:00-05:00</time></trkpt>
  1388. <trkpt lat="38.11361800" lon="-102.99703300"><time>2016-05-30T12:02:00-05:00</time></trkpt>
  1389. <trkpt lat="38.11358800" lon="-102.99188000"><time>2016-05-30T12:13:59-05:00</time></trkpt>
  1390. <trkpt lat="38.11363900" lon="-102.98896500"><time>2016-05-30T12:38:38-05:00</time></trkpt>
  1391. <trkpt lat="38.11351300" lon="-102.97510500"><time>2016-05-30T12:49:55-05:00</time></trkpt>
  1392. <trkpt lat="38.11284000" lon="-102.95684900"><time>2016-05-30T13:01:55-05:00</time></trkpt>
  1393. <trkpt lat="38.11358100" lon="-102.95696600"><time>2016-05-30T13:14:10-05:00</time></trkpt>
  1394. <trkpt lat="38.11354600" lon="-102.95225400"><time>2016-05-30T13:25:53-05:00</time></trkpt>
  1395. <trkpt lat="38.11343600" lon="-102.95196000"><time>2016-05-30T13:37:59-05:00</time></trkpt>
  1396. <trkpt lat="38.11365000" lon="-102.94583100"><time>2016-05-30T13:49:53-05:00</time></trkpt>
  1397. <trkpt lat="38.11419500" lon="-102.93400800"><time>2016-05-30T14:10:23-05:00</time></trkpt>
  1398. <trkpt lat="38.11426600" lon="-102.92816400"><time>2016-05-30T14:22:48-05:00</time></trkpt>
  1399. <trkpt lat="38.11430900" lon="-102.91500700"><time>2016-05-30T14:34:46-05:00</time></trkpt>
  1400. <trkpt lat="38.11435200" lon="-102.90499600"><time>2016-05-30T14:46:48-05:00</time></trkpt>
  1401. <trkpt lat="38.11449600" lon="-102.89235300"><time>2016-05-30T14:58:46-05:00</time></trkpt>
  1402. <trkpt lat="38.11319600" lon="-102.88780000"><time>2016-05-30T15:10:46-05:00</time></trkpt>
  1403. <trkpt lat="38.11332300" lon="-102.88786100"><time>2016-05-30T15:23:09-05:00</time></trkpt>
  1404. <trkpt lat="38.11430200" lon="-102.88781900"><time>2016-05-30T21:40:04-05:00</time></trkpt>
  1405. <trkpt lat="38.11400500" lon="-102.85435100"><time>2016-05-30T21:51:19-05:00</time></trkpt>
  1406. <trkpt lat="38.11420000" lon="-102.81631100"><time>2016-05-30T22:03:18-05:00</time></trkpt>
  1407. <trkpt lat="38.11422500" lon="-102.80012400"><time>2016-05-30T22:15:16-05:00</time></trkpt>
  1408. <trkpt lat="38.11441900" lon="-102.76584800"><time>2016-05-30T22:27:15-05:00</time></trkpt>
  1409. <trkpt lat="38.11410700" lon="-102.72810600"><time>2016-05-30T22:39:14-05:00</time></trkpt>
  1410. <trkpt lat="38.10878000" lon="-102.69283200"><time>2016-05-30T22:51:12-05:00</time></trkpt>
  1411. <trkpt lat="38.10882200" lon="-102.69225200"><time>2016-05-30T23:03:02-05:00</time></trkpt>
  1412. <trkpt lat="38.11003200" lon="-102.67559800"><time>2016-05-30T23:15:10-05:00</time></trkpt>
  1413. <trkpt lat="38.11291600" lon="-102.63837200"><time>2016-05-30T23:27:09-05:00</time></trkpt>
  1414. <trkpt lat="38.11403300" lon="-102.63118000"><time>2016-05-31T00:07:51-05:00</time></trkpt>
  1415. <trkpt lat="38.11563900" lon="-102.62167100"><time>2016-05-31T00:24:35-05:00</time></trkpt>
  1416. <trkpt lat="38.09197900" lon="-102.61961500"><time>2016-05-31T00:37:31-05:00</time></trkpt>
  1417. <trkpt lat="38.08846100" lon="-102.60744800"><time>2016-05-31T00:49:29-05:00</time></trkpt>
  1418. <trkpt lat="38.08758500" lon="-102.60197400"><time>2016-05-31T01:08:04-05:00</time></trkpt>
  1419. <trkpt lat="38.08765600" lon="-102.60226700"><time>2016-05-31T01:18:21-05:00</time></trkpt>
  1420. <trkpt lat="38.08846800" lon="-102.60113200"><time>2016-05-31T01:30:22-05:00</time></trkpt>
  1421. <trkpt lat="38.08956100" lon="-102.59374800"><time>2016-05-31T01:40:27-05:00</time></trkpt>
  1422. <trkpt lat="38.09234100" lon="-102.56014500"><time>2016-05-31T01:51:18-05:00</time></trkpt>
  1423. <trkpt lat="38.09251900" lon="-102.52160400"><time>2016-05-31T02:03:17-05:00</time></trkpt>
  1424. <trkpt lat="38.09235000" lon="-102.48384000"><time>2016-05-31T02:15:16-05:00</time></trkpt>
  1425. <trkpt lat="38.09152900" lon="-102.44706500"><time>2016-05-31T02:27:15-05:00</time></trkpt>
  1426. <trkpt lat="38.08463200" lon="-102.40940800"><time>2016-05-31T02:39:14-05:00</time></trkpt>
  1427. <trkpt lat="38.07351900" lon="-102.37426900"><time>2016-05-31T02:51:12-05:00</time></trkpt>
  1428. <trkpt lat="38.06389100" lon="-102.34165200"><time>2016-05-31T03:03:11-05:00</time></trkpt>
  1429. <trkpt lat="38.06166500" lon="-102.30291700"><time>2016-05-31T03:15:10-05:00</time></trkpt>
  1430. <trkpt lat="38.05172700" lon="-102.26776200"><time>2016-05-31T03:27:10-05:00</time></trkpt>
  1431. <trkpt lat="38.05376000" lon="-102.24564000"><time>2016-05-31T03:39:09-05:00</time></trkpt>
  1432. <trkpt lat="38.05431500" lon="-102.24112000"><time>2016-05-31T05:54:35-05:00</time></trkpt>
  1433. <trkpt lat="38.05713200" lon="-102.20691300"><time>2016-05-31T06:05:44-05:00</time></trkpt>
  1434. <trkpt lat="38.05705100" lon="-102.17037800"><time>2016-05-31T06:17:43-05:00</time></trkpt>
  1435. <trkpt lat="38.05342700" lon="-102.13502100"><time>2016-05-31T06:29:41-05:00</time></trkpt>
  1436. <trkpt lat="38.05343500" lon="-102.11061000"><time>2016-05-31T06:41:41-05:00</time></trkpt>
  1437. <trkpt lat="38.05352600" lon="-102.09447000"><time>2016-05-31T06:52:46-05:00</time></trkpt>
  1438. <trkpt lat="38.05098300" lon="-102.05563200"><time>2016-05-31T07:05:39-05:00</time></trkpt>
  1439. <trkpt lat="38.04785200" lon="-102.04423000"><time>2016-05-31T07:17:37-05:00</time></trkpt>
  1440. <trkpt lat="38.04138200" lon="-102.01446400"><time>2016-05-31T07:29:35-05:00</time></trkpt>
  1441. <trkpt lat="38.03383000" lon="-101.97792800"><time>2016-05-31T07:41:36-05:00</time></trkpt>
  1442. <trkpt lat="38.03194500" lon="-101.96696300"><time>2016-05-31T07:53:35-05:00</time></trkpt>
  1443. <trkpt lat="38.02588800" lon="-101.93111800"><time>2016-05-31T08:05:38-05:00</time></trkpt>
  1444. <trkpt lat="38.02395700" lon="-101.92024400"><time>2016-05-31T08:17:32-05:00</time></trkpt>
  1445. <trkpt lat="38.02198000" lon="-101.91146400"><time>2016-05-31T08:33:10-05:00</time></trkpt>
  1446. <trkpt lat="38.01392200" lon="-101.88033800"><time>2016-05-31T08:44:28-05:00</time></trkpt>
  1447. <trkpt lat="38.00635400" lon="-101.85289600"><time>2016-05-31T08:56:28-05:00</time></trkpt>
  1448. <trkpt lat="38.00077500" lon="-101.83192200"><time>2016-05-31T09:08:26-05:00</time></trkpt>
  1449. <trkpt lat="38.00018000" lon="-101.82949700"><time>2016-05-31T09:20:25-05:00</time></trkpt>
  1450. <trkpt lat="37.99728200" lon="-101.81868800"><time>2016-05-31T09:32:25-05:00</time></trkpt>
  1451. <trkpt lat="37.99420500" lon="-101.80710300"><time>2016-05-31T09:44:23-05:00</time></trkpt>
  1452. <trkpt lat="37.99112300" lon="-101.79554700"><time>2016-05-31T09:56:22-05:00</time></trkpt>
  1453. <trkpt lat="37.98819900" lon="-101.78490300"><time>2016-05-31T10:08:22-05:00</time></trkpt>
  1454. <trkpt lat="37.98761600" lon="-101.78276100"><time>2016-05-31T10:20:06-05:00</time></trkpt>
  1455. <trkpt lat="37.98460800" lon="-101.77163400"><time>2016-05-31T10:32:03-05:00</time></trkpt>
  1456. <trkpt lat="37.98281700" lon="-101.76081200"><time>2016-05-31T10:43:55-05:00</time></trkpt>
  1457. <trkpt lat="37.98012300" lon="-101.75126900"><time>2016-05-31T10:55:41-05:00</time></trkpt>
  1458. <trkpt lat="37.98171700" lon="-101.75288200"><time>2016-05-31T11:11:17-05:00</time></trkpt>
  1459. <trkpt lat="37.98153500" lon="-101.75268300"><time>2016-05-31T11:24:05-05:00</time></trkpt>
  1460. <trkpt lat="37.98189300" lon="-101.75250000"><time>2016-05-31T11:39:06-05:00</time></trkpt>
  1461. <trkpt lat="37.98149700" lon="-101.75271400"><time>2016-05-31T11:49:14-05:00</time></trkpt>
  1462. <trkpt lat="37.97977600" lon="-101.74892000"><time>2016-05-31T12:00:32-05:00</time></trkpt>
  1463. <trkpt lat="37.97613300" lon="-101.73719200"><time>2016-05-31T12:12:30-05:00</time></trkpt>
  1464. <trkpt lat="37.97253900" lon="-101.72412600"><time>2016-05-31T12:25:20-05:00</time></trkpt>
  1465. <trkpt lat="37.97182000" lon="-101.72236000"><time>2016-05-31T12:40:35-05:00</time></trkpt>
  1466. <trkpt lat="37.97178100" lon="-101.72134100"><time>2016-05-31T12:50:47-05:00</time></trkpt>
  1467. <trkpt lat="37.97198400" lon="-101.72156500"><time>2016-05-31T13:02:00-05:00</time></trkpt>
  1468. <trkpt lat="37.97198400" lon="-101.72156500"><time>2016-05-31T13:14:01-05:00</time></trkpt>
  1469. <trkpt lat="37.97205200" lon="-101.72161000"><time>2016-05-31T13:25:19-05:00</time></trkpt>
  1470. <trkpt lat="37.97205200" lon="-101.72161000"><time>2016-05-31T13:37:18-05:00</time></trkpt>
  1471. <trkpt lat="37.97205200" lon="-101.72161000"><time>2016-05-31T13:48:28-05:00</time></trkpt>
  1472. <trkpt lat="37.97205800" lon="-101.72163500"><time>2016-05-31T14:00:51-05:00</time></trkpt>
  1473. <trkpt lat="37.97003400" lon="-101.71149200"><time>2016-05-31T14:12:50-05:00</time></trkpt>
  1474. <trkpt lat="37.96810700" lon="-101.70184700"><time>2016-05-31T14:22:53-05:00</time></trkpt>
  1475. <trkpt lat="37.96810700" lon="-101.70184700"><time>2016-05-31T14:34:41-05:00</time></trkpt>
  1476. <trkpt lat="37.96682100" lon="-101.69602800"><time>2016-05-31T14:46:39-05:00</time></trkpt>
  1477. <trkpt lat="37.96491500" lon="-101.68595700"><time>2016-05-31T14:59:22-05:00</time></trkpt>
  1478. <trkpt lat="37.96220200" lon="-101.67228200"><time>2016-05-31T15:11:20-05:00</time></trkpt>
  1479. <trkpt lat="37.95955100" lon="-101.65910900"><time>2016-05-31T15:24:15-05:00</time></trkpt>
  1480. <trkpt lat="37.95752400" lon="-101.64869100"><time>2016-05-31T15:36:02-05:00</time></trkpt>
  1481. <trkpt lat="37.95561800" lon="-101.63949800"><time>2016-05-31T15:47:59-05:00</time></trkpt>
  1482. <trkpt lat="37.95362700" lon="-101.62929000"><time>2016-05-31T16:00:42-05:00</time></trkpt>
  1483. <trkpt lat="37.95174700" lon="-101.62023200"><time>2016-05-31T16:12:41-05:00</time></trkpt>
  1484. <trkpt lat="37.95104200" lon="-101.61699100"><time>2016-05-31T16:52:49-05:00</time></trkpt>
  1485. <trkpt lat="37.95109100" lon="-101.61708100"><time>2016-05-31T17:23:32-05:00</time></trkpt>
  1486. <trkpt lat="37.95106100" lon="-101.61691200"><time>2016-05-31T17:54:17-05:00</time></trkpt>
  1487. <trkpt lat="37.95103800" lon="-101.61690800"><time>2016-05-31T18:25:02-05:00</time></trkpt>
  1488. <trkpt lat="37.95101700" lon="-101.61689600"><time>2016-05-31T18:53:50-05:00</time></trkpt>
  1489. <trkpt lat="37.95105800" lon="-101.61687900"><time>2016-05-31T19:05:08-05:00</time></trkpt>
  1490. <trkpt lat="37.95105800" lon="-101.61687900"><time>2016-05-31T19:26:31-05:00</time></trkpt>
  1491. <trkpt lat="37.95103000" lon="-101.61685000"><time>2016-05-31T19:57:15-05:00</time></trkpt>
  1492. <trkpt lat="37.95108900" lon="-101.61690000"><time>2016-05-31T20:27:59-05:00</time></trkpt>
  1493. <trkpt lat="37.95105200" lon="-101.61691200"><time>2016-05-31T20:58:44-05:00</time></trkpt>
  1494. <trkpt lat="37.95103300" lon="-101.61688500"><time>2016-05-31T21:29:30-05:00</time></trkpt>
  1495. <trkpt lat="37.95104500" lon="-101.61687300"><time>2016-05-31T21:52:14-05:00</time></trkpt>
  1496. <trkpt lat="37.95106200" lon="-101.61687800"><time>2016-05-31T22:03:48-05:00</time></trkpt>
  1497. <trkpt lat="37.95106200" lon="-101.61687800"><time>2016-05-31T22:30:59-05:00</time></trkpt>
  1498. <trkpt lat="37.95105000" lon="-101.61689700"><time>2016-05-31T23:01:43-05:00</time></trkpt>
  1499. <trkpt lat="37.95101400" lon="-101.61689800"><time>2016-05-31T23:14:30-05:00</time></trkpt>
  1500. <trkpt lat="37.94777700" lon="-101.60087000"><time>2016-05-31T23:41:23-05:00</time></trkpt>
  1501. <trkpt lat="37.94376600" lon="-101.56093600"><time>2016-05-31T23:54:21-05:00</time></trkpt>
  1502. <trkpt lat="37.94395600" lon="-101.52531000"><time>2016-06-01T00:06:20-05:00</time></trkpt>
  1503. <trkpt lat="37.94382600" lon="-101.49062200"><time>2016-06-01T00:19:04-05:00</time></trkpt>
  1504. <trkpt lat="37.94389400" lon="-101.45428400"><time>2016-06-01T00:31:04-05:00</time></trkpt>
  1505. <trkpt lat="37.94399600" lon="-101.41721300"><time>2016-06-01T00:43:02-05:00</time></trkpt>
  1506. <trkpt lat="37.94407600" lon="-101.37401200"><time>2016-06-01T00:55:45-05:00</time></trkpt>
  1507. <trkpt lat="37.94405400" lon="-101.33738600"><time>2016-06-01T01:07:44-05:00</time></trkpt>
  1508. <trkpt lat="37.94409600" lon="-101.30445700"><time>2016-06-01T01:18:05-05:00</time></trkpt>
  1509. <trkpt lat="37.94415300" lon="-101.27300200"><time>2016-06-01T01:38:51-05:00</time></trkpt>
  1510. <trkpt lat="37.95246800" lon="-101.24414100"><time>2016-06-01T01:49:11-05:00</time></trkpt>
  1511. <trkpt lat="37.96467900" lon="-101.20997300"><time>2016-06-01T02:00:58-05:00</time></trkpt>
  1512. <trkpt lat="37.97356900" lon="-101.17446700"><time>2016-06-01T02:12:56-05:00</time></trkpt>
  1513. <trkpt lat="37.97373200" lon="-101.15455200"><time>2016-06-01T02:25:48-05:00</time></trkpt>
  1514. <trkpt lat="37.97373200" lon="-101.15455200"><time>2016-06-01T02:47:22-05:00</time></trkpt>
  1515. <trkpt lat="37.97383400" lon="-101.15454400"><time>2016-06-01T03:15:41-05:00</time></trkpt>
  1516. <trkpt lat="37.97807700" lon="-101.14436300"><time>2016-06-01T03:31:37-05:00</time></trkpt>
  1517. <trkpt lat="38.00114800" lon="-101.12055100"><time>2016-06-01T03:43:35-05:00</time></trkpt>
  1518. <trkpt lat="38.00316700" lon="-101.08753900"><time>2016-06-01T03:53:53-05:00</time></trkpt>
  1519. <trkpt lat="38.00341100" lon="-101.05063600"><time>2016-06-01T04:06:16-05:00</time></trkpt>
  1520. <trkpt lat="38.00353800" lon="-101.01055300"><time>2016-06-01T04:18:20-05:00</time></trkpt>
  1521. <trkpt lat="38.00304300" lon="-100.97843900"><time>2016-06-01T04:28:22-05:00</time></trkpt>
  1522. <trkpt lat="38.00301500" lon="-100.94266900"><time>2016-06-01T04:40:07-05:00</time></trkpt>
  1523. <trkpt lat="38.00320300" lon="-100.90627500"><time>2016-06-01T04:52:07-05:00</time></trkpt>
  1524. <trkpt lat="38.00311700" lon="-100.87411800"><time>2016-06-01T05:04:58-05:00</time></trkpt>
  1525. <trkpt lat="38.00311700" lon="-100.87411800"><time>2016-06-01T05:26:30-05:00</time></trkpt>
  1526. <trkpt lat="38.00365600" lon="-100.86066200"><time>2016-06-01T05:49:05-05:00</time></trkpt>
  1527. <trkpt lat="37.98929700" lon="-100.83790400"><time>2016-06-01T06:00:59-05:00</time></trkpt>
  1528. <trkpt lat="38.00237200" lon="-100.81443500"><time>2016-06-01T06:12:45-05:00</time></trkpt>
  1529. <trkpt lat="38.01803900" lon="-100.78102100"><time>2016-06-01T06:24:45-05:00</time></trkpt>
  1530. <trkpt lat="38.03558000" lon="-100.74569000"><time>2016-06-01T06:37:37-05:00</time></trkpt>
  1531. <trkpt lat="38.05184000" lon="-100.71298800"><time>2016-06-01T06:49:37-05:00</time></trkpt>
  1532. <trkpt lat="38.06077300" lon="-100.69132700"><time>2016-06-01T07:02:43-05:00</time></trkpt>
  1533. <trkpt lat="38.06021300" lon="-100.63222500"><time>2016-06-01T07:29:55-05:00</time></trkpt>
  1534. <trkpt lat="38.05996700" lon="-100.61920200"><time>2016-06-01T08:00:52-05:00</time></trkpt>
  1535. <trkpt lat="38.05996600" lon="-100.61898400"><time>2016-06-01T08:31:45-05:00</time></trkpt>
  1536. <trkpt lat="38.06009100" lon="-100.61904900"><time>2016-06-01T09:02:36-05:00</time></trkpt>
  1537. <trkpt lat="38.06015500" lon="-100.61903100"><time>2016-06-01T09:33:25-05:00</time></trkpt>
  1538. <trkpt lat="38.06003600" lon="-100.60856700"><time>2016-06-01T09:43:32-05:00</time></trkpt>
  1539. <trkpt lat="38.05991300" lon="-100.57764000"><time>2016-06-01T09:55:31-05:00</time></trkpt>
  1540. <trkpt lat="38.05985500" lon="-100.56320700"><time>2016-06-01T10:07:52-05:00</time></trkpt>
  1541. <trkpt lat="38.05964300" lon="-100.54520300"><time>2016-06-01T10:19:39-05:00</time></trkpt>
  1542. <trkpt lat="38.05940000" lon="-100.52100800"><time>2016-06-01T10:31:37-05:00</time></trkpt>
  1543. <trkpt lat="38.05926100" lon="-100.50172300"><time>2016-06-01T10:44:34-05:00</time></trkpt>
  1544. <trkpt lat="38.05926100" lon="-100.50172300"><time>2016-06-01T10:56:34-05:00</time></trkpt>
  1545. <trkpt lat="38.05907800" lon="-100.48158000"><time>2016-06-01T11:09:08-05:00</time></trkpt>
  1546. <trkpt lat="38.05907800" lon="-100.48158000"><time>2016-06-01T11:20:55-05:00</time></trkpt>
  1547. <trkpt lat="38.05889400" lon="-100.46449100"><time>2016-06-01T11:32:54-05:00</time></trkpt>
  1548. <trkpt lat="38.05889600" lon="-100.45816200"><time>2016-06-01T11:45:38-05:00</time></trkpt>
  1549. <trkpt lat="38.05890300" lon="-100.43705400"><time>2016-06-01T11:57:37-05:00</time></trkpt>
  1550. <trkpt lat="38.05892900" lon="-100.42706500"><time>2016-06-01T12:10:43-05:00</time></trkpt>
  1551. <trkpt lat="38.05901600" lon="-100.41334000"><time>2016-06-01T12:22:30-05:00</time></trkpt>
  1552. <trkpt lat="38.05903300" lon="-100.40119400"><time>2016-06-01T12:34:28-05:00</time></trkpt>
  1553. <trkpt lat="38.05904400" lon="-100.39041800"><time>2016-06-01T12:47:21-05:00</time></trkpt>
  1554. <trkpt lat="38.05883600" lon="-100.39050200"><time>2016-06-01T12:59:20-05:00</time></trkpt>
  1555. <trkpt lat="38.05892300" lon="-100.39046500"><time>2016-06-01T13:12:24-05:00</time></trkpt>
  1556. <trkpt lat="38.05892300" lon="-100.39046500"><time>2016-06-01T13:39:40-05:00</time></trkpt>
  1557. <trkpt lat="38.05891900" lon="-100.39042500"><time>2016-06-01T14:10:33-05:00</time></trkpt>
  1558. <trkpt lat="38.05900900" lon="-100.38937500"><time>2016-06-01T14:41:24-05:00</time></trkpt>
  1559. <trkpt lat="38.05899900" lon="-100.37460000"><time>2016-06-01T14:53:46-05:00</time></trkpt>
  1560. <trkpt lat="38.05903000" lon="-100.35773100"><time>2016-06-01T15:05:46-05:00</time></trkpt>
  1561. <trkpt lat="38.05901400" lon="-100.34554800"><time>2016-06-01T15:15:49-05:00</time></trkpt>
  1562. <trkpt lat="38.05899300" lon="-100.33559400"><time>2016-06-01T15:27:36-05:00</time></trkpt>
  1563. <trkpt lat="38.05900900" lon="-100.32406000"><time>2016-06-01T15:39:36-05:00</time></trkpt>
  1564. <trkpt lat="38.05896500" lon="-100.31084300"><time>2016-06-01T15:52:31-05:00</time></trkpt>
  1565. <trkpt lat="38.05934300" lon="-100.29904900"><time>2016-06-01T16:04:30-05:00</time></trkpt>
  1566. <trkpt lat="38.05924700" lon="-100.29916900"><time>2016-06-01T16:44:54-05:00</time></trkpt>
  1567. <trkpt lat="38.05922600" lon="-100.29915300"><time>2016-06-01T17:15:44-05:00</time></trkpt>
  1568. <trkpt lat="38.05923800" lon="-100.29913500"><time>2016-06-01T17:46:36-05:00</time></trkpt>
  1569. <trkpt lat="38.05929600" lon="-100.29803900"><time>2016-06-01T18:17:27-05:00</time></trkpt>
  1570. <trkpt lat="38.05947200" lon="-100.29798500"><time>2016-06-01T18:48:19-05:00</time></trkpt>
  1571. <trkpt lat="38.05938900" lon="-100.29804200"><time>2016-06-01T19:19:12-05:00</time></trkpt>
  1572. <trkpt lat="38.05937400" lon="-100.29794500"><time>2016-06-01T19:50:06-05:00</time></trkpt>
  1573. <trkpt lat="38.05953200" lon="-100.29801100"><time>2016-06-01T20:20:58-05:00</time></trkpt>
  1574. <trkpt lat="38.05946200" lon="-100.29802400"><time>2016-06-01T20:51:50-05:00</time></trkpt>
  1575. <trkpt lat="38.05952500" lon="-100.29806100"><time>2016-06-01T21:22:42-05:00</time></trkpt>
  1576. <trkpt lat="38.05947000" lon="-100.29800600"><time>2016-06-01T21:53:34-05:00</time></trkpt>
  1577. <trkpt lat="38.05900300" lon="-100.27082300"><time>2016-06-01T22:22:42-05:00</time></trkpt>
  1578. <trkpt lat="38.05900700" lon="-100.24870700"><time>2016-06-01T22:33:49-05:00</time></trkpt>
  1579. <trkpt lat="38.06741800" lon="-100.21531800"><time>2016-06-01T22:45:49-05:00</time></trkpt>
  1580. <trkpt lat="38.07328100" lon="-100.17519800"><time>2016-06-01T22:58:52-05:00</time></trkpt>
  1581. <trkpt lat="38.07308500" lon="-100.13700800"><time>2016-06-01T23:10:39-05:00</time></trkpt>
  1582. <trkpt lat="38.07279200" lon="-100.10048400"><time>2016-06-01T23:22:38-05:00</time></trkpt>
  1583. <trkpt lat="38.07278800" lon="-100.09405000"><time>2016-06-01T23:48:17-05:00</time></trkpt>
  1584. <trkpt lat="38.07263700" lon="-100.08373200"><time>2016-06-02T00:00:18-05:00</time></trkpt>
  1585. <trkpt lat="38.07265000" lon="-100.05178400"><time>2016-06-02T00:12:04-05:00</time></trkpt>
  1586. <trkpt lat="38.07277400" lon="-100.01458500"><time>2016-06-02T00:24:05-05:00</time></trkpt>
  1587. <trkpt lat="38.07302000" lon="-99.99183400"><time>2016-06-02T00:34:12-05:00</time></trkpt>
  1588. <trkpt lat="38.08785000" lon="-99.96301900"><time>2016-06-02T00:46:12-05:00</time></trkpt>
  1589. <trkpt lat="38.08810900" lon="-99.92457700"><time>2016-06-02T00:58:11-05:00</time></trkpt>
  1590. <trkpt lat="38.08819500" lon="-99.88433100"><time>2016-06-02T01:11:03-05:00</time></trkpt>
  1591. <trkpt lat="38.08776200" lon="-99.84584300"><time>2016-06-02T01:23:02-05:00</time></trkpt>
  1592. <trkpt lat="38.09308500" lon="-99.81433400"><time>2016-06-02T01:33:05-05:00</time></trkpt>
  1593. <trkpt lat="38.09346100" lon="-99.77539400"><time>2016-06-02T01:44:54-05:00</time></trkpt>
  1594. <trkpt lat="38.09356500" lon="-99.76200800"><time>2016-06-02T02:00:19-05:00</time></trkpt>
  1595. <trkpt lat="38.09357200" lon="-99.76196100"><time>2016-06-02T02:31:07-05:00</time></trkpt>
  1596. <trkpt lat="38.09771300" lon="-99.74803500"><time>2016-06-02T02:44:23-05:00</time></trkpt>
  1597. <trkpt lat="38.11636000" lon="-99.72637100"><time>2016-06-02T02:56:23-05:00</time></trkpt>
  1598. <trkpt lat="38.13316200" lon="-99.69536100"><time>2016-06-02T03:08:15-05:00</time></trkpt>
  1599. <trkpt lat="38.15154300" lon="-99.66684400"><time>2016-06-02T03:20:14-05:00</time></trkpt>
  1600. <trkpt lat="38.15944700" lon="-99.63154600"><time>2016-06-02T03:32:14-05:00</time></trkpt>
  1601. <trkpt lat="38.16951700" lon="-99.59452700"><time>2016-06-02T03:44:55-05:00</time></trkpt>
  1602. <trkpt lat="38.17840600" lon="-99.57007500"><time>2016-06-02T03:56:54-05:00</time></trkpt>
  1603. <trkpt lat="38.18963600" lon="-99.54159200"><time>2016-06-02T04:07:00-05:00</time></trkpt>
  1604. <trkpt lat="38.18967900" lon="-99.50261500"><time>2016-06-02T04:18:47-05:00</time></trkpt>
  1605. <trkpt lat="38.18993900" lon="-99.46462600"><time>2016-06-02T04:30:46-05:00</time></trkpt>
  1606. <trkpt lat="38.18989300" lon="-99.42963500"><time>2016-06-02T04:40:59-05:00</time></trkpt>
  1607. <trkpt lat="38.18986500" lon="-99.42398800"><time>2016-06-02T05:05:28-05:00</time></trkpt>
  1608. <trkpt lat="38.18992800" lon="-99.41179000"><time>2016-06-02T05:36:22-05:00</time></trkpt>
  1609. <trkpt lat="38.18988200" lon="-99.34169300"><time>2016-06-02T05:58:48-05:00</time></trkpt>
  1610. <trkpt lat="38.18958500" lon="-99.30453800"><time>2016-06-02T06:10:49-05:00</time></trkpt>
  1611. <trkpt lat="38.18897200" lon="-99.27333900"><time>2016-06-02T06:22:38-05:00</time></trkpt>
  1612. <trkpt lat="38.18870900" lon="-99.24181300"><time>2016-06-02T06:34:34-05:00</time></trkpt>
  1613. <trkpt lat="38.18859100" lon="-99.21763600"><time>2016-06-02T06:47:26-05:00</time></trkpt>
  1614. <trkpt lat="38.18865900" lon="-99.21683300"><time>2016-06-02T06:59:26-05:00</time></trkpt>
  1615. <trkpt lat="38.18865000" lon="-99.19619200"><time>2016-06-02T07:23:11-05:00</time></trkpt>
  1616. <trkpt lat="38.18866000" lon="-99.17977400"><time>2016-06-02T07:35:08-05:00</time></trkpt>
  1617. <trkpt lat="38.18855900" lon="-99.17243500"><time>2016-06-02T07:46:08-05:00</time></trkpt>
  1618. <trkpt lat="38.18874600" lon="-99.16911300"><time>2016-06-02T08:10:44-05:00</time></trkpt>
  1619. <trkpt lat="38.18878700" lon="-99.13484100"><time>2016-06-02T08:41:38-05:00</time></trkpt>
  1620. <trkpt lat="38.18882300" lon="-99.12250300"><time>2016-06-02T08:54:00-05:00</time></trkpt>
  1621. <trkpt lat="38.18889000" lon="-99.11154000"><time>2016-06-02T09:05:59-05:00</time></trkpt>
  1622. <trkpt lat="38.18801200" lon="-99.09913100"><time>2016-06-02T09:16:12-05:00</time></trkpt>
  1623. <trkpt lat="38.18809900" lon="-99.09662200"><time>2016-06-02T09:27:59-05:00</time></trkpt>
  1624. <trkpt lat="38.18809900" lon="-99.09662200"><time>2016-06-02T09:43:32-05:00</time></trkpt>
  1625. <trkpt lat="38.18795200" lon="-99.09673700"><time>2016-06-02T10:14:24-05:00</time></trkpt>
  1626. <trkpt lat="38.18799800" lon="-99.09672400"><time>2016-06-02T10:45:14-05:00</time></trkpt>
  1627. <trkpt lat="38.18932800" lon="-99.08457700"><time>2016-06-02T10:57:37-05:00</time></trkpt>
  1628. <trkpt lat="38.19732600" lon="-99.07351900"><time>2016-06-02T11:09:35-05:00</time></trkpt>
  1629. <trkpt lat="38.20345800" lon="-99.06519900"><time>2016-06-02T11:19:40-05:00</time></trkpt>
  1630. <trkpt lat="38.20348700" lon="-99.05183400"><time>2016-06-02T11:31:28-05:00</time></trkpt>
  1631. <trkpt lat="38.20351100" lon="-99.03854100"><time>2016-06-02T11:43:27-05:00</time></trkpt>
  1632. <trkpt lat="38.20361700" lon="-99.02440600"><time>2016-06-02T11:56:20-05:00</time></trkpt>
  1633. <trkpt lat="38.20372400" lon="-99.01169300"><time>2016-06-02T12:08:19-05:00</time></trkpt>
  1634. <trkpt lat="38.20384000" lon="-98.99796000"><time>2016-06-02T12:21:23-05:00</time></trkpt>
  1635. <trkpt lat="38.20385700" lon="-98.98531800"><time>2016-06-02T12:33:11-05:00</time></trkpt>
  1636. <trkpt lat="38.20384100" lon="-98.97292200"><time>2016-06-02T12:45:09-05:00</time></trkpt>
  1637. <trkpt lat="38.20378300" lon="-98.96192200"><time>2016-06-02T12:58:01-05:00</time></trkpt>
  1638. <trkpt lat="38.20363800" lon="-98.94903300"><time>2016-06-02T13:09:58-05:00</time></trkpt>
  1639. <trkpt lat="38.20366200" lon="-98.93999700"><time>2016-06-02T13:23:02-05:00</time></trkpt>
  1640. <trkpt lat="38.20366200" lon="-98.93999700"><time>2016-06-02T13:34:49-05:00</time></trkpt>
  1641. <trkpt lat="38.20357200" lon="-98.93106800"><time>2016-06-02T13:46:48-05:00</time></trkpt>
  1642. <trkpt lat="38.20353700" lon="-98.91830100"><time>2016-06-02T13:59:37-05:00</time></trkpt>
  1643. <trkpt lat="38.20352700" lon="-98.90834300"><time>2016-06-02T14:11:37-05:00</time></trkpt>
  1644. <trkpt lat="38.20357400" lon="-98.89536200"><time>2016-06-02T14:24:31-05:00</time></trkpt>
  1645. <trkpt lat="38.20353700" lon="-98.88965200"><time>2016-06-02T14:36:17-05:00</time></trkpt>
  1646. <trkpt lat="38.20345300" lon="-98.87764700"><time>2016-06-02T14:48:11-05:00</time></trkpt>
  1647. <trkpt lat="38.20341100" lon="-98.87605100"><time>2016-06-02T15:00:11-05:00</time></trkpt>
  1648. <trkpt lat="38.20340400" lon="-98.87611400"><time>2016-06-02T15:12:34-05:00</time></trkpt>
  1649. <trkpt lat="38.20345800" lon="-98.86846400"><time>2016-06-02T15:24:32-05:00</time></trkpt>
  1650. <trkpt lat="38.20349400" lon="-98.85654200"><time>2016-06-02T15:36:31-05:00</time></trkpt>
  1651. <trkpt lat="38.20336300" lon="-98.84399100"><time>2016-06-02T15:49:13-05:00</time></trkpt>
  1652. <trkpt lat="38.20332500" lon="-98.82931600"><time>2016-06-02T16:01:11-05:00</time></trkpt>
  1653. <trkpt lat="38.20328800" lon="-98.82581500"><time>2016-06-02T16:13:09-05:00</time></trkpt>
  1654. <trkpt lat="38.20328800" lon="-98.82581500"><time>2016-06-02T16:25:08-05:00</time></trkpt>
  1655. <trkpt lat="38.20328800" lon="-98.82581500"><time>2016-06-02T16:37:08-05:00</time></trkpt>
  1656. <trkpt lat="38.20322600" lon="-98.82578400"><time>2016-06-02T16:49:06-05:00</time></trkpt>
  1657. <trkpt lat="38.20322600" lon="-98.82578400"><time>2016-06-02T17:09:57-05:00</time></trkpt>
  1658. <trkpt lat="38.20322600" lon="-98.82578400"><time>2016-06-02T17:22:04-05:00</time></trkpt>
  1659. <trkpt lat="38.20322600" lon="-98.82578400"><time>2016-06-02T21:01:26-05:00</time></trkpt>
  1660. <trkpt lat="38.20322600" lon="-98.82578400"><time>2016-06-02T21:11:41-05:00</time></trkpt>
  1661. <trkpt lat="38.20322600" lon="-98.82578400"><time>2016-06-02T21:37:54-05:00</time></trkpt>
  1662. <trkpt lat="38.20328700" lon="-98.80898000"><time>2016-06-02T21:48:14-05:00</time></trkpt>
  1663. <trkpt lat="38.20311500" lon="-98.77356400"><time>2016-06-02T22:00:13-05:00</time></trkpt>
  1664. <trkpt lat="38.20296700" lon="-98.76052500"><time>2016-06-02T22:12:13-05:00</time></trkpt>
  1665. <trkpt lat="38.20260800" lon="-98.73234400"><time>2016-06-02T22:24:57-05:00</time></trkpt>
  1666. <trkpt lat="38.20231300" lon="-98.69993500"><time>2016-06-02T22:36:57-05:00</time></trkpt>
  1667. <trkpt lat="38.20248500" lon="-98.67457900"><time>2016-06-02T22:48:54-05:00</time></trkpt>
  1668. <trkpt lat="38.20259900" lon="-98.64347300"><time>2016-06-02T23:00:54-05:00</time></trkpt>
  1669. <trkpt lat="38.20256200" lon="-98.61110200"><time>2016-06-02T23:12:25-05:00</time></trkpt>
  1670. <trkpt lat="38.20248000" lon="-98.58985900"><time>2016-06-02T23:24:23-05:00</time></trkpt>
  1671. <trkpt lat="38.20239500" lon="-98.56990300"><time>2016-06-02T23:37:17-05:00</time></trkpt>
  1672. <trkpt lat="38.20182500" lon="-98.53861500"><time>2016-06-02T23:49:16-05:00</time></trkpt>
  1673. <trkpt lat="38.20166200" lon="-98.50147800"><time>2016-06-03T00:01:15-05:00</time></trkpt>
  1674. <trkpt lat="38.20208400" lon="-98.47265300"><time>2016-06-03T00:13:14-05:00</time></trkpt>
  1675. <trkpt lat="38.21663600" lon="-98.46399800"><time>2016-06-03T00:23:30-05:00</time></trkpt>
  1676. <trkpt lat="38.21703200" lon="-98.43687400"><time>2016-06-03T00:35:19-05:00</time></trkpt>
  1677. <trkpt lat="38.21734800" lon="-98.41764900"><time>2016-06-03T00:47:17-05:00</time></trkpt>
  1678. <trkpt lat="38.21746200" lon="-98.38542200"><time>2016-06-03T00:59:16-05:00</time></trkpt>
  1679. <trkpt lat="38.21736800" lon="-98.36811200"><time>2016-06-03T01:11:15-05:00</time></trkpt>
  1680. <trkpt lat="38.21009100" lon="-98.35205300"><time>2016-06-03T01:23:14-05:00</time></trkpt>
  1681. <trkpt lat="38.21015700" lon="-98.35143300"><time>2016-06-03T01:35:16-05:00</time></trkpt>
  1682. <trkpt lat="38.20730000" lon="-98.33186500"><time>2016-06-03T01:47:12-05:00</time></trkpt>
  1683. <trkpt lat="38.20866100" lon="-98.32012000"><time>2016-06-03T01:59:11-05:00</time></trkpt>
  1684. <trkpt lat="38.21709200" lon="-98.31752000"><time>2016-06-03T02:11:15-05:00</time></trkpt>
  1685. <trkpt lat="38.21716500" lon="-98.31132100"><time>2016-06-03T02:23:09-05:00</time></trkpt>
  1686. <trkpt lat="38.21692900" lon="-98.27393500"><time>2016-06-03T02:35:08-05:00</time></trkpt>
  1687. <trkpt lat="38.21684800" lon="-98.23904500"><time>2016-06-03T02:47:06-05:00</time></trkpt>
  1688. <trkpt lat="38.21698100" lon="-98.22004600"><time>2016-06-03T02:59:09-05:00</time></trkpt>
  1689. <trkpt lat="38.21724400" lon="-98.20702200"><time>2016-06-03T03:11:17-05:00</time></trkpt>
  1690. <trkpt lat="38.21724400" lon="-98.20702200"><time>2016-06-03T03:23:01-05:00</time></trkpt>
  1691. <trkpt lat="38.21719000" lon="-98.20718900"><time>2016-06-03T03:34:34-05:00</time></trkpt>
  1692. <trkpt lat="38.21719000" lon="-98.20718900"><time>2016-06-03T03:59:03-05:00</time></trkpt>
  1693. <trkpt lat="38.21716300" lon="-98.20717300"><time>2016-06-03T04:29:58-05:00</time></trkpt>
  1694. <trkpt lat="38.21714500" lon="-98.20721900"><time>2016-06-03T04:45:02-05:00</time></trkpt>
  1695. <trkpt lat="38.21714500" lon="-98.20721900"><time>2016-06-03T05:00:49-05:00</time></trkpt>
  1696. <trkpt lat="38.21712300" lon="-98.20726700"><time>2016-06-03T05:15:17-05:00</time></trkpt>
  1697. <trkpt lat="38.21726800" lon="-98.19075500"><time>2016-06-03T05:27:15-05:00</time></trkpt>
  1698. <trkpt lat="38.21753000" lon="-98.15770500"><time>2016-06-03T05:39:13-05:00</time></trkpt>
  1699. <trkpt lat="38.21771500" lon="-98.12216100"><time>2016-06-03T05:51:12-05:00</time></trkpt>
  1700. <trkpt lat="38.21749500" lon="-98.08846400"><time>2016-06-03T06:03:12-05:00</time></trkpt>
  1701. <trkpt lat="38.21744900" lon="-98.06297000"><time>2016-06-03T06:15:10-05:00</time></trkpt>
  1702. <trkpt lat="38.21729800" lon="-98.03286200"><time>2016-06-03T06:27:10-05:00</time></trkpt>
  1703. <trkpt lat="38.21687800" lon="-97.99658700"><time>2016-06-03T06:39:08-05:00</time></trkpt>
  1704. <trkpt lat="38.21687200" lon="-97.99658300"><time>2016-06-03T06:51:08-05:00</time></trkpt>
  1705. <trkpt lat="38.21681100" lon="-97.95708100"><time>2016-06-03T07:03:07-05:00</time></trkpt>
  1706. <trkpt lat="38.21724200" lon="-97.92266100"><time>2016-06-03T07:15:08-05:00</time></trkpt>
  1707. <trkpt lat="38.21734800" lon="-97.90938500"><time>2016-06-03T07:27:08-05:00</time></trkpt>
  1708. <trkpt lat="38.21747700" lon="-97.87183000"><time>2016-06-03T07:39:06-05:00</time></trkpt>
  1709. <trkpt lat="38.21746700" lon="-97.84861700"><time>2016-06-03T07:51:06-05:00</time></trkpt>
  1710. <trkpt lat="38.23196500" lon="-97.84481000"><time>2016-06-03T08:03:08-05:00</time></trkpt>
  1711. <trkpt lat="38.23175400" lon="-97.81622300"><time>2016-06-03T08:15:01-05:00</time></trkpt>
  1712. <trkpt lat="38.23179300" lon="-97.78307500"><time>2016-06-03T08:27:00-05:00</time></trkpt>
  1713. <trkpt lat="38.23148900" lon="-97.77606300"><time>2016-06-03T08:39:00-05:00</time></trkpt>
  1714. <trkpt lat="38.23154000" lon="-97.77567400"><time>2016-06-03T08:50:59-05:00</time></trkpt>
  1715. <trkpt lat="38.23154000" lon="-97.77567400"><time>2016-06-03T09:02:59-05:00</time></trkpt>
  1716. <trkpt lat="38.23152900" lon="-97.77581500"><time>2016-06-03T09:13:06-05:00</time></trkpt>
  1717. <trkpt lat="38.23152900" lon="-97.77581500"><time>2016-06-03T09:25:03-05:00</time></trkpt>
  1718. <trkpt lat="38.23152900" lon="-97.77581500"><time>2016-06-03T09:37:02-05:00</time></trkpt>
  1719. <trkpt lat="38.23143400" lon="-97.77575500"><time>2016-06-03T09:49:48-05:00</time></trkpt>
  1720. <trkpt lat="38.23178400" lon="-97.77572700"><time>2016-06-03T10:01:45-05:00</time></trkpt>
  1721. <trkpt lat="38.23169900" lon="-97.77574300"><time>2016-06-03T10:13:44-05:00</time></trkpt>
  1722. <trkpt lat="38.23170100" lon="-97.77491000"><time>2016-06-03T10:25:44-05:00</time></trkpt>
  1723. <trkpt lat="38.23180200" lon="-97.76416000"><time>2016-06-03T10:37:44-05:00</time></trkpt>
  1724. <trkpt lat="38.23187000" lon="-97.74137100"><time>2016-06-03T10:50:09-05:00</time></trkpt>
  1725. <trkpt lat="38.23188400" lon="-97.72943400"><time>2016-06-03T11:02:07-05:00</time></trkpt>
  1726. <trkpt lat="38.23189300" lon="-97.71847200"><time>2016-06-03T11:14:06-05:00</time></trkpt>
  1727. <trkpt lat="38.23193300" lon="-97.70548900"><time>2016-06-03T11:26:04-05:00</time></trkpt>
  1728. <trkpt lat="38.23190400" lon="-97.70199100"><time>2016-06-03T11:38:05-05:00</time></trkpt>
  1729. <trkpt lat="38.23203200" lon="-97.69626900"><time>2016-06-03T11:50:03-05:00</time></trkpt>
  1730. <trkpt lat="38.23195200" lon="-97.67554400"><time>2016-06-03T12:02:03-05:00</time></trkpt>
  1731. <trkpt lat="38.23209400" lon="-97.65798800"><time>2016-06-03T12:14:03-05:00</time></trkpt>
  1732. <trkpt lat="38.23230800" lon="-97.63523800"><time>2016-06-03T12:26:00-05:00</time></trkpt>
  1733. <trkpt lat="38.23234900" lon="-97.63242300"><time>2016-06-03T12:38:49-05:00</time></trkpt>
  1734. <trkpt lat="38.23203700" lon="-97.63258200"><time>2016-06-03T12:50:32-05:00</time></trkpt>
  1735. <trkpt lat="38.23222100" lon="-97.63274100"><time>2016-06-03T13:01:59-05:00</time></trkpt>
  1736. <trkpt lat="38.23225600" lon="-97.63212700"><time>2016-06-03T13:13:57-05:00</time></trkpt>
  1737. <trkpt lat="38.23226100" lon="-97.62222400"><time>2016-06-03T13:25:55-05:00</time></trkpt>
  1738. <trkpt lat="38.23237100" lon="-97.60724000"><time>2016-06-03T13:37:55-05:00</time></trkpt>
  1739. <trkpt lat="38.23218000" lon="-97.60157000"><time>2016-06-03T13:49:53-05:00</time></trkpt>
  1740. <trkpt lat="38.23223400" lon="-97.59055900"><time>2016-06-03T14:01:53-05:00</time></trkpt>
  1741. <trkpt lat="38.23232000" lon="-97.57621800"><time>2016-06-03T14:13:52-05:00</time></trkpt>
  1742. <trkpt lat="38.23231800" lon="-97.56950900"><time>2016-06-03T14:25:50-05:00</time></trkpt>
  1743. <trkpt lat="38.23231800" lon="-97.56950900"><time>2016-06-03T14:37:47-05:00</time></trkpt>
  1744. <trkpt lat="38.23231800" lon="-97.56950900"><time>2016-06-03T14:48:46-05:00</time></trkpt>
  1745. <trkpt lat="38.23231800" lon="-97.56950900"><time>2016-06-03T15:01:45-05:00</time></trkpt>
  1746. <trkpt lat="38.23231800" lon="-97.56950900"><time>2016-06-03T15:13:42-05:00</time></trkpt>
  1747. <trkpt lat="38.23231800" lon="-97.56950900"><time>2016-06-03T15:25:42-05:00</time></trkpt>
  1748. <trkpt lat="38.23231800" lon="-97.56950900"><time>2016-06-03T15:37:42-05:00</time></trkpt>
  1749. <trkpt lat="38.23231800" lon="-97.56950900"><time>2016-06-03T15:49:41-05:00</time></trkpt>
  1750. <trkpt lat="38.23231800" lon="-97.56950900"><time>2016-06-03T16:01:40-05:00</time></trkpt>
  1751. <trkpt lat="38.23231800" lon="-97.56950900"><time>2016-06-03T16:13:39-05:00</time></trkpt>
  1752. <trkpt lat="38.23231800" lon="-97.56950900"><time>2016-06-03T16:25:38-05:00</time></trkpt>
  1753. <trkpt lat="38.23213400" lon="-97.56947700"><time>2016-06-03T16:37:38-05:00</time></trkpt>
  1754. <trkpt lat="38.23213400" lon="-97.56947700"><time>2016-06-03T16:49:36-05:00</time></trkpt>
  1755. <trkpt lat="38.23213400" lon="-97.56947700"><time>2016-06-03T17:01:35-05:00</time></trkpt>
  1756. <trkpt lat="38.23213400" lon="-97.56947700"><time>2016-06-03T17:13:34-05:00</time></trkpt>
  1757. <trkpt lat="38.23213400" lon="-97.56947700"><time>2016-06-03T17:25:32-05:00</time></trkpt>
  1758. <trkpt lat="38.23213400" lon="-97.56947700"><time>2016-06-03T17:37:31-05:00</time></trkpt>
  1759. <trkpt lat="38.23213400" lon="-97.56947700"><time>2016-06-03T17:49:30-05:00</time></trkpt>
  1760. <trkpt lat="38.23213400" lon="-97.56947700"><time>2016-06-03T18:01:29-05:00</time></trkpt>
  1761. <trkpt lat="38.23228800" lon="-97.55647300"><time>2016-06-03T18:13:28-05:00</time></trkpt>
  1762. <trkpt lat="38.23214300" lon="-97.54030800"><time>2016-06-03T18:25:27-05:00</time></trkpt>
  1763. <trkpt lat="38.23217600" lon="-97.52478400"><time>2016-06-03T18:37:28-05:00</time></trkpt>
  1764. <trkpt lat="38.23212700" lon="-97.51217500"><time>2016-06-03T18:49:25-05:00</time></trkpt>
  1765. <trkpt lat="38.23206400" lon="-97.49623000"><time>2016-06-03T19:01:25-05:00</time></trkpt>
  1766. <trkpt lat="38.23196800" lon="-97.48013200"><time>2016-06-03T19:13:23-05:00</time></trkpt>
  1767. <trkpt lat="38.23195500" lon="-97.46874700"><time>2016-06-03T19:25:25-05:00</time></trkpt>
  1768. <trkpt lat="38.23186500" lon="-97.45641800"><time>2016-06-03T19:37:22-05:00</time></trkpt>
  1769. <trkpt lat="38.23186700" lon="-97.44164300"><time>2016-06-03T19:49:22-05:00</time></trkpt>
  1770. <trkpt lat="38.23199100" lon="-97.42306200"><time>2016-06-03T20:03:46-05:00</time></trkpt>
  1771. <trkpt lat="38.23194200" lon="-97.41152300"><time>2016-06-03T20:15:13-05:00</time></trkpt>
  1772. <trkpt lat="38.23189100" lon="-97.39625300"><time>2016-06-03T20:27:13-05:00</time></trkpt>
  1773. <trkpt lat="38.23187900" lon="-97.39040900"><time>2016-06-03T20:39:12-05:00</time></trkpt>
  1774. <trkpt lat="38.23187900" lon="-97.39040900"><time>2016-06-03T20:51:14-05:00</time></trkpt>
  1775. <trkpt lat="38.23187900" lon="-97.39040900"><time>2016-06-03T21:03:12-05:00</time></trkpt>
  1776. <trkpt lat="38.23187900" lon="-97.39040900"><time>2016-06-03T21:15:09-05:00</time></trkpt>
  1777. <trkpt lat="38.23187900" lon="-97.39040900"><time>2016-06-03T21:27:09-05:00</time></trkpt>
  1778. <trkpt lat="38.23187900" lon="-97.39040900"><time>2016-06-03T21:39:07-05:00</time></trkpt>
  1779. <trkpt lat="38.23190300" lon="-97.38932500"><time>2016-06-03T22:03:54-05:00</time></trkpt>
  1780. <trkpt lat="38.23195000" lon="-97.35207500"><time>2016-06-03T22:15:01-05:00</time></trkpt>
  1781. <trkpt lat="38.23242300" lon="-97.31738700"><time>2016-06-03T22:27:00-05:00</time></trkpt>
  1782. <trkpt lat="38.23283400" lon="-97.27709800"><time>2016-06-03T22:38:59-05:00</time></trkpt>
  1783. <trkpt lat="38.23286500" lon="-97.23702500"><time>2016-06-03T22:50:58-05:00</time></trkpt>
  1784. <trkpt lat="38.23301500" lon="-97.20451300"><time>2016-06-03T23:02:57-05:00</time></trkpt>
  1785. <trkpt lat="38.23306100" lon="-97.16604000"><time>2016-06-03T23:14:56-05:00</time></trkpt>
  1786. <trkpt lat="38.23274900" lon="-97.14293500"><time>2016-06-03T23:26:55-05:00</time></trkpt>
  1787. <trkpt lat="38.23249600" lon="-97.11575700"><time>2016-06-03T23:38:55-05:00</time></trkpt>
  1788. <trkpt lat="38.23237700" lon="-97.07758700"><time>2016-06-03T23:50:53-05:00</time></trkpt>
  1789. <trkpt lat="38.23164000" lon="-97.03460200"><time>2016-06-04T00:03:17-05:00</time></trkpt>
  1790. <trkpt lat="38.23167700" lon="-97.02317700"><time>2016-06-04T00:14:50-05:00</time></trkpt>
  1791. <trkpt lat="38.23105100" lon="-96.98529300"><time>2016-06-04T00:26:49-05:00</time></trkpt>
  1792. <trkpt lat="38.23100100" lon="-96.98326900"><time>2016-06-04T00:46:44-05:00</time></trkpt>
  1793. <trkpt lat="38.23085900" lon="-96.95489400"><time>2016-06-04T00:56:47-05:00</time></trkpt>
  1794. <trkpt lat="38.23130400" lon="-96.94231300"><time>2016-06-04T01:08:46-05:00</time></trkpt>
  1795. <trkpt lat="38.23648400" lon="-96.93351000"><time>2016-06-04T01:20:48-05:00</time></trkpt>
  1796. <trkpt lat="38.23654200" lon="-96.93348800"><time>2016-06-04T01:41:12-05:00</time></trkpt>
  1797. <trkpt lat="38.23682100" lon="-96.93244200"><time>2016-06-04T02:15:12-05:00</time></trkpt>
  1798. <trkpt lat="38.24573800" lon="-96.91897700"><time>2016-06-04T02:26:52-05:00</time></trkpt>
  1799. <trkpt lat="38.24608200" lon="-96.89107800"><time>2016-06-04T02:38:52-05:00</time></trkpt>
  1800. <trkpt lat="38.25364200" lon="-96.85368700"><time>2016-06-04T02:50:51-05:00</time></trkpt>
  1801. <trkpt lat="38.26984200" lon="-96.81816500"><time>2016-06-04T03:02:50-05:00</time></trkpt>
  1802. <trkpt lat="38.27892900" lon="-96.77878700"><time>2016-06-04T03:14:50-05:00</time></trkpt>
  1803. <trkpt lat="38.28671400" lon="-96.76509500"><time>2016-06-04T03:27:18-05:00</time></trkpt>
  1804. <trkpt lat="38.28684800" lon="-96.76500900"><time>2016-06-04T03:57:52-05:00</time></trkpt>
  1805. <trkpt lat="38.28767800" lon="-96.76368100"><time>2016-06-04T04:28:24-05:00</time></trkpt>
  1806. <trkpt lat="38.30859400" lon="-96.72910900"><time>2016-06-04T04:40:46-05:00</time></trkpt>
  1807. <trkpt lat="38.32996900" lon="-96.69423200"><time>2016-06-04T04:52:44-05:00</time></trkpt>
  1808. <trkpt lat="38.34730200" lon="-96.67603700"><time>2016-06-04T05:05:08-05:00</time></trkpt>
  1809. <trkpt lat="38.37044700" lon="-96.65180000"><time>2016-06-04T05:17:07-05:00</time></trkpt>
  1810. <trkpt lat="38.37348200" lon="-96.65009000"><time>2016-06-04T05:29:05-05:00</time></trkpt>
  1811. <trkpt lat="38.37594400" lon="-96.64861900"><time>2016-06-04T05:39:28-05:00</time></trkpt>
  1812. <trkpt lat="38.39848600" lon="-96.62071700"><time>2016-06-04T05:51:25-05:00</time></trkpt>
  1813. <trkpt lat="38.40017500" lon="-96.58018800"><time>2016-06-04T06:03:23-05:00</time></trkpt>
  1814. <trkpt lat="38.40003300" lon="-96.56110700"><time>2016-06-04T06:15:23-05:00</time></trkpt>
  1815. <trkpt lat="38.40006600" lon="-96.54452900"><time>2016-06-04T06:27:12-05:00</time></trkpt>
  1816. <trkpt lat="38.40010100" lon="-96.53442700"><time>2016-06-04T06:38:13-05:00</time></trkpt>
  1817. <trkpt lat="38.40084000" lon="-96.53416600"><time>2016-06-04T07:08:18-05:00</time></trkpt>
  1818. <trkpt lat="38.40076400" lon="-96.53418100"><time>2016-06-04T07:39:05-05:00</time></trkpt>
  1819. <trkpt lat="38.40084800" lon="-96.53412200"><time>2016-06-04T08:09:55-05:00</time></trkpt>
  1820. <trkpt lat="38.40081600" lon="-96.53429200"><time>2016-06-04T08:54:18-05:00</time></trkpt>
  1821. <trkpt lat="38.40076900" lon="-96.53427500"><time>2016-06-04T09:27:03-05:00</time></trkpt>
  1822. <trkpt lat="38.40087900" lon="-96.53431600"><time>2016-06-04T10:19:53-05:00</time></trkpt>
  1823. <trkpt lat="38.40087900" lon="-96.53431600"><time>2016-06-04T10:31:51-05:00</time></trkpt>
  1824. <trkpt lat="38.39973000" lon="-96.52745700"><time>2016-06-04T10:43:51-05:00</time></trkpt>
  1825. <trkpt lat="38.39899000" lon="-96.51527400"><time>2016-06-04T10:55:49-05:00</time></trkpt>
  1826. <trkpt lat="38.40097500" lon="-96.50367500"><time>2016-06-04T11:07:48-05:00</time></trkpt>
  1827. <trkpt lat="38.40421600" lon="-96.49486000"><time>2016-06-04T11:19:48-05:00</time></trkpt>
  1828. <trkpt lat="38.40575300" lon="-96.48802400"><time>2016-06-04T11:31:46-05:00</time></trkpt>
  1829. <trkpt lat="38.40563000" lon="-96.48784900"><time>2016-06-04T11:43:46-05:00</time></trkpt>
  1830. <trkpt lat="38.40579400" lon="-96.48474900"><time>2016-06-04T11:55:43-05:00</time></trkpt>
  1831. <trkpt lat="38.40555100" lon="-96.47525300"><time>2016-06-04T12:06:06-05:00</time></trkpt>
  1832. <trkpt lat="38.40541900" lon="-96.46753400"><time>2016-06-04T12:18:04-05:00</time></trkpt>
  1833. <trkpt lat="38.40541700" lon="-96.45481400"><time>2016-06-04T12:30:03-05:00</time></trkpt>
  1834. <trkpt lat="38.40548400" lon="-96.44435700"><time>2016-06-04T12:42:01-05:00</time></trkpt>
  1835. <trkpt lat="38.40555700" lon="-96.42351200"><time>2016-06-04T12:54:00-05:00</time></trkpt>
  1836. <trkpt lat="38.40540400" lon="-96.41063200"><time>2016-06-04T13:05:59-05:00</time></trkpt>
  1837. <trkpt lat="38.40487500" lon="-96.39657000"><time>2016-06-04T13:17:59-05:00</time></trkpt>
  1838. <trkpt lat="38.40498800" lon="-96.38904400"><time>2016-06-04T13:29:59-05:00</time></trkpt>
  1839. <trkpt lat="38.40684200" lon="-96.38128000"><time>2016-06-04T13:41:59-05:00</time></trkpt>
  1840. <trkpt lat="38.40647900" lon="-96.37320800"><time>2016-06-04T13:54:01-05:00</time></trkpt>
  1841. <trkpt lat="38.40637200" lon="-96.37330700"><time>2016-06-04T14:05:53-05:00</time></trkpt>
  1842. <trkpt lat="38.40588700" lon="-96.37327200"><time>2016-06-04T14:17:53-05:00</time></trkpt>
  1843. <trkpt lat="38.40575800" lon="-96.37294100"><time>2016-06-04T14:29:52-05:00</time></trkpt>
  1844. <trkpt lat="38.40666500" lon="-96.35458900"><time>2016-06-04T14:42:08-05:00</time></trkpt>
  1845. <trkpt lat="38.40670900" lon="-96.34853200"><time>2016-06-04T14:53:54-05:00</time></trkpt>
  1846. <trkpt lat="38.40660800" lon="-96.34080600"><time>2016-06-04T15:05:52-05:00</time></trkpt>
  1847. <trkpt lat="38.40657700" lon="-96.33223500"><time>2016-06-04T15:17:52-05:00</time></trkpt>
  1848. <trkpt lat="38.40652600" lon="-96.31947700"><time>2016-06-04T15:29:51-05:00</time></trkpt>
  1849. <trkpt lat="38.40650800" lon="-96.30892100"><time>2016-06-04T15:41:49-05:00</time></trkpt>
  1850. <trkpt lat="38.40762900" lon="-96.30085800"><time>2016-06-04T15:53:49-05:00</time></trkpt>
  1851. <trkpt lat="38.40986800" lon="-96.28931700"><time>2016-06-04T16:05:48-05:00</time></trkpt>
  1852. <trkpt lat="38.41092900" lon="-96.28446100"><time>2016-06-04T16:17:51-05:00</time></trkpt>
  1853. <trkpt lat="38.41074600" lon="-96.28462400"><time>2016-06-04T16:29:48-05:00</time></trkpt>
  1854. <trkpt lat="38.41094000" lon="-96.28438600"><time>2016-06-04T16:41:47-05:00</time></trkpt>
  1855. <trkpt lat="38.41109000" lon="-96.28453200"><time>2016-06-04T16:53:43-05:00</time></trkpt>
  1856. <trkpt lat="38.41098900" lon="-96.28436900"><time>2016-06-04T23:02:58-05:00</time></trkpt>
  1857. <trkpt lat="38.41225900" lon="-96.27315400"><time>2016-06-04T23:14:25-05:00</time></trkpt>
  1858. <trkpt lat="38.41223800" lon="-96.23431800"><time>2016-06-04T23:26:25-05:00</time></trkpt>
  1859. <trkpt lat="38.40671900" lon="-96.21340900"><time>2016-06-04T23:38:23-05:00</time></trkpt>
  1860. <trkpt lat="38.40494600" lon="-96.17726600"><time>2016-06-04T23:50:23-05:00</time></trkpt>
  1861. <trkpt lat="38.40484800" lon="-96.14025200"><time>2016-06-05T00:02:22-05:00</time></trkpt>
  1862. <trkpt lat="38.40518200" lon="-96.10381000"><time>2016-06-05T00:14:20-05:00</time></trkpt>
  1863. <trkpt lat="38.40534100" lon="-96.07046900"><time>2016-06-05T00:26:20-05:00</time></trkpt>
  1864. <trkpt lat="38.40530600" lon="-96.04325700"><time>2016-06-05T00:38:21-05:00</time></trkpt>
  1865. <trkpt lat="38.40534300" lon="-96.06801700"><time>2016-06-05T00:50:19-05:00</time></trkpt>
  1866. <trkpt lat="38.40487100" lon="-96.14283800"><time>2016-06-05T01:02:17-05:00</time></trkpt>
  1867. <trkpt lat="38.40504200" lon="-96.15394300"><time>2016-06-05T01:14:17-05:00</time></trkpt>
  1868. <trkpt lat="38.40503800" lon="-96.11802500"><time>2016-06-05T01:26:07-05:00</time></trkpt>
  1869. <trkpt lat="38.40533300" lon="-96.08248000"><time>2016-06-05T01:38:13-05:00</time></trkpt>
  1870. <trkpt lat="38.40539900" lon="-96.04667600"><time>2016-06-05T01:50:13-05:00</time></trkpt>
  1871. <trkpt lat="38.40504900" lon="-96.01383900"><time>2016-06-05T02:02:11-05:00</time></trkpt>
  1872. <trkpt lat="38.40507900" lon="-95.98038700"><time>2016-06-05T02:14:11-05:00</time></trkpt>
  1873. <trkpt lat="38.40502700" lon="-95.94560000"><time>2016-06-05T02:26:11-05:00</time></trkpt>
  1874. <trkpt lat="38.40489700" lon="-95.90660200"><time>2016-06-05T02:38:09-05:00</time></trkpt>
  1875. <trkpt lat="38.40479700" lon="-95.87167500"><time>2016-06-05T02:50:09-05:00</time></trkpt>
  1876. <trkpt lat="38.40476600" lon="-95.85749400"><time>2016-06-05T03:02:10-05:00</time></trkpt>
  1877. <trkpt lat="38.40473800" lon="-95.85192000"><time>2016-06-05T03:13:10-05:00</time></trkpt>
  1878. <trkpt lat="38.40473900" lon="-95.81311800"><time>2016-06-05T03:26:07-05:00</time></trkpt>
  1879. <trkpt lat="38.40475400" lon="-95.79570000"><time>2016-06-05T03:38:05-05:00</time></trkpt>
  1880. <trkpt lat="38.40477600" lon="-95.79417700"><time>2016-06-05T03:51:23-05:00</time></trkpt>
  1881. <trkpt lat="38.40485300" lon="-95.76211100"><time>2016-06-05T04:02:02-05:00</time></trkpt>
  1882. <trkpt lat="38.40505100" lon="-95.71942700"><time>2016-06-05T04:13:59-05:00</time></trkpt>
  1883. <trkpt lat="38.40511100" lon="-95.67701200"><time>2016-06-05T04:26:00-05:00</time></trkpt>
  1884. <trkpt lat="38.40506000" lon="-95.64712600"><time>2016-06-05T04:37:59-05:00</time></trkpt>
  1885. <trkpt lat="38.40498300" lon="-95.62850500"><time>2016-06-05T04:49:58-05:00</time></trkpt>
  1886. <trkpt lat="38.40499900" lon="-95.62495700"><time>2016-06-05T05:01:35-05:00</time></trkpt>
  1887. <trkpt lat="38.40498800" lon="-95.60475600"><time>2016-06-05T05:59:37-05:00</time></trkpt>
  1888. <trkpt lat="38.40506300" lon="-95.58151300"><time>2016-06-05T06:10:46-05:00</time></trkpt>
  1889. <trkpt lat="38.40502900" lon="-95.56456300"><time>2016-06-05T06:22:45-05:00</time></trkpt>
  1890. <trkpt lat="38.40738100" lon="-95.55203300"><time>2016-06-05T06:34:44-05:00</time></trkpt>
  1891. <trkpt lat="38.40826400" lon="-95.55087300"><time>2016-06-05T06:46:43-05:00</time></trkpt>
  1892. <trkpt lat="38.41014800" lon="-95.54811300"><time>2016-06-05T06:58:41-05:00</time></trkpt>
  1893. <trkpt lat="38.41014800" lon="-95.54811300"><time>2016-06-05T14:43:57-05:00</time></trkpt>
  1894. <trkpt lat="38.41014800" lon="-95.54811300"><time>2016-06-05T14:54:26-05:00</time></trkpt>
  1895. <trkpt lat="38.41495700" lon="-95.54124100"><time>2016-06-05T15:06:23-05:00</time></trkpt>
  1896. <trkpt lat="38.42426300" lon="-95.52790000"><time>2016-06-05T15:18:23-05:00</time></trkpt>
  1897. <trkpt lat="38.42976300" lon="-95.51462000"><time>2016-06-05T15:30:21-05:00</time></trkpt>
  1898. <trkpt lat="38.43403800" lon="-95.50233000"><time>2016-06-05T15:42:22-05:00</time></trkpt>
  1899. <trkpt lat="38.43562700" lon="-95.50012400"><time>2016-06-05T15:54:24-05:00</time></trkpt>
  1900. <trkpt lat="38.43562700" lon="-95.50012400"><time>2016-06-05T16:11:29-05:00</time></trkpt>
  1901. <trkpt lat="38.43562700" lon="-95.50012400"><time>2016-06-05T19:12:50-05:00</time></trkpt>
  1902. <trkpt lat="38.44198500" lon="-95.49421700"><time>2016-06-05T19:23:47-05:00</time></trkpt>
  1903. <trkpt lat="38.45548100" lon="-95.48818200"><time>2016-06-05T19:35:46-05:00</time></trkpt>
  1904. <trkpt lat="38.45548100" lon="-95.48818200"><time>2016-06-05T19:47:49-05:00</time></trkpt>
  1905. <trkpt lat="38.45548100" lon="-95.48818200"><time>2016-06-05T20:03:13-05:00</time></trkpt>
  1906. <trkpt lat="38.45526700" lon="-95.48803400"><time>2016-06-05T20:15:14-05:00</time></trkpt>
  1907. <trkpt lat="38.45548400" lon="-95.48814700"><time>2016-06-05T20:27:09-05:00</time></trkpt>
  1908. <trkpt lat="38.45571900" lon="-95.48795200"><time>2016-06-05T20:39:09-05:00</time></trkpt>
  1909. <trkpt lat="38.45552500" lon="-95.48812500"><time>2016-06-05T20:51:08-05:00</time></trkpt>
  1910. <trkpt lat="38.45552500" lon="-95.48812500"><time>2016-06-05T21:03:07-05:00</time></trkpt>
  1911. <trkpt lat="38.45552500" lon="-95.48812500"><time>2016-06-05T21:15:59-05:00</time></trkpt>
  1912. <trkpt lat="38.45552500" lon="-95.48812500"><time>2016-06-05T21:27:06-05:00</time></trkpt>
  1913. <trkpt lat="38.45552500" lon="-95.48812500"><time>2016-06-05T21:37:24-05:00</time></trkpt>
  1914. <trkpt lat="38.45954000" lon="-95.48667100"><time>2016-06-05T21:48:03-05:00</time></trkpt>
  1915. <trkpt lat="38.47868100" lon="-95.46852100"><time>2016-06-05T22:00:02-05:00</time></trkpt>
  1916. <trkpt lat="38.48534700" lon="-95.44675000"><time>2016-06-05T22:12:00-05:00</time></trkpt>
  1917. <trkpt lat="38.49204700" lon="-95.43543900"><time>2016-06-05T22:24:00-05:00</time></trkpt>
  1918. <trkpt lat="38.49207500" lon="-95.41480300"><time>2016-06-05T22:36:01-05:00</time></trkpt>
  1919. <trkpt lat="38.49204100" lon="-95.38886200"><time>2016-06-05T22:47:57-05:00</time></trkpt>
  1920. <trkpt lat="38.49194400" lon="-95.35493700"><time>2016-06-05T22:59:58-05:00</time></trkpt>
  1921. <trkpt lat="38.49202800" lon="-95.32079400"><time>2016-06-05T23:11:55-05:00</time></trkpt>
  1922. <trkpt lat="38.49201100" lon="-95.31902000"><time>2016-06-06T00:04:13-05:00</time></trkpt>
  1923. <trkpt lat="38.49202800" lon="-95.28740400"><time>2016-06-06T00:14:45-05:00</time></trkpt>
  1924. <trkpt lat="38.49245500" lon="-95.25372400"><time>2016-06-06T00:26:46-05:00</time></trkpt>
  1925. <trkpt lat="38.49231500" lon="-95.22002200"><time>2016-06-06T00:38:46-05:00</time></trkpt>
  1926. <trkpt lat="38.49203200" lon="-95.18626700"><time>2016-06-06T00:50:45-05:00</time></trkpt>
  1927. <trkpt lat="38.49158800" lon="-95.15455900"><time>2016-06-06T01:02:45-05:00</time></trkpt>
  1928. <trkpt lat="38.49129100" lon="-95.13454800"><time>2016-06-06T01:14:42-05:00</time></trkpt>
  1929. <trkpt lat="38.49160000" lon="-95.13130500"><time>2016-06-06T02:07:47-05:00</time></trkpt>
  1930. <trkpt lat="38.49906200" lon="-95.10021200"><time>2016-06-06T02:20:31-05:00</time></trkpt>
  1931. <trkpt lat="38.49865700" lon="-95.06900800"><time>2016-06-06T02:32:29-05:00</time></trkpt>
  1932. <trkpt lat="38.49865200" lon="-95.03706700"><time>2016-06-06T02:44:29-05:00</time></trkpt>
  1933. <trkpt lat="38.49882200" lon="-95.00406600"><time>2016-06-06T02:56:28-05:00</time></trkpt>
  1934. <trkpt lat="38.49869600" lon="-94.97779300"><time>2016-06-06T03:08:28-05:00</time></trkpt>
  1935. <trkpt lat="38.49829400" lon="-94.97708400"><time>2016-06-06T04:08:32-05:00</time></trkpt>
  1936. <trkpt lat="38.49848100" lon="-94.97365500"><time>2016-06-06T05:17:22-05:00</time></trkpt>
  1937. <trkpt lat="38.49871400" lon="-94.95112600"><time>2016-06-06T05:29:05-05:00</time></trkpt>
  1938. <trkpt lat="38.49989100" lon="-94.94064500"><time>2016-06-06T05:41:19-05:00</time></trkpt>
  1939. <trkpt lat="38.49996800" lon="-94.93580900"><time>2016-06-06T05:53:06-05:00</time></trkpt>
  1940. <trkpt lat="38.49811700" lon="-94.92842000"><time>2016-06-06T06:05:04-05:00</time></trkpt>
  1941. <trkpt lat="38.49964500" lon="-94.91825900"><time>2016-06-06T06:17:03-05:00</time></trkpt>
  1942. <trkpt lat="38.50524100" lon="-94.91254900"><time>2016-06-06T06:29:01-05:00</time></trkpt>
  1943. <trkpt lat="38.50505300" lon="-94.89448100"><time>2016-06-06T06:41:00-05:00</time></trkpt>
  1944. <trkpt lat="38.50547800" lon="-94.85875700"><time>2016-06-06T06:52:58-05:00</time></trkpt>
  1945. <trkpt lat="38.50517300" lon="-94.82723300"><time>2016-06-06T07:04:58-05:00</time></trkpt>
  1946. <trkpt lat="38.50542700" lon="-94.79728900"><time>2016-06-06T07:16:58-05:00</time></trkpt>
  1947. <trkpt lat="38.50595800" lon="-94.77165300"><time>2016-06-06T07:28:56-05:00</time></trkpt>
  1948. <trkpt lat="38.50586100" lon="-94.75071900"><time>2016-06-06T07:40:52-05:00</time></trkpt>
  1949. <trkpt lat="38.50587200" lon="-94.72506000"><time>2016-06-06T07:52:53-05:00</time></trkpt>
  1950. <trkpt lat="38.50572000" lon="-94.70453600"><time>2016-06-06T08:04:51-05:00</time></trkpt>
  1951. <trkpt lat="38.49364600" lon="-94.69528100"><time>2016-06-06T08:16:52-05:00</time></trkpt>
  1952. <trkpt lat="38.49063600" lon="-94.68325200"><time>2016-06-06T08:28:49-05:00</time></trkpt>
  1953. <trkpt lat="38.49053400" lon="-94.67296300"><time>2016-06-06T08:40:50-05:00</time></trkpt>
  1954. <trkpt lat="38.49052900" lon="-94.66941100"><time>2016-06-06T08:52:47-05:00</time></trkpt>
  1955. <trkpt lat="38.49031600" lon="-94.65935800"><time>2016-06-06T09:04:50-05:00</time></trkpt>
  1956. <trkpt lat="38.49039900" lon="-94.65812800"><time>2016-06-06T09:16:46-05:00</time></trkpt>
  1957. <trkpt lat="38.49029700" lon="-94.64682000"><time>2016-06-06T09:28:43-05:00</time></trkpt>
  1958. <trkpt lat="38.49024800" lon="-94.62138100"><time>2016-06-06T09:40:43-05:00</time></trkpt>
  1959. <trkpt lat="38.49025800" lon="-94.61272400"><time>2016-06-06T09:52:42-05:00</time></trkpt>
  1960. <trkpt lat="38.49176200" lon="-94.60700500"><time>2016-06-06T13:18:57-05:00</time></trkpt>
  1961. <trkpt lat="38.49150100" lon="-94.59603500"><time>2016-06-06T13:30:25-05:00</time></trkpt>
  1962. <trkpt lat="38.49090400" lon="-94.57395000"><time>2016-06-06T13:51:34-05:00</time></trkpt>
  1963. <trkpt lat="38.49057300" lon="-94.55417800"><time>2016-06-06T14:03:21-05:00</time></trkpt>
  1964. <trkpt lat="38.49036100" lon="-94.53830500"><time>2016-06-06T14:32:01-05:00</time></trkpt>
  1965. <trkpt lat="38.49024400" lon="-94.52038000"><time>2016-06-06T14:42:15-05:00</time></trkpt>
  1966. <trkpt lat="38.48990700" lon="-94.50318000"><time>2016-06-06T14:54:14-05:00</time></trkpt>
  1967. <trkpt lat="38.48961000" lon="-94.48742600"><time>2016-06-06T15:06:37-05:00</time></trkpt>
  1968. <trkpt lat="38.48906700" lon="-94.46251200"><time>2016-06-06T15:18:12-05:00</time></trkpt>
  1969. <trkpt lat="38.48869900" lon="-94.44225400"><time>2016-06-06T15:30:12-05:00</time></trkpt>
  1970. <trkpt lat="38.48860600" lon="-94.43947000"><time>2016-06-06T15:42:05-05:00</time></trkpt>
  1971. <trkpt lat="38.48760500" lon="-94.43932500"><time>2016-06-06T17:43:37-05:00</time></trkpt>
  1972. <trkpt lat="38.48746700" lon="-94.41831200"><time>2016-06-06T18:26:19-05:00</time></trkpt>
  1973. <trkpt lat="38.48746700" lon="-94.41831200"><time>2016-06-06T18:38:02-05:00</time></trkpt>
  1974. <trkpt lat="38.48838800" lon="-94.41855100"><time>2016-06-06T21:56:57-05:00</time></trkpt>
  1975. <trkpt lat="38.48863700" lon="-94.43958100"><time>2016-06-06T22:08:31-05:00</time></trkpt>
  1976. <trkpt lat="38.48855200" lon="-94.43833700"><time>2016-06-06T22:19:08-05:00</time></trkpt>
  1977. <trkpt lat="38.48817600" lon="-94.41825600"><time>2016-06-06T22:39:47-05:00</time></trkpt>
  1978. <trkpt lat="38.48536600" lon="-94.39367400"><time>2016-06-06T23:05:45-05:00</time></trkpt>
  1979. <trkpt lat="38.48380900" lon="-94.37182000"><time>2016-06-06T23:15:59-05:00</time></trkpt>
  1980. <trkpt lat="38.48350300" lon="-94.36045600"><time>2016-06-06T23:28:02-05:00</time></trkpt>
  1981. <trkpt lat="38.47967400" lon="-94.34490500"><time>2016-06-06T23:39:58-05:00</time></trkpt>
  1982. <trkpt lat="38.47918300" lon="-94.33624200"><time>2016-06-06T23:51:57-05:00</time></trkpt>
  1983. <trkpt lat="38.48591600" lon="-94.30359700"><time>2016-06-07T00:03:55-05:00</time></trkpt>
  1984. <trkpt lat="38.48537300" lon="-94.27790900"><time>2016-06-07T00:15:59-05:00</time></trkpt>
  1985. <trkpt lat="38.48495300" lon="-94.26310300"><time>2016-06-07T00:27:54-05:00</time></trkpt>
  1986. <trkpt lat="38.48391900" lon="-94.22590000"><time>2016-06-07T00:39:54-05:00</time></trkpt>
  1987. <trkpt lat="38.48367300" lon="-94.19224200"><time>2016-06-07T00:51:52-05:00</time></trkpt>
  1988. <trkpt lat="38.48221500" lon="-94.15579100"><time>2016-06-07T01:03:51-05:00</time></trkpt>
  1989. <trkpt lat="38.48158800" lon="-94.12902800"><time>2016-06-07T01:15:50-05:00</time></trkpt>
  1990. <trkpt lat="38.48111400" lon="-94.10263500"><time>2016-06-07T01:40:26-05:00</time></trkpt>
  1991. <trkpt lat="38.48446900" lon="-94.07679500"><time>2016-06-07T01:51:43-05:00</time></trkpt>
  1992. <trkpt lat="38.48007400" lon="-94.05005100"><time>2016-06-07T02:03:43-05:00</time></trkpt>
  1993. <trkpt lat="38.47887200" lon="-94.02708000"><time>2016-06-07T02:15:41-05:00</time></trkpt>
  1994. <trkpt lat="38.46538900" lon="-93.99934100"><time>2016-06-07T02:27:41-05:00</time></trkpt>
  1995. <trkpt lat="38.45622700" lon="-93.96500900"><time>2016-06-07T02:39:39-05:00</time></trkpt>
  1996. <trkpt lat="38.44846300" lon="-93.95872400"><time>2016-06-07T02:49:54-05:00</time></trkpt>
  1997. <trkpt lat="38.42804400" lon="-93.91346700"><time>2016-06-07T04:41:03-05:00</time></trkpt>
  1998. <trkpt lat="38.42746800" lon="-93.89101600"><time>2016-06-07T04:51:19-05:00</time></trkpt>
  1999. <trkpt lat="38.41795400" lon="-93.86586200"><time>2016-06-07T05:03:19-05:00</time></trkpt>
  2000. <trkpt lat="38.39943400" lon="-93.83488800"><time>2016-06-07T05:15:16-05:00</time></trkpt>
  2001. <trkpt lat="38.38937200" lon="-93.80267400"><time>2016-06-07T05:27:16-05:00</time></trkpt>
  2002. <trkpt lat="38.38937200" lon="-93.80267400"><time>2016-06-07T05:39:15-05:00</time></trkpt>
  2003. <trkpt lat="38.38929800" lon="-93.80156700"><time>2016-06-07T05:50:17-05:00</time></trkpt>
  2004. <trkpt lat="38.38772100" lon="-93.75961200"><time>2016-06-07T06:03:13-05:00</time></trkpt>
  2005. <trkpt lat="38.38862700" lon="-93.75161500"><time>2016-06-07T06:15:14-05:00</time></trkpt>
  2006. <trkpt lat="38.40458000" lon="-93.73179500"><time>2016-06-07T06:27:13-05:00</time></trkpt>
  2007. <trkpt lat="38.41621800" lon="-93.71780700"><time>2016-06-07T06:39:10-05:00</time></trkpt>
  2008. <trkpt lat="38.43025700" lon="-93.69945100"><time>2016-06-07T06:51:14-05:00</time></trkpt>
  2009. <trkpt lat="38.44104300" lon="-93.68363700"><time>2016-06-07T07:03:11-05:00</time></trkpt>
  2010. <trkpt lat="38.44960300" lon="-93.67011800"><time>2016-06-07T07:15:08-05:00</time></trkpt>
  2011. <trkpt lat="38.44945200" lon="-93.66972100"><time>2016-06-07T07:27:07-05:00</time></trkpt>
  2012. <trkpt lat="38.44969000" lon="-93.66966900"><time>2016-06-07T07:39:05-05:00</time></trkpt>
  2013. <trkpt lat="38.45058100" lon="-93.66784700"><time>2016-06-07T07:51:03-05:00</time></trkpt>
  2014. <trkpt lat="38.45939800" lon="-93.64818600"><time>2016-06-07T08:01:10-05:00</time></trkpt>
  2015. <trkpt lat="38.46541900" lon="-93.63391100"><time>2016-06-07T11:59:28-05:00</time></trkpt>
  2016. <trkpt lat="38.46803400" lon="-93.62876000"><time>2016-06-07T12:10:57-05:00</time></trkpt>
  2017. <trkpt lat="38.46742600" lon="-93.61926600"><time>2016-06-07T12:22:31-05:00</time></trkpt>
  2018. <trkpt lat="38.46992100" lon="-93.61289300"><time>2016-06-07T12:34:17-05:00</time></trkpt>
  2019. <trkpt lat="38.46829400" lon="-93.60667100"><time>2016-06-07T12:47:05-05:00</time></trkpt>
  2020. <trkpt lat="38.46399300" lon="-93.59961100"><time>2016-06-07T12:59:01-05:00</time></trkpt>
  2021. <trkpt lat="38.46339800" lon="-93.57531100"><time>2016-06-07T13:11:12-05:00</time></trkpt>
  2022. <trkpt lat="38.46306700" lon="-93.56349500"><time>2016-06-07T13:21:16-05:00</time></trkpt>
  2023. <trkpt lat="38.46245600" lon="-93.53812300"><time>2016-06-07T13:34:00-05:00</time></trkpt>
  2024. <trkpt lat="38.46231900" lon="-93.53350800"><time>2016-06-07T13:44:11-05:00</time></trkpt>
  2025. <trkpt lat="38.46186400" lon="-93.51837900"><time>2016-06-07T13:56:10-05:00</time></trkpt>
  2026. <trkpt lat="38.47451600" lon="-93.51434200"><time>2016-06-07T14:06:18-05:00</time></trkpt>
  2027. <trkpt lat="38.48241800" lon="-93.50475500"><time>2016-06-07T14:18:19-05:00</time></trkpt>
  2028. <trkpt lat="38.48317300" lon="-93.50153800"><time>2016-06-07T14:28:32-05:00</time></trkpt>
  2029. <trkpt lat="38.48296300" lon="-93.49121100"><time>2016-06-07T14:40:10-05:00</time></trkpt>
  2030. <trkpt lat="38.48272200" lon="-93.48020600"><time>2016-06-07T14:52:43-05:00</time></trkpt>
  2031. <trkpt lat="38.48251200" lon="-93.47475900"><time>2016-06-07T15:02:50-05:00</time></trkpt>
  2032. <trkpt lat="38.48218300" lon="-93.46269200"><time>2016-06-07T15:12:51-05:00</time></trkpt>
  2033. <trkpt lat="38.48197100" lon="-93.45745700"><time>2016-06-07T15:24:45-05:00</time></trkpt>
  2034. <trkpt lat="38.48197100" lon="-93.45745700"><time>2016-06-07T15:36:43-05:00</time></trkpt>
  2035. <trkpt lat="38.48184600" lon="-93.45266100"><time>2016-06-07T15:52:48-05:00</time></trkpt>
  2036. <trkpt lat="38.48163200" lon="-93.44351000"><time>2016-06-07T16:02:54-05:00</time></trkpt>
  2037. <trkpt lat="38.48127800" lon="-93.43139200"><time>2016-06-07T16:14:54-05:00</time></trkpt>
  2038. <trkpt lat="38.48082500" lon="-93.41732200"><time>2016-06-07T16:27:53-05:00</time></trkpt>
  2039. <trkpt lat="38.48067600" lon="-93.40947400"><time>2016-06-07T16:37:55-05:00</time></trkpt>
  2040. <trkpt lat="38.48018000" lon="-93.39502100"><time>2016-06-07T16:52:54-05:00</time></trkpt>
  2041. <trkpt lat="38.48023600" lon="-93.39491000"><time>2016-06-07T17:05:47-05:00</time></trkpt>
  2042. <trkpt lat="38.48028300" lon="-93.39495200"><time>2016-06-07T17:23:26-05:00</time></trkpt>
  2043. <trkpt lat="38.48025900" lon="-93.39494100"><time>2016-06-07T17:34:59-05:00</time></trkpt>
  2044. <trkpt lat="38.48025900" lon="-93.39494100"><time>2016-06-07T17:46:56-05:00</time></trkpt>
  2045. <trkpt lat="38.48029100" lon="-93.39502700"><time>2016-06-07T17:56:57-05:00</time></trkpt>
  2046. <trkpt lat="38.48029100" lon="-93.39502700"><time>2016-06-07T18:08:54-05:00</time></trkpt>
  2047. <trkpt lat="38.48029100" lon="-93.39502700"><time>2016-06-07T18:20:54-05:00</time></trkpt>
  2048. <trkpt lat="38.48029100" lon="-93.39502700"><time>2016-06-07T18:32:52-05:00</time></trkpt>
  2049. <trkpt lat="38.48029100" lon="-93.39502700"><time>2016-06-07T18:44:52-05:00</time></trkpt>
  2050. <trkpt lat="38.48029100" lon="-93.39502700"><time>2016-06-07T18:56:52-05:00</time></trkpt>
  2051. <trkpt lat="38.48029100" lon="-93.39502700"><time>2016-06-07T19:08:50-05:00</time></trkpt>
  2052. <trkpt lat="38.48029100" lon="-93.39502700"><time>2016-06-07T19:20:49-05:00</time></trkpt>
  2053. <trkpt lat="38.48029100" lon="-93.39502700"><time>2016-06-07T19:32:46-05:00</time></trkpt>
  2054. <trkpt lat="38.47984200" lon="-93.38164100"><time>2016-06-07T19:44:49-05:00</time></trkpt>
  2055. <trkpt lat="38.47951000" lon="-93.37122200"><time>2016-06-07T19:56:21-05:00</time></trkpt>
  2056. <trkpt lat="38.47908500" lon="-93.35548500"><time>2016-06-07T20:09:13-05:00</time></trkpt>
  2057. <trkpt lat="38.47841500" lon="-93.33181800"><time>2016-06-07T20:21:12-05:00</time></trkpt>
  2058. <trkpt lat="38.47786800" lon="-93.31188300"><time>2016-06-07T20:33:12-05:00</time></trkpt>
  2059. <trkpt lat="38.47757100" lon="-93.30253100"><time>2016-06-07T20:45:10-05:00</time></trkpt>
  2060. <trkpt lat="38.47747100" lon="-93.29958000"><time>2016-06-07T20:57:10-05:00</time></trkpt>
  2061. <trkpt lat="38.47398200" lon="-93.29337600"><time>2016-06-07T21:09:08-05:00</time></trkpt>
  2062. <trkpt lat="38.46262900" lon="-93.28518900"><time>2016-06-07T21:21:08-05:00</time></trkpt>
  2063. <trkpt lat="38.46210200" lon="-93.26780100"><time>2016-06-07T21:33:06-05:00</time></trkpt>
  2064. <trkpt lat="38.46172800" lon="-93.25248900"><time>2016-06-07T21:45:05-05:00</time></trkpt>
  2065. <trkpt lat="38.46172800" lon="-93.25248900"><time>2016-06-07T22:14:01-05:00</time></trkpt>
  2066. <trkpt lat="38.46150000" lon="-93.24209800"><time>2016-06-07T22:24:02-05:00</time></trkpt>
  2067. <trkpt lat="38.46113100" lon="-93.22591300"><time>2016-06-07T22:35:59-05:00</time></trkpt>
  2068. <trkpt lat="38.46041600" lon="-93.20921900"><time>2016-06-07T22:47:59-05:00</time></trkpt>
  2069. <trkpt lat="38.46023200" lon="-93.20229000"><time>2016-06-07T22:59:58-05:00</time></trkpt>
  2070. <trkpt lat="38.46020900" lon="-93.19946700"><time>2016-06-07T23:11:57-05:00</time></trkpt>
  2071. <trkpt lat="38.46535000" lon="-93.18464000"><time>2016-06-07T23:23:56-05:00</time></trkpt>
  2072. <trkpt lat="38.46408400" lon="-93.15702400"><time>2016-06-07T23:35:56-05:00</time></trkpt>
  2073. <trkpt lat="38.46208500" lon="-93.15061600"><time>2016-06-07T23:47:53-05:00</time></trkpt>
  2074. <trkpt lat="38.45833500" lon="-93.13304100"><time>2016-06-07T23:59:54-05:00</time></trkpt>
  2075. <trkpt lat="38.44904400" lon="-93.11660400"><time>2016-06-08T00:11:52-05:00</time></trkpt>
  2076. <trkpt lat="38.44289500" lon="-93.10447800"><time>2016-06-08T00:23:51-05:00</time></trkpt>
  2077. <trkpt lat="38.44272100" lon="-93.10383600"><time>2016-06-08T00:35:50-05:00</time></trkpt>
  2078. <trkpt lat="38.44276100" lon="-93.10391200"><time>2016-06-08T00:47:48-05:00</time></trkpt>
  2079. <trkpt lat="38.44276100" lon="-93.10391200"><time>2016-06-08T01:34:09-05:00</time></trkpt>
  2080. <trkpt lat="38.44276100" lon="-93.10391200"><time>2016-06-08T01:51:42-05:00</time></trkpt>
  2081. <trkpt lat="38.44224700" lon="-93.10395300"><time>2016-06-08T02:02:59-05:00</time></trkpt>
  2082. <trkpt lat="38.44264400" lon="-93.10392200"><time>2016-06-08T02:54:53-05:00</time></trkpt>
  2083. <trkpt lat="38.44264400" lon="-93.10392200"><time>2016-06-08T03:42:19-05:00</time></trkpt>
  2084. <trkpt lat="38.44270100" lon="-93.10392700"><time>2016-06-08T04:20:16-05:00</time></trkpt>
  2085. <trkpt lat="38.44270100" lon="-93.10392700"><time>2016-06-08T04:32:13-05:00</time></trkpt>
  2086. <trkpt lat="38.44270100" lon="-93.10392700"><time>2016-06-08T05:06:10-05:00</time></trkpt>
  2087. <trkpt lat="38.44287900" lon="-93.10398000"><time>2016-06-08T05:50:07-05:00</time></trkpt>
  2088. <trkpt lat="38.44275600" lon="-93.10377700"><time>2016-06-08T06:01:59-05:00</time></trkpt>
  2089. <trkpt lat="38.44224900" lon="-93.10186100"><time>2016-06-08T06:13:58-05:00</time></trkpt>
  2090. <trkpt lat="38.43847700" lon="-93.08980800"><time>2016-06-08T06:25:57-05:00</time></trkpt>
  2091. <trkpt lat="38.43498400" lon="-93.08004100"><time>2016-06-08T06:37:55-05:00</time></trkpt>
  2092. <trkpt lat="38.43740100" lon="-93.05712800"><time>2016-06-08T06:49:54-05:00</time></trkpt>
  2093. <trkpt lat="38.44180800" lon="-93.03868100"><time>2016-06-08T07:01:52-05:00</time></trkpt>
  2094. <trkpt lat="38.44359300" lon="-93.01576100"><time>2016-06-08T07:13:52-05:00</time></trkpt>
  2095. <trkpt lat="38.44292200" lon="-92.99639400"><time>2016-06-08T07:25:51-05:00</time></trkpt>
  2096. <trkpt lat="38.44249100" lon="-92.98751600"><time>2016-06-08T07:37:50-05:00</time></trkpt>
  2097. <trkpt lat="38.44229400" lon="-92.97489000"><time>2016-06-08T07:49:50-05:00</time></trkpt>
  2098. <trkpt lat="38.44095200" lon="-92.97153500"><time>2016-06-08T08:02:35-05:00</time></trkpt>
  2099. <trkpt lat="38.43615800" lon="-92.96702800"><time>2016-06-08T08:13:47-05:00</time></trkpt>
  2100. <trkpt lat="38.43486000" lon="-92.94839200"><time>2016-06-08T08:25:45-05:00</time></trkpt>
  2101. <trkpt lat="38.43128900" lon="-92.93330000"><time>2016-06-08T08:37:44-05:00</time></trkpt>
  2102. <trkpt lat="38.43134800" lon="-92.92120600"><time>2016-06-08T08:49:44-05:00</time></trkpt>
  2103. <trkpt lat="38.43120900" lon="-92.91185700"><time>2016-06-08T09:01:42-05:00</time></trkpt>
  2104. <trkpt lat="38.43109700" lon="-92.88876400"><time>2016-06-08T09:13:41-05:00</time></trkpt>
  2105. <trkpt lat="38.43128300" lon="-92.87351000"><time>2016-06-08T09:25:41-05:00</time></trkpt>
  2106. <trkpt lat="38.43152700" lon="-92.86178800"><time>2016-06-08T09:37:40-05:00</time></trkpt>
  2107. <trkpt lat="38.43110900" lon="-92.86107100"><time>2016-06-08T09:49:41-05:00</time></trkpt>
  2108. <trkpt lat="38.43144400" lon="-92.86133900"><time>2016-06-08T10:01:40-05:00</time></trkpt>
  2109. <trkpt lat="38.43149500" lon="-92.86067700"><time>2016-06-08T10:13:36-05:00</time></trkpt>
  2110. <trkpt lat="38.43553100" lon="-92.84849500"><time>2016-06-08T10:25:36-05:00</time></trkpt>
  2111. <trkpt lat="38.44280200" lon="-92.83935600"><time>2016-06-08T10:37:34-05:00</time></trkpt>
  2112. <trkpt lat="38.44522000" lon="-92.82638000"><time>2016-06-08T10:49:36-05:00</time></trkpt>
  2113. <trkpt lat="38.44509500" lon="-92.82421700"><time>2016-06-08T11:01:31-05:00</time></trkpt>
  2114. <trkpt lat="38.44704100" lon="-92.80790000"><time>2016-06-08T11:13:30-05:00</time></trkpt>
  2115. <trkpt lat="38.44778100" lon="-92.79570300"><time>2016-06-08T11:25:29-05:00</time></trkpt>
  2116. <trkpt lat="38.44891500" lon="-92.78310600"><time>2016-06-08T11:37:28-05:00</time></trkpt>
  2117. <trkpt lat="38.44885100" lon="-92.77809300"><time>2016-06-08T11:49:27-05:00</time></trkpt>
  2118. <trkpt lat="38.44860700" lon="-92.76430900"><time>2016-06-08T12:01:25-05:00</time></trkpt>
  2119. <trkpt lat="38.44841900" lon="-92.75281000"><time>2016-06-08T12:13:24-05:00</time></trkpt>
  2120. <trkpt lat="38.44816300" lon="-92.73992600"><time>2016-06-08T12:25:24-05:00</time></trkpt>
  2121. <trkpt lat="38.44816300" lon="-92.73992600"><time>2016-06-08T12:37:23-05:00</time></trkpt>
  2122. <trkpt lat="38.44829400" lon="-92.73827400"><time>2016-06-08T12:49:22-05:00</time></trkpt>
  2123. <trkpt lat="38.45033700" lon="-92.71677600"><time>2016-06-08T13:01:21-05:00</time></trkpt>
  2124. <trkpt lat="38.45227200" lon="-92.69714200"><time>2016-06-08T13:13:21-05:00</time></trkpt>
  2125. <trkpt lat="38.45254600" lon="-92.68670900"><time>2016-06-08T13:25:19-05:00</time></trkpt>
  2126. <trkpt lat="38.45375800" lon="-92.67355000"><time>2016-06-08T13:37:19-05:00</time></trkpt>
  2127. <trkpt lat="38.45425500" lon="-92.67140300"><time>2016-06-08T13:49:19-05:00</time></trkpt>
  2128. <trkpt lat="38.45415000" lon="-92.67022600"><time>2016-06-08T14:01:48-05:00</time></trkpt>
  2129. <trkpt lat="38.45964600" lon="-92.65819700"><time>2016-06-08T14:13:19-05:00</time></trkpt>
  2130. <trkpt lat="38.46254400" lon="-92.64542700"><time>2016-06-08T14:25:18-05:00</time></trkpt>
  2131. <trkpt lat="38.46774800" lon="-92.63418000"><time>2016-06-08T14:37:16-05:00</time></trkpt>
  2132. <trkpt lat="38.47218400" lon="-92.62130800"><time>2016-06-08T14:49:14-05:00</time></trkpt>
  2133. <trkpt lat="38.48300700" lon="-92.60610700"><time>2016-06-08T15:01:13-05:00</time></trkpt>
  2134. <trkpt lat="38.48409400" lon="-92.59277200"><time>2016-06-08T15:13:12-05:00</time></trkpt>
  2135. <trkpt lat="38.48438600" lon="-92.59098800"><time>2016-06-08T15:25:13-05:00</time></trkpt>
  2136. <trkpt lat="38.48438600" lon="-92.59098800"><time>2016-06-08T15:37:10-05:00</time></trkpt>
  2137. <trkpt lat="38.48454300" lon="-92.59110700"><time>2016-06-08T15:53:43-05:00</time></trkpt>
  2138. <trkpt lat="38.48501800" lon="-92.58814000"><time>2016-06-08T16:06:05-05:00</time></trkpt>
  2139. <trkpt lat="38.48896300" lon="-92.57690100"><time>2016-06-08T16:18:05-05:00</time></trkpt>
  2140. <trkpt lat="38.49426700" lon="-92.56646000"><time>2016-06-08T16:30:04-05:00</time></trkpt>
  2141. <trkpt lat="38.49679000" lon="-92.55567800"><time>2016-06-08T16:42:03-05:00</time></trkpt>
  2142. <trkpt lat="38.49983600" lon="-92.54911400"><time>2016-06-08T16:54:03-05:00</time></trkpt>
  2143. <trkpt lat="38.50030300" lon="-92.54928400"><time>2016-06-08T17:06:02-05:00</time></trkpt>
  2144. <trkpt lat="38.50030300" lon="-92.54928400"><time>2016-06-08T17:17:59-05:00</time></trkpt>
  2145. <trkpt lat="38.50030300" lon="-92.54928400"><time>2016-06-08T17:29:59-05:00</time></trkpt>
  2146. <trkpt lat="38.50030300" lon="-92.54928400"><time>2016-06-08T17:41:57-05:00</time></trkpt>
  2147. <trkpt lat="38.50030300" lon="-92.54928400"><time>2016-06-08T17:53:22-05:00</time></trkpt>
  2148. <trkpt lat="38.50027000" lon="-92.54926200"><time>2016-06-08T18:05:56-05:00</time></trkpt>
  2149. <trkpt lat="38.49990000" lon="-92.54896300"><time>2016-06-08T19:00:32-05:00</time></trkpt>
  2150. <trkpt lat="38.50598600" lon="-92.53984100"><time>2016-06-08T19:11:46-05:00</time></trkpt>
  2151. <trkpt lat="38.51006000" lon="-92.51916200"><time>2016-06-08T19:23:47-05:00</time></trkpt>
  2152. <trkpt lat="38.50854100" lon="-92.49997000"><time>2016-06-08T19:35:45-05:00</time></trkpt>
  2153. <trkpt lat="38.50797900" lon="-92.47848200"><time>2016-06-08T19:47:47-05:00</time></trkpt>
  2154. <trkpt lat="38.50463100" lon="-92.45692300"><time>2016-06-08T20:03:20-05:00</time></trkpt>
  2155. <trkpt lat="38.50870800" lon="-92.44140400"><time>2016-06-08T20:15:20-05:00</time></trkpt>
  2156. <trkpt lat="38.51434100" lon="-92.42997700"><time>2016-06-08T20:27:16-05:00</time></trkpt>
  2157. <trkpt lat="38.51573700" lon="-92.41754400"><time>2016-06-08T20:39:18-05:00</time></trkpt>
  2158. <trkpt lat="38.51589200" lon="-92.41167900"><time>2016-06-08T20:51:15-05:00</time></trkpt>
  2159. <trkpt lat="38.51649700" lon="-92.39351500"><time>2016-06-08T21:03:13-05:00</time></trkpt>
  2160. <trkpt lat="38.51837800" lon="-92.38154300"><time>2016-06-08T21:15:13-05:00</time></trkpt>
  2161. <trkpt lat="38.51952800" lon="-92.36772500"><time>2016-06-08T21:27:14-05:00</time></trkpt>
  2162. <trkpt lat="38.52316200" lon="-92.35597200"><time>2016-06-08T21:39:12-05:00</time></trkpt>
  2163. <trkpt lat="38.53445900" lon="-92.33831400"><time>2016-06-08T21:51:11-05:00</time></trkpt>
  2164. <trkpt lat="38.53434200" lon="-92.32458700"><time>2016-06-08T22:01:54-05:00</time></trkpt>
  2165. <trkpt lat="38.53368600" lon="-92.32360700"><time>2016-06-08T22:12:27-05:00</time></trkpt>
  2166. <trkpt lat="38.53362000" lon="-92.32370700"><time>2016-06-08T22:24:09-05:00</time></trkpt>
  2167. <trkpt lat="38.53378000" lon="-92.32366000"><time>2016-06-08T22:51:30-05:00</time></trkpt>
  2168. <trkpt lat="38.53378000" lon="-92.32366000"><time>2016-06-08T23:04:01-05:00</time></trkpt>
  2169. <trkpt lat="38.53378000" lon="-92.32366000"><time>2016-06-08T23:15:00-05:00</time></trkpt>
  2170. <trkpt lat="38.53378000" lon="-92.32366000"><time>2016-06-08T23:26:59-05:00</time></trkpt>
  2171. <trkpt lat="38.53377200" lon="-92.32333200"><time>2016-06-08T23:38:57-05:00</time></trkpt>
  2172. <trkpt lat="38.53256900" lon="-92.32132700"><time>2016-06-08T23:51:01-05:00</time></trkpt>
  2173. <trkpt lat="38.53185700" lon="-92.31244000"><time>2016-06-09T00:02:58-05:00</time></trkpt>
  2174. <trkpt lat="38.53560400" lon="-92.30335900"><time>2016-06-09T00:14:58-05:00</time></trkpt>
  2175. <trkpt lat="38.53881600" lon="-92.29183800"><time>2016-06-09T00:26:53-05:00</time></trkpt>
  2176. <trkpt lat="38.54241000" lon="-92.28267200"><time>2016-06-09T00:38:51-05:00</time></trkpt>
  2177. <trkpt lat="38.54768500" lon="-92.27273900"><time>2016-06-09T00:51:24-05:00</time></trkpt>
  2178. <trkpt lat="38.54658000" lon="-92.26639900"><time>2016-06-09T01:02:58-05:00</time></trkpt>
  2179. <trkpt lat="38.54500600" lon="-92.26245600"><time>2016-06-09T01:14:51-05:00</time></trkpt>
  2180. <trkpt lat="38.54467600" lon="-92.25314700"><time>2016-06-09T01:26:50-05:00</time></trkpt>
  2181. <trkpt lat="38.54684900" lon="-92.23919100"><time>2016-06-09T01:38:54-05:00</time></trkpt>
  2182. <trkpt lat="38.54685400" lon="-92.22835000"><time>2016-06-09T01:50:48-05:00</time></trkpt>
  2183. <trkpt lat="38.54913700" lon="-92.21763800"><time>2016-06-09T02:03:22-05:00</time></trkpt>
  2184. <trkpt lat="38.55226900" lon="-92.20671100"><time>2016-06-09T02:14:49-05:00</time></trkpt>
  2185. <trkpt lat="38.55530100" lon="-92.19666700"><time>2016-06-09T02:26:49-05:00</time></trkpt>
  2186. <trkpt lat="38.55797400" lon="-92.19400000"><time>2016-06-09T02:38:44-05:00</time></trkpt>
  2187. <trkpt lat="38.55797400" lon="-92.19400000"><time>2016-06-09T02:56:10-05:00</time></trkpt>
  2188. <trkpt lat="38.55797400" lon="-92.19400000"><time>2016-06-09T03:17:14-05:00</time></trkpt>
  2189. <trkpt lat="38.55797400" lon="-92.19400000"><time>2016-06-09T04:36:50-05:00</time></trkpt>
  2190. <trkpt lat="38.55797400" lon="-92.19400000"><time>2016-06-09T04:48:00-05:00</time></trkpt>
  2191. <trkpt lat="38.55797400" lon="-92.19400000"><time>2016-06-09T04:59:19-05:00</time></trkpt>
  2192. <trkpt lat="38.55797400" lon="-92.19400000"><time>2016-06-09T05:10:01-05:00</time></trkpt>
  2193. <trkpt lat="38.55804900" lon="-92.19289400"><time>2016-06-09T05:20:24-05:00</time></trkpt>
  2194. <trkpt lat="38.55791300" lon="-92.19292100"><time>2016-06-09T05:32:13-05:00</time></trkpt>
  2195. <trkpt lat="38.56449000" lon="-92.18453500"><time>2016-06-09T05:44:01-05:00</time></trkpt>
  2196. <trkpt lat="38.57287700" lon="-92.18408200"><time>2016-06-09T05:56:01-05:00</time></trkpt>
  2197. <trkpt lat="38.58076900" lon="-92.18356500"><time>2016-06-09T06:08:00-05:00</time></trkpt>
  2198. <trkpt lat="38.58866700" lon="-92.17711800"><time>2016-06-09T06:19:58-05:00</time></trkpt>
  2199. <trkpt lat="38.59249400" lon="-92.17300500"><time>2016-06-09T06:31:59-05:00</time></trkpt>
  2200. <trkpt lat="38.59850000" lon="-92.16791400"><time>2016-06-09T06:43:56-05:00</time></trkpt>
  2201. <trkpt lat="38.59739200" lon="-92.15488900"><time>2016-06-09T06:55:56-05:00</time></trkpt>
  2202. <trkpt lat="38.59575400" lon="-92.14217000"><time>2016-06-09T07:07:55-05:00</time></trkpt>
  2203. <trkpt lat="38.59503500" lon="-92.14049900"><time>2016-06-09T07:19:55-05:00</time></trkpt>
  2204. <trkpt lat="38.59230600" lon="-92.13443200"><time>2016-06-09T07:31:56-05:00</time></trkpt>
  2205. <trkpt lat="38.58779500" lon="-92.12531100"><time>2016-06-09T07:43:52-05:00</time></trkpt>
  2206. <trkpt lat="38.58408400" lon="-92.11532700"><time>2016-06-09T07:55:51-05:00</time></trkpt>
  2207. <trkpt lat="38.58139700" lon="-92.10252900"><time>2016-06-09T08:07:51-05:00</time></trkpt>
  2208. <trkpt lat="38.58071400" lon="-92.08710000"><time>2016-06-09T08:19:50-05:00</time></trkpt>
  2209. <trkpt lat="38.58121200" lon="-92.07994700"><time>2016-06-09T08:31:56-05:00</time></trkpt>
  2210. <trkpt lat="38.58094700" lon="-92.07976200"><time>2016-06-09T08:43:54-05:00</time></trkpt>
  2211. <trkpt lat="38.58094700" lon="-92.07976200"><time>2016-06-09T08:54:42-05:00</time></trkpt>
  2212. <trkpt lat="38.58094700" lon="-92.07976200"><time>2016-06-09T09:07:03-05:00</time></trkpt>
  2213. <trkpt lat="38.58149200" lon="-92.07381000"><time>2016-06-09T09:19:42-05:00</time></trkpt>
  2214. <trkpt lat="38.58263000" lon="-92.06083900"><time>2016-06-09T09:31:43-05:00</time></trkpt>
  2215. <trkpt lat="38.58414000" lon="-92.05140200"><time>2016-06-09T09:43:40-05:00</time></trkpt>
  2216. <trkpt lat="38.58673500" lon="-92.03978600"><time>2016-06-09T09:55:41-05:00</time></trkpt>
  2217. <trkpt lat="38.58832100" lon="-92.02861400"><time>2016-06-09T10:07:40-05:00</time></trkpt>
  2218. <trkpt lat="38.59218800" lon="-92.01860600"><time>2016-06-09T10:19:40-05:00</time></trkpt>
  2219. </trkseg></trk></gpx>
RAW Paste Data
We use cookies for various purposes including analytics. By continuing to use Pastebin, you agree to our use of cookies as described in the Cookies Policy. OK, I Understand
 
Top